[[{"header":{"parameterUnit":"m.s-1","parameterCategory":1,"la1":30.6,"la2":29.2853,"lo1":-89.7004,"lo2":-87.6739,"dy":0.0162,"dx":0.0183,"nx":112,"ny":82,"refTime":"2023-09-28T18:00:00:Z","depth":0,"parameterNumber":2,"parameterNumberName":"U-component_of_WINDS"},"data":[0.0,0.0,0.0,0.0,0.0,0.0,0.0,0.0,0.0,0.0,0.0,0.0,0.0,0.0,0.0,0.0,0.0,0.0,0.0,0.0,0.0,0.0,0.0,0.0,0.0,0.0,0.0,0.0,0.0,0.0,0.0,0.0,0.0,0.0,0.0,0.0,0.0,0.0,0.0,0.0,0.0,0.0,0.0,0.0,0.0,0.0,0.0,0.0,0.0,0.0,0.0,0.0,0.0,0.0,0.0,0.0,0.0,0.0,0.0,0.0,0.0,0.0,0.0,0.0,0.0,0.0,0.0,0.0,0.0,0.0,0.0,0.0,0.0,0.0,0.0,0.0,0.0,0.0,0.0,0.0,0.0,0.0,0.0,0.0,0.0,0.0,0.0,0.0,0.0,0.0,1.5213,1.5438,1.5655,1.5808,1.5808,1.5808,1.5808,1.5808,0.0,0.0,0.0,0.0,0.0,0.0,0.0,0.0,0.0,0.0,0.0,0.0,0.0,0.0,0.0,0.0,0.0,0.0,0.0,0.0,0.0,0.0,0.0,0.0,0.0,0.0,0.0,0.0,0.0,0.0,0.0,0.0,0.0,0.0,0.0,0.0,0.0,0.0,0.0,0.0,0.0,0.0,0.0,0.0,0.0,0.0,0.0,0.0,0.0,0.0,0.0,0.0,0.0,0.0,0.0,0.0,0.0,0.0,0.0,0.0,0.0,0.0,0.0,0.0,0.0,0.0,0.0,0.0,0.0,0.0,0.0,0.0,0.0,0.0,0.0,0.0,0.0,0.0,0.0,0.0,0.0,0.0,0.0,0.0,0.0,0.0,0.0,0.0,0.0,0.0,0.0,0.0,0.0,0.0,0.0,0.0,0.0,0.0,0.0,0.0,0.0,0.0,0.0,0.0,1.5688,1.5735,1.5781,1.5808,1.5808,1.5808,1.5808,1.5808,0.0,0.0,0.0,0.0,0.0,0.0,0.0,0.0,0.0,0.0,0.0,0.0,0.0,0.0,0.0,0.0,0.0,0.0,0.0,0.0,0.0,0.0,0.0,0.0,0.0,0.0,0.0,0.0,0.0,0.0,0.0,0.0,0.0,0.0,0.0,0.0,0.0,0.0,0.0,0.0,0.0,0.0,0.0,0.0,0.0,0.0,0.0,0.0,0.0,0.0,0.0,0.0,0.0,0.0,0.0,0.0,0.0,0.0,0.0,0.0,0.0,0.0,0.0,0.0,0.0,0.0,0.0,0.0,0.0,0.0,0.0,0.0,0.0,0.0,0.0,0.0,0.0,0.0,0.0,0.0,0.0,0.0,0.0,0.0,0.0,0.0,0.0,0.0,0.0,0.0,0.0,0.0,0.0,0.0,0.0,0.0,0.0,0.0,0.0,0.0,0.0,0.0,0.0,1.5721,1.5808,1.5808,1.5948,1.6072,1.6072,1.6188,1.6282,1.6282,1.6282,0.0,0.0,0.0,0.0,0.0,0.0,0.0,0.0,0.0,0.0,0.0,0.0,0.0,0.0,0.0,0.0,0.0,0.0,0.0,0.0,0.0,0.0,0.0,0.0,0.0,0.0,0.0,0.0,0.0,0.0,0.0,0.0,0.0,0.0,0.0,0.0,0.0,0.0,0.0,0.0,0.0,0.0,0.0,0.0,0.0,0.0,0.0,0.0,0.0,0.0,0.0,0.0,0.0,0.0,0.0,0.0,0.0,0.0,0.0,0.0,0.0,0.0,0.0,0.0,0.0,0.0,0.0,0.0,0.0,0.0,0.0,0.0,0.0,0.0,0.0,0.0,0.0,0.0,0.0,0.0,0.0,0.0,0.0,0.0,0.0,0.0,0.0,0.0,0.0,0.0,0.0,0.0,0.0,0.0,0.0,0.0,0.0,0.0,0.0,0.0,0.0,0.0,1.5908,1.5935,1.6008,1.6239,1.6397,1.6397,1.658,1.6707,1.6707,1.6707,0.0,0.0,0.0,0.0,0.0,0.0,0.0,0.0,0.0,0.0,0.0,0.0,0.0,0.0,0.0,0.0,0.0,0.0,0.0,0.0,0.0,0.0,0.0,0.0,0.0,0.0,0.0,0.0,0.0,0.0,0.0,0.0,0.0,0.0,0.0,0.0,0.0,0.0,0.0,0.0,0.0,0.0,0.0,0.0,0.0,0.0,0.0,0.0,0.0,0.0,0.0,0.0,0.0,0.0,0.0,0.0,0.0,0.0,0.0,0.0,0.0,0.0,0.0,0.0,0.0,0.0,0.0,0.0,0.0,0.0,0.0,0.0,0.0,0.0,0.0,0.0,0.0,0.0,0.0,0.0,0.0,0.0,0.0,0.0,0.0,0.0,0.0,0.0,0.0,0.0,0.0,0.0,0.0,0.0,0.0,0.0,0.0,0.0,0.0,0.0,0.0,0.0,1.627,1.6371,1.6613,1.666,1.6673,1.6673,1.6693,1.6707,1.6707,1.6707,0.0,0.0,0.0,0.0,0.0,0.0,0.0,0.0,0.0,0.0,0.0,0.0,0.0,0.0,0.0,0.0,0.0,0.0,0.0,0.0,0.0,0.0,0.0,0.0,0.0,0.0,0.0,0.0,0.0,0.0,0.0,0.0,0.0,0.0,0.0,0.0,0.0,0.0,0.0,0.0,0.0,0.0,0.0,0.0,0.0,0.0,0.0,0.0,0.0,0.0,0.0,0.0,0.0,0.0,0.0,0.0,0.0,0.0,0.0,0.0,0.0,0.0,0.0,0.0,0.0,0.0,0.0,0.0,0.0,0.0,0.0,0.0,0.0,0.0,0.0,0.0,0.0,0.0,0.0,0.0,0.0,0.0,0.0,0.0,0.0,0.0,0.0,0.0,0.0,0.0,0.0,0.0,0.0,0.0,0.0,0.0,0.0,0.0,0.0,0.0,0.0,0.0,1.6547,1.6587,1.6693,1.6899,1.7006,1.7006,1.7173,1.7255,1.7255,0.0,0.0,0.0,0.0,0.0,0.0,0.0,0.0,0.0,0.0,0.0,0.0,0.0,0.0,0.0,0.0,0.0,0.0,0.0,0.0,0.0,0.0,0.0,0.0,0.0,0.0,0.0,0.0,0.0,0.0,0.0,0.0,0.0,0.0,0.0,0.0,0.0,0.0,0.0,0.0,0.0,0.0,0.0,0.0,0.0,0.0,0.0,0.0,0.0,0.0,0.0,0.0,0.0,0.0,0.0,0.0,0.0,0.0,0.0,0.0,0.0,0.0,0.0,0.0,0.0,0.0,0.0,0.0,0.0,0.0,0.0,0.0,0.0,0.0,0.0,0.0,0.0,0.0,0.0,0.0,0.0,0.0,0.0,0.0,0.0,0.0,0.0,0.0,0.0,0.0,0.0,0.0,0.0,0.0,0.0,0.0,0.0,0.0,0.0,0.0,0.0,0.0,1.6807,1.6872,1.6881,1.6974,1.7193,1.734,1.734,1.7495,1.7608,1.7608,0.0,0.0,0.0,0.0,0.0,0.0,0.0,0.0,0.0,0.0,0.0,0.0,0.0,0.0,0.0,0.0,0.0,0.0,0.0,0.0,0.0,0.0,0.0,0.0,0.0,0.0,0.0,0.0,0.0,0.0,0.0,0.0,0.0,0.0,0.0,0.0,0.0,0.0,0.0,0.0,0.0,0.0,0.0,0.0,0.0,0.0,0.0,0.0,0.0,0.0,0.0,0.0,0.0,0.0,0.0,0.0,0.0,0.0,0.0,0.0,0.0,0.0,0.0,0.0,0.0,0.0,0.0,0.0,0.0,0.0,0.0,0.0,0.0,0.0,0.0,0.0,0.0,0.0,0.0,0.0,0.0,0.0,0.0,0.0,0.0,0.0,0.0,0.0,0.0,0.0,0.0,0.0,0.0,0.0,0.0,0.0,0.0,0.0,0.0,0.0,0.0,0.0,1.7166,1.7206,1.732,1.7582,1.7608,1.7608,1.7608,1.7608,1.7608,0.0,0.0,0.0,0.0,0.0,0.0,0.0,0.0,0.0,0.0,0.0,0.0,0.0,0.0,0.0,0.0,0.0,0.0,0.0,0.0,0.0,0.0,0.0,0.0,0.0,0.0,0.0,0.0,0.0,0.0,0.0,0.0,0.0,0.0,0.0,0.0,0.0,0.0,0.0,0.0,0.0,0.0,0.0,0.0,0.0,0.0,0.0,0.0,0.0,0.0,0.0,0.0,0.0,0.0,0.0,0.0,0.0,0.0,0.0,0.0,0.0,0.0,0.0,0.0,0.0,0.0,0.0,0.0,0.0,0.0,0.0,0.0,0.0,0.0,0.0,0.0,0.0,0.0,0.0,0.0,0.0,0.0,0.0,0.0,0.0,0.0,0.0,0.0,0.0,0.0,0.0,0.0,0.0,0.0,0.0,0.0,0.0,0.0,0.0,0.0,0.0,0.0,0.0,1.7441,1.7481,1.7515,1.7595,1.7608,1.7608,1.7608,1.7608,1.7608,1.7608,0.0,0.0,0.0,0.0,0.0,0.0,0.0,0.0,0.0,0.0,0.0,0.0,0.0,0.0,0.0,0.0,0.0,0.0,0.0,0.0,0.0,0.0,0.0,0.0,0.0,0.0,0.0,0.0,0.0,0.0,0.0,0.0,0.0,0.0,0.0,0.0,0.0,0.0,0.0,0.0,0.0,0.0,0.0,0.0,0.0,0.0,0.0,0.0,0.0,0.0,0.0,0.0,0.0,0.0,0.0,0.0,0.0,0.0,0.0,0.0,0.0,0.0,0.0,0.0,0.0,0.0,0.0,0.0,0.0,0.0,0.0,0.0,0.0,0.0,0.0,0.0,0.0,0.0,0.0,0.0,0.0,0.0,0.0,0.0,0.0,0.0,0.0,0.0,0.0,0.0,0.0,0.0,0.0,0.0,0.0,0.0,0.0,0.0,0.0,0.0,0.0,0.0,1.7588,1.7608,1.7608,1.7608,1.7608,1.7608,1.7608,1.7608,1.7608,1.7608,0.0,0.0,0.0,0.0,0.0,0.0,0.0,0.0,0.0,0.0,0.0,0.0,0.0,0.0,0.0,0.0,0.0,0.0,0.0,0.0,0.0,0.0,0.0,0.0,0.0,0.0,0.0,0.0,0.0,0.0,0.0,0.0,0.0,0.0,0.0,0.0,0.0,0.0,0.0,0.0,0.0,0.0,0.0,0.0,0.0,0.0,0.0,0.0,0.0,0.0,0.0,0.0,0.0,0.0,0.0,0.0,0.0,0.0,0.0,0.0,0.0,0.0,0.0,0.0,0.0,0.0,0.0,0.0,0.0,0.0,0.0,0.0,0.0,0.0,0.0,0.0,0.0,0.0,0.0,0.0,0.0,0.0,0.0,0.0,0.0,0.0,0.0,0.0,0.0,0.0,0.0,0.0,0.0,0.0,0.0,0.0,0.0,0.0,0.0,0.0,0.0,0.0,1.7608,1.7608,1.7608,1.7608,1.7608,1.7608,1.7608,1.7608,1.7608,1.7608,0.0,0.0,0.0,0.0,0.0,0.0,0.0,0.0,0.0,0.0,0.0,0.0,0.0,0.0,0.0,0.0,0.0,0.0,0.0,0.0,0.0,0.0,0.0,0.0,0.0,0.0,0.0,0.0,0.0,0.0,0.0,0.0,0.0,0.0,0.0,0.0,0.0,0.0,0.0,0.0,0.0,0.0,0.0,0.0,0.0,0.0,0.0,0.0,0.0,0.0,0.0,0.0,0.0,0.0,0.0,0.0,0.0,0.0,0.0,0.0,1.7811,1.8437,0.0,0.0,0.0,0.0,0.0,0.0,0.0,0.0,0.0,0.0,0.0,0.0,0.0,0.0,0.0,0.0,0.0,0.0,0.0,0.0,0.0,0.0,0.0,0.0,0.0,0.0,0.0,0.0,0.0,0.0,0.0,0.0,0.0,0.0,0.0,0.0,0.0,0.0,0.0,0.0,1.7608,1.7608,1.7608,1.7608,1.7608,1.7608,1.7608,1.7608,1.7608,1.7608,1.7608,0.0,0.0,0.0,0.0,0.0,0.0,0.0,0.0,0.0,0.0,0.0,0.0,0.0,0.0,0.0,0.0,0.0,0.0,0.0,0.0,0.0,0.0,0.0,0.0,0.0,0.0,0.0,0.0,0.0,0.0,0.0,0.0,0.0,0.0,0.0,0.0,0.0,0.0,0.0,0.0,0.0,0.0,0.0,0.0,0.0,0.0,0.0,0.0,0.0,0.0,0.0,0.0,0.0,0.0,0.0,0.0,0.0,0.0,0.0,1.7401,1.7612,0.0,0.0,0.0,0.0,0.0,0.0,0.0,0.0,0.0,0.0,0.0,0.0,0.0,0.0,0.0,0.0,0.0,0.0,0.0,0.0,0.0,0.0,0.0,0.0,0.0,0.0,0.0,0.0,0.0,0.0,0.0,0.0,0.0,0.0,0.0,0.0,0.0,0.0,0.0,0.0,1.7608,1.7608,1.7608,1.7608,1.7608,1.7608,1.7608,1.7608,1.7608,1.7608,1.7608,0.0,0.0,0.0,0.0,0.0,0.0,0.0,0.0,0.0,0.0,0.0,0.0,0.0,0.0,0.0,0.0,0.0,0.0,0.0,0.0,0.0,0.0,0.0,0.0,0.0,0.0,0.0,0.0,0.0,0.0,0.0,0.0,0.0,0.0,0.0,0.0,0.0,0.0,0.0,0.0,0.0,0.0,0.0,0.0,0.0,0.0,0.0,0.0,0.0,0.0,0.0,0.0,0.0,1.8341,1.7965,1.8139,1.7143,1.6707,1.673,1.7289,1.6918,1.5961,1.5961,0.0,0.0,0.0,0.0,0.0,0.0,0.0,0.0,0.0,0.0,0.0,0.0,0.0,0.0,0.0,0.0,0.0,0.0,0.0,0.0,0.0,0.0,0.0,0.0,1.6484,1.6701,1.6202,0.0,0.0,0.0,0.0,0.0,0.0,0.0,0.0,0.0,0.0,0.0,1.7608,1.7629,1.7662,1.7662,1.7709,1.7769,1.7769,1.7769,1.7769,1.7769,1.7769,1.7769,0.0,0.0,0.0,0.0,0.0,0.0,0.0,0.0,0.0,0.0,0.0,0.0,0.0,0.0,0.0,0.0,0.0,0.0,0.0,0.0,0.0,0.0,0.0,0.0,0.0,0.0,0.0,0.0,0.0,0.0,0.0,0.0,1.6815,1.5874,0.0,0.0,0.0,0.0,0.0,0.0,0.0,0.0,0.0,0.0,0.0,0.0,0.0,1.7055,1.6989,1.7055,1.709,1.7131,1.6964,1.6909,1.6925,1.6782,1.6707,1.67,1.6794,0.0,1.6587,1.6587,0.0,0.0,0.0,0.0,0.0,0.0,0.0,0.0,0.0,0.0,0.0,0.0,0.0,0.0,0.0,0.0,0.0,0.0,0.0,0.0,0.0,0.0,1.5332,1.404,1.3815,1.3842,0.0,1.575,1.7548,1.7548,1.7582,0.0,0.0,0.0,0.0,0.0,0.0,0.0,1.7608,1.7789,1.7962,1.7962,1.8217,1.837,1.837,1.837,1.837,1.837,1.837,1.837,1.837,1.837,0.0,0.0,0.0,0.0,0.0,0.0,0.0,0.0,0.0,0.0,0.0,0.0,0.0,0.0,0.0,0.0,0.0,0.0,0.0,0.0,0.0,0.0,0.0,0.0,0.0,0.0,0.0,0.0,0.0,1.7157,1.6953,1.5779,1.5899,1.6079,0.0,0.0,0.0,0.0,0.0,0.0,0.0,0.0,0.0,1.6707,1.6707,1.6707,1.6707,1.6707,1.6787,1.6979,1.6979,1.7066,1.7201,1.7201,1.7201,1.7201,1.7201,1.7201,1.7174,1.684,1.6707,1.6707,0.0,0.0,0.0,0.0,1.6707,1.6727,1.6926,1.6979,1.6879,1.6194,0.0,0.0,0.0,0.0,0.0,0.0,0.0,0.0,0.0,0.0,1.4073,1.3453,1.3291,1.3291,1.3291,1.4288,1.5423,0.0,1.7035,1.7642,1.7789,0.0,0.0,0.0,0.0,1.5736,1.663,1.6857,1.6931,1.6931,1.7866,1.849,1.849,1.849,1.849,1.849,1.849,1.849,1.849,1.849,1.849,0.0,0.0,0.0,0.0,0.0,0.0,0.0,0.0,0.0,0.0,0.0,0.0,0.0,0.0,0.0,0.0,0.0,0.0,0.0,0.0,0.0,0.0,0.0,0.0,0.0,0.0,0.0,0.0,1.6804,1.7092,1.6148,1.6246,1.6411,0.0,0.0,0.0,0.0,0.0,0.0,1.682,1.6887,1.6927,1.6927,1.6927,1.6927,1.6927,1.6927,1.7066,1.7313,1.7313,1.7401,1.7608,1.7608,1.7608,1.7608,1.7608,1.7608,1.7575,1.7114,1.6927,1.6927,1.6927,1.6927,1.6927,1.6927,1.6927,1.6961,1.7207,1.7073,1.66,1.5677,1.515,1.4663,1.3615,0.0,0.0,0.0,0.0,1.321,1.2837,1.2751,1.2647,1.2267,1.2196,1.226,1.226,1.2549,1.3252,0.0,1.5791,1.6646,1.6873,0.0,0.0,1.7052,1.5232,1.412,1.5344,1.5569,1.5609,1.5609,1.7131,1.8136,1.8136,1.848,1.8739,1.8739,1.8739,1.8739,1.8739,1.8739,1.8739,1.8739,0.0,0.0,0.0,0.0,0.0,0.0,0.0,0.0,0.0,0.0,0.0,0.0,0.0,0.0,0.0,0.0,0.0,0.0,0.0,0.0,0.0,0.0,0.0,0.0,0.0,0.0,0.0,0.0,0.0,1.666,1.6673,0.0,0.0,0.0,0.0,1.6707,1.6993,1.7179,1.7179,1.7414,1.7535,1.7535,1.7535,1.7535,1.7535,1.7535,1.7575,1.7588,1.7588,1.7595,1.7608,1.7608,1.7608,1.7608,1.7608,1.7608,1.7608,1.7575,1.7535,1.7535,1.7535,1.7535,1.7535,1.7535,1.7535,1.7568,1.7582,1.6665,1.5479,1.5411,1.4502,1.3399,1.3318,1.3291,0.0,0.0,1.3291,1.2972,1.1565,1.1214,1.0863,0.9454,0.9262,0.9395,0.9395,1.0546,1.1997,0.0,1.3671,1.3737,1.3894,0.0,1.3821,1.3917,1.3803,1.3718,1.3803,1.4104,1.4293,1.4293,1.5954,1.7079,1.7079,1.848,1.9354,1.9354,1.9354,1.9354,1.9354,1.9354,1.9354,1.9354,1.9354,0.0,0.0,0.0,0.0,0.0,0.0,0.0,0.0,0.0,0.0,0.0,0.0,0.0,0.0,0.0,0.0,0.0,0.0,0.0,0.0,0.0,0.0,0.0,0.0,0.0,0.0,0.0,0.0,1.6707,1.6899,0.0,1.7013,1.7187,1.7268,1.7268,1.7394,1.7454,1.7454,1.7548,1.7608,1.7608,1.7608,1.7608,1.7608,1.7608,1.7682,1.7856,1.7856,1.7983,1.817,1.817,1.817,1.817,1.817,1.817,1.8109,1.7066,1.7021,1.7608,1.7608,1.7608,1.7608,1.7608,1.7008,1.6174,1.6174,1.5257,1.3884,1.294,1.1647,1.0457,1.0457,1.056,1.0675,1.0675,1.0731,1.0677,1.015,1.0008,0.987,0.9336,0.9262,0.9328,0.9328,0.977,1.0308,1.0875,1.241,1.3707,1.3979,1.3158,1.289,1.4103,1.2512,1.157,1.26,1.2835,1.291,1.291,1.443,1.5459,1.5459,1.5967,1.6297,1.6297,1.6297,1.6297,1.6297,1.6297,1.6297,1.6297,1.7331,1.7864,0.0,0.0,0.0,0.0,0.0,0.0,0.0,0.0,0.0,0.0,0.0,0.0,0.0,0.0,0.0,0.0,0.0,0.0,0.0,0.0,0.0,0.0,0.0,0.0,0.0,1.6941,1.7001,1.7001,1.72,1.7321,1.7321,1.7495,1.7608,1.7608,1.7608,1.7608,1.7608,1.7608,1.7411,1.697,1.697,1.6741,1.6277,1.6277,1.6374,1.6563,1.6563,1.6683,1.6881,1.6881,1.6881,1.6881,1.6881,1.6908,1.6875,1.5812,1.5777,1.6429,1.6323,1.6277,1.6277,1.6277,1.5675,1.4773,1.4249,1.3482,1.2441,1.099,0.9861,0.9058,0.9058,0.9154,0.9257,0.9257,0.9332,0.941,0.941,0.941,0.941,0.941,0.9447,0.9459,0.9459,0.9496,0.9557,0.9659,1.1096,1.2412,1.2662,1.182,1.1562,1.2854,1.1175,1.02,1.1309,1.1413,1.1378,1.1378,1.2875,1.3875,1.3875,1.4389,1.4731,1.4731,1.4691,1.468,1.468,1.468,1.468,1.468,1.572,1.6246,1.6197,0.0,0.0,0.0,0.0,0.0,0.0,0.0,0.0,0.0,0.0,0.0,0.0,0.0,0.0,0.0,0.0,0.0,0.0,0.0,0.0,0.0,0.0,0.0,1.7227,1.7434,1.7608,1.7608,1.7556,1.7529,1.7529,1.7503,1.7477,1.7477,1.7477,1.7477,1.7463,1.7463,1.6917,1.5685,1.5636,1.5022,1.3718,1.369,1.37,1.371,1.371,1.372,1.3735,1.3735,1.3735,1.3735,1.3735,1.3796,1.3941,1.3878,1.3976,1.4133,1.3831,1.371,1.371,1.371,1.3676,1.3416,1.1937,1.1425,1.12,0.9838,0.941,0.9413,0.9417,0.942,0.9424,0.943,0.9434,0.9437,0.9437,0.9437,0.9437,0.9437,0.952,0.9632,0.9632,0.9737,0.9805,0.9805,0.9724,0.9673,0.9768,0.9795,0.9849,0.9994,0.9896,0.0,1.0005,0.9896,0.9805,0.9805,1.1337,1.2324,1.2324,1.3873,1.4852,1.4852,1.4742,1.4654,1.4654,1.4654,1.4684,1.4745,1.4745,1.4676,1.4624,0.0,0.0,0.0,0.0,0.0,0.0,0.0,0.0,0.0,0.0,0.0,0.0,0.0,0.0,0.0,0.0,0.0,0.0,0.0,0.0,0.0,1.6015,1.6335,1.7337,1.7555,1.7608,1.7608,1.6664,1.6015,1.6015,1.507,1.4475,1.4475,1.4475,1.4531,1.4625,1.4636,1.452,1.4247,1.4252,1.4081,1.369,1.369,1.3883,1.4202,1.4202,1.4366,1.4645,1.4645,1.4645,1.4645,1.4645,1.4649,1.4617,1.3484,1.3058,1.319,1.3815,1.4065,1.4065,1.4065,1.3318,1.2098,1.0533,0.9979,0.9921,0.9523,0.941,0.943,0.9513,0.9618,0.9724,0.9805,0.9947,1.0063,1.0063,1.0063,1.0063,1.0063,1.0066,1.0097,1.0097,1.0127,1.0154,1.0154,1.0124,1.0036,0.9822,0.9883,0.9967,0.998,1.0076,0.0,1.0212,1.0178,1.0154,1.0154,1.0598,1.0871,1.0871,1.1318,1.159,1.159,1.1547,1.1552,1.1552,1.1552,1.2077,1.3243,1.3279,1.3806,0.0,0.0,0.0,0.0,0.0,0.0,0.0,0.0,0.0,0.0,0.0,0.0,0.0,0.0,0.0,0.0,0.0,0.0,0.0,0.0,0.0,0.0,1.4904,1.4824,1.5689,1.5796,1.5796,1.5796,1.5043,1.4529,1.4529,1.3777,1.3332,1.3374,1.3379,1.3447,1.3585,1.3567,1.3356,1.291,1.2969,1.2732,1.2149,1.223,1.241,1.269,1.269,1.2806,1.3022,1.3022,1.3022,1.3022,1.3022,1.3065,1.3039,1.2159,1.1823,0.0,0.0,0.0,0.0,0.0,1.1963,1.1046,1.0087,0.9788,0.9788,0.9788,0.9788,0.9805,0.9863,0.9947,1.0032,1.0089,1.0212,1.0312,1.0312,1.0312,1.0312,1.0312,1.0312,1.0312,1.0312,1.0312,1.0312,1.0312,1.0312,0.0,1.0042,1.0055,1.0133,1.0194,1.0259,1.0332,1.0393,1.0317,1.0312,1.0312,1.0366,1.0368,1.0368,1.0429,0.0,0.0,0.0,1.0368,1.0368,1.0368,0.0,0.0,0.0,1.2186,1.3022,0.0,0.0,0.0,1.4149,1.4422,0.0,0.0,0.0,0.0,0.0,0.0,0.0,0.0,0.0,0.0,0.0,0.0,0.0,0.0,0.0,0.0,1.3884,1.2994,1.2837,1.281,1.294,1.3264,1.3156,1.3058,1.3083,1.292,1.2877,1.3045,1.3032,1.309,1.3236,1.3241,0.0,0.0,0.0,1.1233,1.0042,1.0212,1.0322,1.0304,1.0304,1.0346,1.0363,1.0363,1.0363,1.0363,1.0363,1.0402,1.0517,1.0517,1.0599,1.0694,1.0432,1.0363,1.0327,1.0342,1.0304,1.0332,1.0318,0.0,0.0,1.0312,1.0312,1.0315,1.0332,1.0304,1.0342,1.0324,1.0363,1.0363,1.0363,1.0363,1.0363,1.0363,1.0363,1.0363,1.0363,1.0363,1.0363,1.0363,1.0363,1.0363,1.0363,1.0317,1.0348,1.0473,1.0399,1.0375,1.05,1.0409,1.0363,1.0363,0.0,0.0,1.0517,1.0643,1.0688,1.0688,1.0592,1.0517,1.0517,1.0517,1.0517,1.0517,1.0517,1.0456,1.0363,1.0363,1.0363,1.0423,1.3196,1.3734,0.0,0.0,0.0,0.0,0.0,0.0,0.0,0.0,0.0,0.0,0.0,0.0,0.0,0.0,0.0,1.2132,1.1701,1.1105,0.9915,0.9754,1.0621,1.3026,1.224,1.1572,1.1689,1.0659,1.0041,1.018,1.0191,1.0261,1.0399,1.0495,1.0491,1.0351,1.0541,1.0486,1.0236,1.0266,1.0337,1.0453,0.0,0.0,1.0636,1.0636,1.0636,1.0636,1.0636,1.0649,1.0677,1.0677,1.0694,1.0681,1.0623,1.0636,1.0619,1.0497,1.0453,1.0436,1.0352,1.0312,1.0312,1.0312,1.0312,1.0332,1.0415,1.0453,0.0,1.0602,1.0636,1.0636,1.0636,1.0636,1.0636,1.0636,1.0636,1.0636,1.0636,1.0636,1.0636,1.0636,1.0636,1.0636,1.0636,1.0531,1.046,1.0487,1.0575,1.0643,1.0673,1.0653,1.0636,1.0636,1.066,1.0677,1.0677,1.0704,1.0688,1.0688,1.0694,1.0677,1.0677,1.0677,1.0677,1.0677,1.0677,1.0663,1.0636,1.0636,1.0636,1.0629,1.1023,1.1063,0.0,0.0,0.0,0.0,0.0,0.0,0.0,0.0,0.0,0.0,0.0,1.4341,1.4341,0.0,1.1973,1.1214,1.0484,0.9754,0.8992,0.8973,0.9597,1.1074,1.0612,1.0208,1.0347,0.9717,0.9359,0.9486,0.9561,0.9669,0.9792,0.9971,1.0086,1.0164,1.0307,1.0385,1.0385,1.0463,1.0534,1.0605,1.0605,1.0646,1.0688,1.0688,1.0688,1.0688,1.0688,1.0688,1.0724,1.0769,1.0799,1.0809,1.0914,1.085,1.0677,1.0633,1.0605,1.0595,1.0524,1.05,1.05,1.05,1.05,1.0514,1.0585,1.0605,1.0622,1.0667,1.0688,1.0688,1.0688,1.0688,1.0688,1.0688,1.0688,1.0688,1.0688,1.0688,1.0688,1.0688,1.0688,1.0688,1.0688,1.0623,1.0605,1.0605,1.067,1.0688,1.0688,1.0688,1.0688,1.0688,1.0688,1.0688,1.0688,1.0688,1.0688,1.0688,1.0688,1.0688,1.0688,1.0688,1.0688,1.0688,1.0688,1.0688,1.0688,1.0688,1.0688,1.0684,1.0568,1.05,0.0,0.0,0.0,0.0,0.0,0.0,0.0,1.3291,1.3291,1.3291,1.3075,1.2864,1.2864,1.1674,1.0676,1.0676,0.9671,0.8919,0.895,0.9107,0.9231,0.9264,0.9243,0.9284,0.9441,0.9425,0.95,0.9653,0.9771,0.99,1.0055,1.0239,1.0352,1.0352,1.0463,1.0534,1.0534,1.066,1.0688,1.0688,1.0688,1.0688,1.0688,1.0688,1.0701,1.0732,1.0795,1.0806,1.0816,1.0904,1.0955,1.0968,1.1152,1.1016,1.0802,1.0742,1.0715,1.0688,1.0688,1.0688,1.0688,1.0688,1.0688,1.0688,1.0688,1.0688,1.0688,1.0688,1.0688,1.0688,1.0688,1.0688,1.0688,1.0688,1.0688,1.0688,1.0688,1.0688,1.0688,1.0688,1.0688,1.0688,1.0688,1.0711,1.0721,1.0691,1.0688,1.0688,1.0688,1.0688,1.0688,1.0688,1.0688,1.0688,1.0688,1.0688,1.0688,1.0688,1.0688,1.0688,1.0688,1.0688,1.0688,1.0688,1.0688,1.0688,1.0688,1.0688,1.0688,1.0688,1.0688,1.0688,1.3391,1.3419,1.366,1.3551,1.3534,1.348,0.0,1.3291,1.3291,1.3291,1.2267,1.1351,1.1351,1.0131,0.9154,0.9154,0.902,0.8956,0.9141,0.92,0.9281,0.9527,0.9439,0.9415,0.9568,0.9585,0.967,0.9947,0.9984,1.0062,1.0246,1.0388,1.047,1.047,1.0616,1.0694,1.0694,1.0677,1.0688,1.0688,1.0688,1.0688,1.0688,1.0688,1.0762,1.0894,1.1056,1.1149,1.1149,1.1166,1.1172,1.1172,1.1189,1.1179,1.1132,1.0938,1.0803,1.0688,1.0688,1.0688,1.0688,1.0688,1.0688,1.0688,1.0688,1.0688,1.0688,1.0688,1.0688,1.0688,1.0688,1.0688,1.0688,1.0688,1.0688,1.0688,1.0688,1.0688,1.0688,1.0688,1.0688,1.0688,1.0688,1.0799,1.0843,1.0708,1.0688,1.0688,1.0688,1.0688,1.0688,1.0688,1.0688,1.0688,1.0688,1.0688,1.0688,1.0688,1.0688,1.0688,1.0688,1.0688,1.0688,1.0688,1.0688,1.0688,1.0688,1.0688,1.0688,1.0688,1.0688,1.0688,1.2841,1.3044,1.3075,1.224,1.2023,1.1783,1.0945,1.0726,1.0726,1.0726,1.0241,0.9809,0.9809,0.932,0.8912,0.8912,0.9008,0.9114,0.92,0.9335,0.9466,0.9595,0.9625,0.9663,0.9727,0.9785,0.9886,0.9977,1.0177,1.0334,1.0399,1.0544,1.0626,1.0626,1.0654,1.0688,1.0688,1.0688,1.0688,1.0688,1.0688,1.0735,1.0819,1.0819,1.0901,1.1077,1.1169,1.1196,1.1203,1.1295,1.1332,1.1304,1.1396,1.1372,1.1312,1.1128,1.1033,1.0975,1.0975,1.0975,1.0975,1.0975,1.0975,1.0975,1.0975,1.0975,1.0975,1.0975,1.0975,1.0975,1.0975,1.0975,1.0975,1.0975,1.0975,1.0975,1.0975,1.0975,1.0975,1.0975,1.0975,1.0975,1.0975,1.1033,1.105,1.0989,1.0975,1.0975,1.0975,1.0975,1.0975,1.0975,1.0975,1.0975,1.0975,1.0975,1.0975,1.0975,1.0975,1.0975,1.0975,1.0975,1.0975,1.0975,1.0975,1.0975,1.0975,1.0975,1.0975,1.0975,1.0975,1.0975,1.1646,1.1886,1.1837,1.0754,1.0484,1.0213,0.9154,0.8912,0.8912,0.8912,0.8912,0.8912,0.8912,0.8912,0.8923,0.8963,0.9114,0.9241,0.9294,0.9469,0.9625,0.9663,0.9727,0.9805,0.9849,0.9954,1.0004,1.0079,1.0348,1.051,1.0555,1.066,1.0688,1.0688,1.0688,1.0688,1.0688,1.0688,1.0688,1.0688,1.0688,1.0769,1.0884,1.0999,1.1128,1.1261,1.1305,1.1325,1.1332,1.1409,1.1453,1.1463,1.1575,1.1552,1.144,1.1366,1.1271,1.1196,1.1196,1.1196,1.1196,1.1196,1.1196,1.1196,1.1196,1.1196,1.1196,1.1196,1.1196,1.1196,1.1196,1.1196,1.1196,1.1196,1.1196,1.1196,1.1196,1.1196,1.1196,1.1196,1.1196,1.1196,1.1196,1.1234,1.1261,1.1261,1.1295,1.1291,1.1206,1.1196,1.1196,1.1196,1.1196,1.1196,1.1196,1.1196,1.1196,1.1196,1.1196,1.1196,1.1196,1.1196,1.1196,1.1196,1.1196,1.1196,1.1196,1.1196,1.1196,1.1196,1.1196,1.1196,0.9009,0.9016,0.902,0.8964,0.8964,0.8964,0.8912,0.8912,0.8912,0.8912,0.8912,0.8912,0.8912,0.8912,0.8956,0.9152,0.9207,0.9284,0.9554,0.9605,0.9659,0.9768,0.9788,0.9849,0.9967,0.9984,1.0079,1.0295,1.0409,1.0558,1.0707,1.0684,1.0688,1.0688,1.0688,1.0688,1.0688,1.0688,1.0688,1.0688,1.0688,1.0769,1.0924,1.1246,1.1382,1.1392,1.1541,1.1606,1.1606,1.1573,1.1577,1.1577,1.1616,1.1616,1.1577,1.1606,1.1416,1.1196,1.1196,1.1196,1.1196,1.1196,1.1196,1.1196,1.1196,1.1196,1.1196,1.1196,1.1196,1.1196,1.1196,1.1196,1.1196,1.1196,1.1196,1.1196,1.1196,1.1196,1.1196,1.1196,1.1196,1.1196,1.1196,1.1322,1.1385,1.1385,1.1511,1.1497,1.1237,1.1196,1.1196,1.1196,1.1196,1.1196,1.1196,1.1196,1.1196,1.1196,1.1196,1.1196,1.1196,1.1196,1.1196,1.1196,1.1196,1.1196,1.1196,1.1196,1.1196,1.1196,1.1196,1.1196,0.8912,0.8912,0.8912,0.8912,0.8912,0.8912,0.8912,0.8912,0.8912,0.8912,0.9015,0.9111,0.9111,0.9164,0.9249,0.9325,0.942,0.9493,0.9595,0.969,0.9737,0.9785,0.9792,0.9384,0.8367,0.944,1.0263,1.0409,1.0558,1.0666,1.0684,1.0688,1.0688,1.0688,1.0688,1.0688,1.0688,1.0688,1.0688,1.0688,1.0921,1.1094,1.125,1.145,1.1541,1.1545,1.1596,1.1584,1.1584,1.1584,1.1584,1.1584,1.1584,1.1584,1.1584,1.1584,1.1555,1.1467,1.1467,1.1467,1.1467,1.1467,1.1467,1.1467,1.1467,1.1467,1.1467,1.1467,1.1467,1.1467,1.1467,1.1467,1.1467,1.1467,1.1467,1.1467,1.1467,1.1467,1.1467,1.1467,1.1467,1.1467,1.1467,1.1508,1.1106,0.9801,1.0748,1.1582,1.148,1.1467,1.1467,1.1467,1.1467,1.1467,1.1467,1.1467,1.1467,1.1467,1.1467,1.1467,1.1467,1.1467,1.1467,1.1467,1.1467,1.1467,1.1467,1.1467,1.1467,1.1467,1.1467,1.1514,0.8912,0.8519,0.8125,0.8125,0.7706,0.7315,0.7315,0.7315,0.7315,0.7315,0.7435,0.7516,0.7516,0.7591,0.7659,0.7706,0.7781,0.7877,0.7922,0.7991,0.8041,0.8041,0.8041,0.7672,0.6661,0.7722,0.875,0.9464,1.0267,1.0688,1.0688,1.0688,1.0688,1.0688,1.0688,1.0688,1.0688,1.0688,1.0715,1.0772,1.1046,1.1278,1.1396,1.0824,1.056,1.0524,0.9834,0.9543,0.9543,0.9543,0.9942,1.056,1.056,1.0998,1.1584,1.1584,1.1584,1.1584,1.1584,1.1584,1.1584,1.1584,1.1584,1.1584,1.1584,1.1584,1.1584,1.1584,1.1584,1.1584,1.1584,1.1584,1.1584,1.1584,1.1584,1.1584,1.1584,1.1584,1.14,1.0704,1.056,1.0341,0.9654,0.9543,0.9108,0.7835,0.8742,0.9543,0.9543,0.9543,0.9543,0.9543,0.9543,0.9543,0.9543,0.9543,0.9543,0.9543,0.9543,0.9834,1.0521,1.056,1.0887,1.1584,1.1584,1.1253,1.056,1.057,1.0598,1.0634,1.0647,1.1085,0.8688,0.7651,0.6589,0.6589,0.553,0.4498,0.4498,0.4498,0.4498,0.4498,0.4501,0.4524,0.4524,0.4502,0.4577,0.4677,0.4719,0.4744,0.4875,0.4885,0.4885,0.4885,0.4885,0.4912,0.4962,0.504,0.5782,0.7413,0.9342,1.0419,1.0419,1.0419,1.0419,1.0419,1.0419,1.0419,1.0419,1.0419,1.0495,1.0619,1.0819,1.0965,1.105,0.9341,0.8559,0.8448,0.6604,0.581,0.581,0.581,0.6894,0.8559,0.8559,0.9684,1.1293,1.1293,1.1293,1.1293,1.1293,1.1436,1.1584,1.1584,1.1584,1.1584,1.1584,1.1584,1.1584,1.1584,1.1584,1.1584,1.1584,1.1584,1.1584,1.1584,1.1512,1.1436,1.1436,1.1364,1.0743,0.892,0.8559,0.7979,0.6136,0.5701,0.5663,0.5663,0.5556,0.5592,0.5774,0.581,0.581,0.581,0.581,0.581,0.581,0.581,0.581,0.581,0.581,0.664,0.8485,0.8631,0.9507,1.1266,1.141,1.0501,0.8538,0.857,0.8622,0.8737,0.8731,0.9837,0.5614,0.5335,0.5057,0.5057,0.4777,0.4498,0.4498,0.4498,0.4498,0.4498,0.4572,0.4661,0.4661,0.4738,0.4804,0.4853,0.4857,0.4863,0.4884,0.4885,0.4885,0.4885,0.4885,0.4447,0.3268,0.4335,0.4802,0.4062,0.5717,0.6767,0.6767,0.6767,0.6767,0.6767,0.6767,0.6767,0.6767,0.6767,0.6815,0.694,0.6996,0.7097,0.7223,0.6741,0.6532,0.6496,0.6027,0.581,0.581,0.581,0.6098,0.6532,0.6532,0.6859,0.7293,0.7293,0.7293,0.7293,0.7293,0.918,1.1584,1.1584,1.1584,1.1584,1.1584,1.1584,1.1584,1.1584,1.1584,1.1584,1.1584,1.1584,1.1584,1.1584,1.0488,0.943,0.943,0.8307,0.7149,0.6642,0.6532,0.6387,0.5881,0.4612,0.3633,0.3633,0.2401,0.251,0.5411,0.581,0.581,0.581,0.581,0.581,0.581,0.581,0.581,0.581,0.581,0.6027,0.6532,0.7943,0.8234,0.7288,0.8685,0.8499,0.6528,0.655,0.656,0.6597,0.6582,0.6927,0.4498,0.3995,0.3491,0.3491,0.299,0.2517,0.2517,0.2517,0.2517,0.2517,0.2584,0.2642,0.2642,0.2712,0.2739,0.2739,0.2739,0.2739,0.2739,0.2739,0.2739,0.2739,0.2739,0.2399,0.1477,0.2284,0.2474,0.1575,0.3925,0.5397,0.5397,0.5397,0.5397,0.5397,0.5397,0.5397,0.5397,0.5397,0.5454,0.5601,0.5601,0.568,0.576,0.4926,0.454,0.4467,0.0,0.3273,0.3273,0.3273,0.3744,0.454,0.454,0.5047,0.581,0.581,0.581,0.581,0.581,0.7223,0.9072,0.9072,0.9072,0.9072,0.9072,0.9072,0.9072,0.9072,0.9072,0.9072,0.9072,0.9072,0.9072,0.9072,0.8234,0.7436,0.7436,0.6568,0.5556,0.4685,0.3853,0.3273,0.3273,0.2365,0.1638,0.1638,0.0693,0.0802,0.2982,0.3273,0.3273,0.3273,0.3273,0.3273,0.3273,0.3253,0.3264,0.3264,0.3245,0.3623,0.4506,0.5574,0.6035,0.5818,0.6859,0.6472,0.4525,0.4512,0.4562,0.4601,0.4624,0.5151,0.3913,0.2935,0.1901,0.1901,0.0952,0.0,0.0,0.0,0.0,0.0,0.0,0.0,0.0,0.0,0.0,0.0,0.0,0.0,0.0,0.0,0.0,0.0,0.0,0.0,0.0,0.0,0.0,0.0,0.2919,0.4693,0.4693,0.4693,0.4693,0.4693,0.4693,0.4693,0.4693,0.4693,0.4725,0.4857,0.4854,0.4921,0.4988,0.3288,0.2509,0.2437,0.0729,0.0,0.0,0.0,0.0984,0.2509,0.2509,0.3561,0.5013,0.5013,0.5013,0.5013,0.5013,0.5013,0.5121,0.5627,0.581,0.581,0.581,0.581,0.581,0.581,0.581,0.581,0.581,0.581,0.581,0.581,0.5591,0.541,0.541,0.523,0.4541,0.2836,0.1166,0.0,0.0,0.0,0.0,0.0,0.0,0.0,0.0,0.0,0.0,0.0,0.0,0.0,0.0,0.0,0.0,0.0,0.0,0.0757,0.2456,0.2757,0.3588,0.4986,0.5288,0.4463,0.2505,0.2533,0.2585,0.2701,0.2689,0.3678,0.0784,0.0588,0.0392,0.0392,0.0196,0.0,0.0,0.0,0.0,0.0,0.0,0.0,0.0,0.0,0.0,0.0,0.0,0.0,0.0,0.0,0.0,0.0,0.0,0.0,0.0,0.0,0.0,0.0,0.0572,0.0941,0.0941,0.0941,0.0941,0.0941,0.0941,0.0941,0.0941,0.0941,0.0948,0.0961,0.0974,0.0988,0.1001,0.0652,0.051,0.0474,0.0146,0.0,0.0,0.0,0.0182,0.051,0.051,0.0693,0.102,0.102,0.102,0.102,0.102,0.102,0.153,0.4759,0.581,0.581,0.581,0.581,0.581,0.581,0.581,0.581,0.581,0.581,0.581,0.581,0.4576,0.3416,0.3416,0.2147,0.0911,0.0583,0.0219,0.0,0.0,0.0,0.0,0.0,0.0,0.0,0.0,0.0,0.0,0.0,0.0,0.0,0.0,0.0,0.0,0.0,0.0,0.0152,0.0492,0.2041,0.2315,0.1036,0.257,0.2428,0.0507,0.0508,0.0509,0.0548,0.0549,0.0746,0.0,0.0,0.0,0.0,0.0,0.0,0.0,0.0,0.0,0.0,0.0,0.0,0.0,0.0,0.0,0.0,0.0,0.0,0.0,0.0,0.0,0.0,0.0,0.0,0.0,0.0,0.0,0.0,0.0,0.0,0.0,0.0,0.0,0.0,0.0,0.0,0.0,0.0,0.0,0.0,0.0,0.0,0.0,0.0,0.0,0.0,0.0,0.0,0.0,0.0,0.0,0.0,0.0,0.0,0.0,0.0,0.0,0.0,0.0,0.0,0.0292,0.2184,0.2765,0.2765,0.2765,0.2765,0.2765,0.2765,0.2765,0.2765,0.2765,0.2765,0.2765,0.2765,0.2074,0.1384,0.1384,0.0656,0.0,0.0,0.0,0.0,0.0,0.0,0.0,0.0,0.0,0.0,0.0,0.0,0.0,0.0,0.0,0.0,0.0,0.0,0.0,0.0,0.0,0.0,0.0,0.0887,0.0966,0.0,0.0933,0.0936,0.0,0.0,0.0,0.0,0.0,0.0,0.0,0.0,0.0,0.0,0.0,0.0,0.0,0.0,0.0,0.0,0.0,0.0,0.0,0.0,0.0,0.0,0.0,0.0,0.0,0.0,0.0,0.0,0.0,0.0,0.0,0.0,0.0,0.0,0.0,0.0,0.0,0.0,0.0,0.0,0.0,0.0,0.0,0.0,0.0,0.0,0.0,0.0,0.0,0.0,0.0,0.0,0.0,0.0,0.0,0.0,0.0,0.0,0.0,0.0,0.0,0.0,0.0,0.0,0.0,0.0,0.0,0.0,0.0,0.0,0.0,0.0,0.0,0.0,0.0,0.0,0.0,0.0,0.0,0.0,0.0,0.0,0.0,0.0,0.0,0.0,0.0,0.0,0.0,0.0,0.0,0.0,0.0,0.0,0.0,0.0,0.0,0.0,0.0,0.0,0.0,0.0,0.0,0.0,0.0,0.0,0.0,0.0,0.0,0.0,0.0,0.0,0.0,0.0,0.0,0.0,0.0,0.0,0.0,0.0,0.0,0.0,0.0,0.0,0.0,0.0,0.0,0.0,0.0,0.0,0.0,0.0,0.0,0.0,0.0,0.0,0.0,0.0,0.0,0.0,0.0,0.0,0.0,0.0,0.0,0.0,0.0,0.0,0.0,0.0,0.0,0.0,0.0,0.0,0.0,0.0,0.0,0.0,0.0,0.0,0.0,0.0,0.0,0.0,0.0,0.0,0.0,0.0,0.0,0.0,0.0,0.0,0.0,0.0,0.0,0.0,0.0,0.0,0.0,0.0,0.0,0.0,0.0,0.0,0.0,0.0,0.0,0.0,0.0,0.0,0.0,0.0,0.0,0.0,0.0,0.0,0.0,0.0,0.0,0.0,0.0,0.0,0.0,0.0,0.0,0.0,0.0,0.0,0.0,0.0,0.0,0.0,0.0,0.0,0.0,0.0,0.0,0.0,0.0,0.0,0.0,0.0,0.0,0.0,0.0,0.0,0.0,0.0,0.0,0.0,0.0,0.0,0.0,0.0,0.0,0.0,0.0,0.0,0.0,0.0,0.0,0.0,0.0,0.0,0.0,0.0,0.0,0.0,0.0,0.0,0.0,0.0,0.0,0.0,0.0,0.0,0.0,0.0,0.0,0.0,0.0,0.0,0.0,0.0,0.0,0.0,0.0,0.0,0.0,0.0,0.0,0.0,0.0,0.0,0.0,0.0,0.0,0.0,0.0,0.0,0.0,0.0,0.0,0.0,0.0,0.0,0.0,0.0,0.0,0.0,0.0,0.0,0.0,0.0,0.0,0.0,0.0,0.0,0.0,0.0,0.0,0.0,0.0,0.0,0.0,0.0,0.0,0.0,0.0,0.0,0.0,0.0,0.0,0.0,0.0,0.0,0.0,0.0,0.0,0.0,0.0,0.0,0.0,0.0,0.0,0.0,0.0,0.0,0.0,0.0,0.0,0.0,0.0,0.0,0.0,0.0,0.0,0.0,0.0,0.0,0.0,0.0,0.0,0.0,0.0,0.0,0.0,0.0,0.0,0.0,0.0,0.0,0.0,0.0,0.0,0.0,0.0,0.0,0.0,0.0,0.0,0.0,0.0,0.0,0.0,0.0,0.0,0.0,0.0,0.0,0.0,0.0,0.0,0.0,0.0,0.0,0.0,0.0,0.0,0.0,0.0,0.0,0.0,0.0,0.0,0.0,0.0,0.0,0.0,0.0,0.0,0.0,0.0,0.0,0.0,0.0,0.0,0.0,0.0,0.0,0.0,0.0,0.0,0.0,0.0,0.0,0.0,0.0,0.0,0.0,0.0,0.0,0.0,0.0,0.0,0.0,0.0,0.0,0.0,0.0,0.0,0.0,0.0,0.0,0.0,0.0,0.0,0.0,0.0,0.0,0.0,0.0,0.0,0.0,0.0,0.0,0.0,0.0,0.0,0.0,0.0,0.0,0.0,0.0,0.0,0.0,0.0,0.0,0.0,0.0,0.0,0.0,0.0,0.0,0.0,0.0,0.0,0.0,0.0,0.0,0.0,0.0,0.0,0.0,0.0,0.0,0.0,0.0,0.0,0.0,0.0,0.0,0.0,0.0,0.0,0.0,0.0,0.0,0.0,0.0,0.0,0.0,0.0,0.0,0.0,0.0,0.0,0.0,0.0,0.0,0.0,0.0,0.0,0.0,0.0,0.0,0.0,0.0,0.0,0.0,0.0,0.0,0.0,0.0,0.0,0.0,0.0,0.0,0.0,0.0,0.0,0.0,0.0,0.0,0.0,0.0,0.0,0.0,0.0,0.0,0.0,0.0,0.0,0.0,0.0,0.0,0.0,0.0,0.0,0.0,0.0,0.0,0.0,0.0,0.0,0.0,0.0,0.0,0.0,0.0,0.0,0.0,0.0,0.0,0.0,0.0,0.0,0.0,0.0,0.0,0.0,0.0,0.0,0.0,0.0,0.0,0.0,0.0,0.0,0.0,0.0,0.0,0.0,0.0,0.0,0.0,0.0,0.0,-0.0252,-0.1259,-0.151,-0.179,-0.2824,-0.2265,-0.151,-0.151,-0.069,0.0,0.0,0.0,0.0,0.0,0.0,0.0,0.0,0.0,0.0,0.0,0.0,0.0,0.0,0.0,0.0,0.0,0.0,0.0,0.0,0.0,0.0,0.0,0.0,0.0,0.0,0.0,0.0,0.0,0.0,0.0,0.0,0.0,0.0,0.0,0.0,0.0,0.0,0.0,0.0,0.0,0.0,0.0,0.0,0.0,0.0,0.0,0.0,0.0,0.0,0.0,0.0,0.0,0.0,0.0,0.0,0.0,0.0,0.0,0.0,0.0,0.0,0.0,0.0,0.0,0.0,0.0,0.0,0.0,0.0,0.0,0.0,0.0,0.0,0.0,0.0,0.0,0.0,0.0,0.0,0.0,0.0,0.0,0.0,0.0,0.0,0.0,0.0,0.0,0.0,0.0,0.0,0.0,0.0,0.0,0.0,0.0,0.0,0.0,0.0,0.0,0.0,0.0,-0.0364,-0.1845,-0.2208,-0.2598,-0.4136,-0.3296,-0.2375,-0.2961,-0.1886,-0.0818,-0.0823,-0.1351,-0.1377,-0.0185,-0.1048,-0.1417,-0.0185,-0.0555,-0.0709,-0.0062,0.0,0.0,0.0,0.0,0.0,0.0,0.0,0.0,0.0,0.0,0.0,0.0,0.0,0.0,0.0,0.0,0.0,0.0,0.0,0.0,0.0,0.0,0.0,0.0,0.0,0.0,0.0,0.0,0.0,0.0,0.0,0.0,0.0,0.0,0.0,0.0,0.0,0.0,0.0,0.0,0.0,0.0,0.0,0.0,0.0,0.0,0.0,0.0,0.0,0.0,0.0,0.0,0.0,0.0,0.0,0.0,0.0,0.0,0.0,0.0,0.0,0.0,0.0,0.0,0.0,0.0,0.0,0.0,0.0,0.0,0.0,0.0,0.0,0.0,0.0,0.0,0.0,0.0,0.0,0.0,0.0,0.0,0.0,0.0,0.0,0.0,0.0,0.0,0.0,0.0,0.0,0.0,-0.0392,-0.1957,-0.2375,-0.2766,-0.4303,-0.3547,0.0,-0.4219,-0.337,-0.2361,-0.2371,-0.3656,-0.3743,-0.083,-0.2922,-0.3844,-0.0771,-0.1602,-0.191,-0.037,-0.0062,0.0,0.0,0.0,0.0,0.0,0.0,0.0,0.0,0.0,0.0,0.0,0.0,0.0,0.0,0.0,0.0,0.0,0.0,0.0,0.0,0.0,0.0,0.0,0.0,0.0,0.0,0.0,0.0,0.0,0.0,0.0,0.0,0.0,0.0,0.0,0.0,0.0,0.0,0.0,0.0,0.0,0.0,0.0,0.0,0.0,0.0,0.0,0.0,0.0,0.0,0.0,0.0,0.0,0.0,0.0,0.0,0.0,0.0,0.0,0.0,0.0,0.0,0.0,0.0,0.0,0.0,0.0,0.0,0.0,0.0,0.0,0.0,0.0,0.0,0.0,0.0,0.0,0.0,0.0,0.0,0.0,0.0,0.0,0.0,0.0,0.0,0.0,0.0,0.0,0.0,0.0,-0.0644,-0.3297,-0.3967,-0.4357,0.0,-0.5892,-0.5417,-0.4665,-0.4216,-0.3996,-0.4093,-0.4425,-0.4496,-0.3864,-0.4395,-0.464,-0.3844,-0.3016,-0.234,-0.1971,-0.0771,0.0,0.0,0.0,0.0,0.0,0.0,0.0,0.0,0.0,0.0,0.0,0.0,0.0,0.0,0.0,0.0,0.0,0.0,0.0,0.0,0.0,0.0,0.0,0.0,0.0,0.0,0.0,0.0,0.0,0.0,0.0,0.0,0.0,0.0,0.0,0.0,0.0,0.0,0.0,0.0,0.0,0.0,0.0,0.0,0.0,0.0,0.0,0.0,0.0,0.0,0.0,0.0,0.0,0.0,0.0,0.0,0.0,0.0,0.0,0.0,0.0,0.0,0.0,0.0,0.0,0.0,0.0,0.0,0.0,0.0,0.0,0.0,0.0,0.0,0.0,0.0,0.0,0.0,0.0,0.0,0.0,0.0,0.0,0.0,0.0,0.0,0.0,0.0,0.0,-0.0196,0.0,-0.0728,-0.3745,-0.4498,-0.4888,-0.6366,-0.6172,-0.5669,-0.553,-0.4978,-0.4759,-0.5571,-0.6343,-0.643,-0.5113,-0.6171,-0.6874,-0.6139,-0.4639,-0.3598,-0.3598,-0.28,-0.1947,-0.1216,-0.1145,-0.0841,-0.0065,0.0,0.0,0.0,0.0,0.0,0.0,0.0,0.0,0.0,0.0,0.0,0.0,0.0,0.0,0.0,0.0,0.0,0.0,0.0,0.0,0.0,0.0,0.0,0.0,0.0,0.0,0.0,0.0,0.0,0.0,0.0,0.0,0.0,0.0,0.0,0.0,0.0,0.0,0.0,0.0,0.0,0.0,0.0,0.0,0.0,0.0,0.0,0.0,0.0,0.0,0.0,0.0,0.0,0.0,0.0,0.0,0.0,0.0,0.0,0.0,0.0,0.0,0.0,0.0,0.0,0.0,0.0,0.0,0.0,0.0,0.0,0.0,0.0,0.0,0.0,0.0,0.0,0.0,0.0,0.0,0.0,0.0,0.0,0.0,-0.0616,-0.0336,-0.1008,-0.3801,-0.4498,-0.4888,-0.6366,-0.5725,-0.5196,-0.645,-0.5892,-0.5613,-0.7017,-0.8439,-0.8586,-0.605,-0.798,-0.9329,-0.7972,-0.6322,-0.5284,-0.5284,-0.5069,-0.4364,-0.2985,-0.265,-0.1926,-0.0484,-0.0132,0.0,0.0,0.0,0.0,0.0,0.0,0.0,0.0,0.0,0.0,0.0,0.0,0.0,0.0,0.0,0.0,0.0,0.0,0.0,0.0,0.0,0.0,0.0,0.0,0.0,0.0,0.0,0.0,0.0,0.0,0.0,0.0,0.0,0.0,0.0,0.0,0.0,0.0,0.0,0.0,0.0,0.0,0.0,0.0,0.0,0.0,0.0,0.0,0.0,0.0,0.0,0.0,0.0,0.0,0.0,0.0,0.0,0.0,0.0,0.0,0.0,0.0,0.0,0.0,0.0,0.0,0.0,0.0,0.0,0.0,0.0,0.0,0.0,0.0,0.0,0.0,0.0,0.0,0.0,0.0,0.0,0.0,0.0,-0.1594,-0.1873,-0.2292,-0.4052,-0.4498,-0.4888,-0.6366,-0.6533,-0.6422,-0.6644,-0.7512,-0.8379,-0.8916,-0.9233,-0.9329,-0.9099,-0.9481,-0.9727,-0.9451,-0.8036,-0.7024,-0.7024,-0.5772,-0.4794,-0.4548,-0.3312,-0.2381,-0.2121,-0.0818,0.0,0.0,0.0,0.0,0.0,0.0,0.0,0.0,0.0,0.0,0.0,0.0,0.0,0.0,0.0,0.0,0.0,0.0,0.0,0.0,0.0,0.0,0.0,0.0,0.0,0.0,0.0,0.0,0.0,0.0,0.0,0.0,0.0,0.0,0.0,0.0,0.0,0.0,0.0,0.0,0.0,0.0,0.0,0.0,0.0,0.0,0.0,0.0,0.0,0.0,0.0,0.0,0.0,0.0,0.0,0.0,0.0,0.0,0.0,0.0,0.0,0.0,0.0,0.0,0.0,0.0,0.0,0.0,0.0,0.0,0.0,0.0,0.0,0.0,0.0,0.0,0.0,0.0,0.0,0.0,0.0,0.0,0.0,-0.3269,-0.4606,-0.5804,-0.5725,-0.5697,-0.5864,-0.6533,-0.6702,-0.6702,-0.6702,-0.7232,-0.8068,-0.9179,-0.941,-0.9479,-0.9744,-0.9792,-0.9792,-0.9792,-0.9174,-0.8711,-0.8711,-0.8008,-0.7212,-0.6322,-0.557,-0.4425,-0.2633,-0.1793,-0.096,-0.0034,0.0,0.0,0.0,0.0,0.0,0.0,0.0,0.0,0.0,0.0,0.0,0.0,0.0,0.0,0.0,0.0,0.0,0.0,0.0,0.0,0.0,0.0,0.0,0.0,0.0,0.0,0.0,0.0,0.0,0.0,0.0,0.0,0.0,0.0,0.0,0.0,0.0,0.0,0.0,0.0,0.0,0.0,0.0,0.0,0.0,0.0,0.0,0.0,0.0,0.0,0.0,0.0,0.0,0.0,0.0,0.0,0.0,0.0,0.0,0.0,0.0,0.0,0.0,0.0,0.0,0.0,0.0,0.0,0.0,0.0,0.0,0.0,0.0,0.0,0.0,0.0,0.0,0.0,0.0,0.0,0.0,-0.4916,-0.6672,-0.8211,-0.7401,-0.6952,-0.6785,-0.7149,-0.6952,-0.6785,-0.7149,-0.7204,-0.767,-0.9121,-0.9439,-0.9557,-0.9754,-0.9792,-0.9792,-0.9792,-0.9792,-0.9792,-0.9792,-0.9792,-0.9326,-0.8097,-0.7624,-0.6384,-0.3881,-0.2954,-0.1945,-0.0706,-0.0235,0.0,0.0,0.0,0.0,0.0,0.0,0.0,0.0,0.0,0.0,0.0,0.0,0.0,0.0,0.0,0.0,0.0,0.0,0.0,0.0,0.0,0.0,0.0,0.0,0.0,0.0,0.0,0.0,0.0,0.0,0.0,0.0,0.0,0.0,0.0,0.0,0.0,0.0,0.0,0.0,0.0,0.0,0.0,0.0,0.0,0.0,0.0,0.0,0.0,0.0,0.0,0.0,0.0,0.0,0.0,0.0,0.0,0.0,0.0,0.0,0.0,0.0,0.0,0.0,0.0,0.0,0.0,0.0,0.0,0.0,0.0,0.0,0.0,0.0,0.0,0.0,0.0,0.0,0.0,0.0,-0.6172,-0.6702,-0.7149,-0.8432,-0.7706,-0.7066,-0.8432,-0.7679,-0.7091,-0.8463,-0.8743,-0.8889,-0.9327,-0.9605,-0.9765,-0.9788,-0.9792,-0.9792,-0.9792,-0.9792,-0.9792,-0.9792,-0.9792,-0.9758,-0.9636,-0.8288,-0.7338,-0.7235,-0.4307,-0.251,-0.2514,-0.0908,0.0,0.0,0.0,0.0,0.0,0.0,0.0,0.0,0.0,0.0,0.0,0.0,0.0,0.0,0.0,0.0,0.0,0.0,0.0,0.0,0.0,0.0,0.0,0.0,0.0,0.0,0.0,0.0,0.0,0.0,0.0,0.0,0.0,0.0,0.0,0.0,0.0,0.0,0.0,0.0,0.0,0.0,0.0,0.0,0.0,0.0,0.0,0.0,0.0,0.0,0.0,0.0,0.0,0.0,0.0,0.0,0.0,0.0,0.0,0.0,0.0,0.0,0.0,0.0,0.0,0.0,0.0,0.0,0.0,0.0,0.0,0.0,0.0,0.0,0.0,0.0,0.0,0.0,0.0,0.0,-0.7679,-0.8072,-0.8211,-0.8771,-0.8491,-0.8211,-0.8771,-0.8463,-0.8239,-0.8799,-0.9011,-0.9164,-0.9466,-0.9686,-0.9792,-0.9792,-0.9792,-0.9792,-0.9792,-0.9792,-0.9792,-0.9792,-0.9792,-0.9792,-0.9792,-0.9235,-0.851,-0.755,-0.6351,-0.5245,-0.423,-0.2606,-0.168,-0.168,-0.0572,0.0,0.0,0.0,0.0,0.0,0.0,0.0,0.0,0.0,0.0,0.0,0.0,0.0,0.0,0.0,0.0,0.0,0.0,0.0,0.0,0.0,0.0,0.0,0.0,0.0,0.0,0.0,0.0,0.0,0.0,0.0,0.0,0.0,0.0,0.0,0.0,0.0,0.0,0.0,0.0,0.0,0.0,0.0,0.0,0.0,0.0,0.0,0.0,0.0,0.0,0.0,0.0,0.0,0.0,0.0,0.0,0.0,0.0,0.0,0.0,0.0,0.0,0.0,0.0,0.0,0.0,0.0,0.0,0.0,0.0,0.0,0.0,0.0,0.0,0.0,0.0,0.0,-0.8629,-0.8912,-0.8912,-0.8912,-0.8912,-0.8912,-0.8912,-0.8912,-0.8912,-0.8912,-0.9093,-0.9332,-0.9561,-0.9697,-0.9792,-0.9792,-0.9792,-0.9792,-0.9792,-0.9792,-0.9792,-0.9792,-0.9792,-0.9792,-0.9792,-0.9792,-0.9356,-0.8304,-0.7828,-0.7105,-0.5998,-0.4425,-0.3288,-0.2719,-0.1512,-0.0572,0.0,0.0,0.0,0.0,0.0,0.0,0.0,0.0,0.0,0.0,0.0,0.0,0.0,0.0,0.0,0.0,0.0,0.0,0.0,0.0,0.0,0.0,0.0,0.0,0.0,0.0,0.0,0.0,0.0,0.0,0.0,0.0,0.0,0.0,0.0,0.0,0.0,0.0,0.0,0.0,0.0,0.0,0.0,0.0,0.0,0.0,0.0,0.0,0.0,0.0,0.0,0.0,0.0,0.0,0.0,0.0,0.0,0.0,0.0,0.0,0.0,0.0,0.0,0.0,0.0,0.0,0.0,0.0,0.0,0.0,0.0,0.0,0.0,0.0,0.0,0.0,-0.8912,-0.8912,-0.8912,-0.8912,-0.8912,-0.8912,-0.8912,-0.8912,-0.8912,-0.8916,-0.9178,-0.9432,-0.9585,-0.9697,-0.9792,-0.9792,-0.9792,-0.9792,-0.9792,-0.9792,-0.9792,-0.9792,-0.9792,-0.9792,-0.9792,-0.9792,-0.9852,-0.9974,-0.8529,-0.7686,-0.7832,-0.6285,-0.4593,-0.2786,-0.2719,-0.1847,-0.0034,0.0,0.0,0.0,0.0,0.0,0.0,0.0,0.0,0.0,0.0,0.0,0.0,0.0,0.0,0.0,0.0,0.0,0.0,0.0,0.0,0.0,0.0,0.0,0.0,0.0,0.0,0.0,0.0,0.0,0.0,0.0,0.0,0.0,0.0,0.0,0.0,0.0,0.0,0.0,0.0,0.0,0.0,0.0,0.0,0.0,0.0,0.0,0.0,0.0,0.0,0.0,0.0,0.0,0.0,0.0,0.0,0.0,0.0,0.0,0.0,0.0,0.0,0.0,0.0,0.0,0.0,0.0,0.0,0.0,0.0,0.0,0.0,0.0,0.0,0.0,-0.8912,-0.8912,-0.8912,-0.8912,-0.8912,-0.8912,-0.8912,-0.8912,-0.897,-0.9208,-0.9405,-0.9588,-0.973,-0.9761,-0.9792,-0.9792,-0.9792,-0.9792,-0.9792,-0.9792,-0.9792,-0.9792,-0.9792,-0.9792,-0.9792,-0.9792,-0.9808,-0.9856,-0.9622,-0.9522,-0.9566,-0.8065,-0.6429,-0.466,-0.3355,-0.1847,-0.0034,0.0,0.0,0.0,0.0,0.0,0.0,0.0,0.0,0.0,0.0,0.0,0.0,0.0,0.0,0.0,0.0,0.0,0.0,0.0,0.0,0.0,0.0,0.0,0.0,0.0,0.0,0.0,0.0,0.0,0.0,0.0,0.0,0.0,0.0,0.0,0.0,0.0,0.0,0.0,0.0,0.0,0.0,0.0,0.0,0.0,0.0,0.0,0.0,0.0,0.0,0.0,0.0,0.0,0.0,0.0,0.0,0.0,0.0,0.0,0.0,0.0,0.0,0.0,0.0,0.0,0.0,0.0,0.0,0.0,0.0,0.0,0.0,0.0,0.0,0.0,-0.8912,-0.8912,-0.8912,-0.8912,-0.8912,-0.8926,-0.9011,-0.9025,-0.9093,-0.9359,-0.9503,-0.9652,-0.9765,-0.9792,-0.9792,-0.9792,-0.9792,-0.9792,-0.9792,-0.9792,-0.9792,-0.9792,-0.9792,-0.9792,-0.9792,-0.9792,-0.9792,-0.9792,-1.0049,-1.0215,-1.0308,-0.948,-0.8219,-0.6496,-0.4693,-0.2919,-0.1075,-0.037,0.0,0.0,0.0,0.0,0.0,0.0,0.0,0.0,0.0,0.0,0.0,0.0,0.0,0.0,0.0,0.0,0.0,0.0,0.0,0.0,0.0,0.0,0.0,0.0,0.0,0.0,0.0,0.0,0.0,0.0,0.0,0.0,0.0,0.0,0.0,0.0,0.0,0.0,0.0,0.0,0.0,0.0,0.0,0.0,0.0,0.0,0.0,0.0,0.0,0.0,0.0,0.0,0.0,0.0,0.0,0.0,0.0,0.0,0.0,0.0,0.0,0.0,0.0,0.0,0.0,0.0,0.0,0.0,0.0,0.0,0.0,0.0,0.0,0.0,-0.8912,-0.8912,-0.8912,-0.8912,-0.8923,-0.8963,-0.9152,-0.9231,-0.9264,-0.9403,-0.9523,-0.9666,-0.9768,-0.9792,-0.9792,-0.9792,-0.9792,-0.9792,-0.9792,-0.9792,-0.9792,-0.9792,-0.9792,-0.9792,-0.9792,-0.9792,-0.9792,-0.9792,-0.9934,-1.0086,-1.0305,-1.0415,-0.9731,-0.8061,-0.6464,-0.4693,-0.2719,-0.1075,-0.0168,0.0,0.0,0.0,0.0,0.0,0.0,0.0,0.0,0.0,0.0,0.0,0.0,0.0,0.0,0.0,0.0,0.0,0.0,0.0,0.0,0.0,0.0,0.0,0.0,0.0,0.0,0.0,0.0,0.0,0.0,0.0,0.0,0.0,0.0,0.0,0.0,0.0,0.0,0.0,0.0,0.0,0.0,0.0,0.0,0.0,0.0,0.0,0.0,0.0,0.0,0.0,0.0,0.0,0.0,0.0,0.0,0.0,0.0,0.0,0.0,0.0,0.0,0.0,0.0,0.0,0.0,0.0,0.0,0.0,0.0,0.0,0.0,0.0,-0.8912,-0.8912,-0.8912,-0.8912,-0.9022,-0.9145,-0.9204,-0.9369,-0.952,-0.9554,-0.9676,-0.9754,-0.9785,-0.9792,-0.9792,-0.9792,-0.9792,-0.9792,-0.9792,-0.9792,-0.9792,-0.9792,-0.9792,-0.9792,-0.9792,-0.9792,-0.9792,-0.9792,-0.9934,-1.0086,-1.0305,-1.0415,-0.9731,-0.8061,-0.7631,-0.5926,-0.2719,-0.2317,-0.1411,0.0,0.0,0.0,0.0,0.0,0.0,0.0,0.0,0.0,0.0,0.0,0.0,0.0,0.0,0.0,0.0,0.0,0.0,0.0,0.0,0.0,0.0,0.0,0.0,0.0,0.0,0.0,0.0,0.0,0.0,0.0,0.0,0.0,0.0,0.0,0.0,0.0,0.0,0.0,0.0,0.0,0.0,0.0,0.0,0.0,0.0,0.0,0.0,0.0,0.0,0.0,0.0,0.0,0.0,0.0,0.0,0.0,0.0,0.0,0.0,0.0,0.0,0.0,0.0,0.0,0.0,0.0,0.0,0.0,0.0,0.0,0.0,0.0,-0.8912,-0.8912,-0.8926,-0.9025,-0.9124,-0.922,-0.9366,-0.9496,-0.9629,-0.9696,-0.9741,-0.9792,-0.9792,-0.9792,-0.9792,-0.9792,-0.9792,-0.9792,-0.9792,-0.9792,-0.9792,-0.9792,-0.9792,-0.9792,-0.9792,-0.9792,-0.9792,-0.9792,-0.9863,-0.9978,-1.0161,-1.031,-1.0029,-0.924,-0.8403,-0.7093,-0.5258,-0.4426,-0.3087,-0.1277,-0.1277,-0.084,0.0,0.0,0.0,0.0,0.0,0.0,0.0,0.0,0.0,0.0,0.0,0.0,0.0,0.0,0.0,0.0,0.0,0.0,0.0,0.0,0.0,0.0,0.0,0.0,0.0,0.0,0.0,0.0,0.0,0.0,0.0,0.0,0.0,0.0,0.0,0.0,0.0,0.0,0.0,0.0,0.0,0.0,0.0,0.0,0.0,0.0,0.0,0.0,0.0,0.0,0.0,0.0,0.0,0.0,0.0,0.0,0.0,0.0,0.0,0.0,0.0,0.0,0.0,0.0,0.0,0.0,0.0,0.0,0.0,0.0,-0.8912,-0.8929,-0.9005,-0.9152,-0.9223,-0.9328,-0.9551,-0.9629,-0.968,-0.9765,-0.9792,-0.9792,-0.9792,-0.9792,-0.9792,-0.9792,-0.9792,-0.9792,-0.9792,-0.9792,-0.9792,-0.9792,-0.9792,-0.9792,-0.9792,-0.9792,-0.9792,-0.9792,-0.9792,-0.9856,-0.9977,-1.0198,-1.0344,-1.0487,-0.9171,-0.8332,-0.7997,-0.6564,-0.4961,-0.3154,-0.2853,-0.1747,0.0,0.0,0.0,0.0,0.0,0.0,0.0,0.0,0.0,0.0,0.0,0.0,0.0,0.0,0.0,0.0,0.0,0.0,0.0,0.0,0.0,0.0,0.0,0.0,0.0,0.0,0.0,0.0,0.0,0.0,0.0,0.0,0.0,0.0,0.0,0.0,0.0,0.0,0.0,0.0,0.0,0.0,0.0,0.0,0.0,0.0,0.0,0.0,0.0,0.0,0.0,0.0,0.0,0.0,0.0,0.0,0.0,0.0,0.0,0.0,0.0,0.0,0.0,0.0,0.0,0.0,0.0,0.0,0.0,0.0,-0.8912,-0.9028,-0.9158,-0.9204,-0.9383,-0.9557,-0.9602,-0.9703,-0.9768,-0.9788,-0.9792,-0.9792,-0.9792,-0.9792,-0.9792,-0.9792,-0.9792,-0.9792,-0.9792,-0.9792,-0.9792,-0.9792,-0.9792,-0.9792,-0.9792,-0.9792,-0.9792,-0.9792,-0.9792,-0.9856,-0.9977,-1.0198,-1.0344,-1.0487,-1.0406,-0.9573,-0.803,-0.7764,-0.6765,-0.5029,-0.3456,-0.1747,0.0,0.0,0.0,0.0,0.0,0.0,0.0,0.0,0.0,0.0,0.0,0.0,0.0,0.0,0.0,0.0,0.0,0.0,0.0,0.0,0.0,0.0,0.0,0.0,0.0,0.0,0.0,0.0,0.0,0.0,0.0,0.0,0.0,0.0,0.0,0.0,0.0,0.0,0.0,0.0,0.0,0.0,0.0,0.0,0.0,0.0,0.0,0.0,0.0,0.0,0.0,0.0,0.0,0.0,0.0,0.0,0.0,0.0,0.0,0.0,0.0,0.0,0.0,0.0,0.0,0.0,0.0,0.0,0.0,0.0,-0.9035,-0.9131,-0.9251,-0.9393,-0.951,-0.9632,-0.971,-0.9748,-0.9792,-0.9792,-0.9792,-0.9792,-0.9792,-0.9792,-0.9792,-0.9792,-0.9792,-0.9792,-0.9792,-0.9792,-0.9792,-0.9792,-0.9792,-0.9792,-0.9792,-0.9792,-0.9792,-0.9792,-0.9792,-0.9819,-0.9886,-1.0035,-1.0219,-1.0368,-1.0517,-1.0231,-0.9507,-0.9507,-0.8135,-0.5364,-0.3556,-0.1747,0.0,0.0,0.0,0.0,0.0,0.0,0.0,0.0,0.0,0.0,0.0,0.0,0.0,0.0,0.0,0.0,0.0,0.0,0.0,0.0,0.0,0.0,0.0,0.0,0.0,0.0,0.0,0.0,0.0,0.0,0.0,0.0,0.0,0.0,0.0,0.0,0.0,0.0,0.0,0.0,0.0,0.0,0.0,0.0,0.0,0.0,0.0,0.0,0.0,0.0,0.0,0.0,0.0,0.0,0.0,0.0,0.0,0.0,0.0,0.0,0.0,0.0,0.0,0.0,0.0,0.0,0.0,0.0,0.0,0.0,-0.9152,-0.9237,-0.9352,-0.9554,-0.9635,-0.969,-0.9765,-0.9792,-0.9792,-0.9792,-0.9792,-0.9792,-0.9792,-0.9792,-0.9792,-0.9792,-0.9792,-0.9792,-0.9792,-0.9792,-0.9792,-0.9792,-0.9792,-0.9792,-0.9792,-0.9792,-0.9792,-0.9792,-0.9792,-0.9792,-0.9792,-0.9937,-1.0089,-1.0276,-1.0419,-1.0565,-1.0684,-1.0688,-0.9141,-0.603,-0.4692,-0.2852,-0.0673,-0.0673,-0.0437,0.0,0.0,0.0,0.0,0.0,0.0,0.0,0.0,0.0,0.0,0.0,0.0,0.0,0.0,0.0,0.0,0.0,0.0,0.0,0.0,0.0,0.0,0.0,0.0,0.0,0.0,0.0,0.0,0.0,0.0,0.0,0.0,0.0,0.0,0.0,0.0,0.0,0.0,0.0,0.0,0.0,0.0,0.0,0.0,0.0,0.0,0.0,0.0,0.0,0.0,0.0,0.0,0.0,0.0,0.0,0.0,0.0,0.0,0.0,0.0,0.0,0.0,0.0,0.0,0.0,0.0,0.0,-0.9207,-0.9393,-0.9591,-0.9605,-0.971,-0.9781,-0.9788,-0.9792,-0.9792,-0.9792,-0.9792,-0.9792,-0.9792,-0.9792,-0.9792,-0.9792,-0.9792,-0.9792,-0.9792,-0.9792,-0.9792,-0.9792,-0.9792,-0.9792,-0.9792,-0.9792,-0.9792,-0.9792,-0.9792,-0.9792,-0.9792,-0.9937,-1.0089,-1.0276,-1.0419,-1.0565,-1.0684,-1.0688,-0.9742,-0.7864,-0.7762,-0.5926,-0.2551,-0.2551,-0.1613,0.0,0.0,0.0,0.0,0.0,0.0,0.0,0.0,0.0,0.0,0.0,0.0,0.0,0.0,0.0,0.0,0.0,0.0,0.0,0.0,0.0,0.0,0.0,0.0,0.0,0.0,0.0,0.0,0.0,0.0,0.0,0.0,0.0,0.0,0.0,0.0,0.0,0.0,0.0,0.0,0.0,0.0,0.0,0.0,0.0,0.0,0.0,0.0,0.0,0.0,0.0,0.0,0.0,0.0,0.0,0.0,0.0,0.0,0.0,0.0,0.0,0.0,0.0,0.0,0.0,0.0,0.0,-0.942,-0.9527,-0.9632,-0.9694,-0.9754,-0.9792,-0.9792,-0.9792,-0.9792,-0.9792,-0.9792,-0.9792,-0.9792,-0.9792,-0.9792,-0.9792,-0.9792,-0.9792,-0.9792,-0.9792,-0.9792,-0.9792,-0.9792,-0.9792,-0.9792,-0.9792,-0.9792,-0.9792,-0.9792,-0.9792,-0.9792,-0.9842,-0.9988,-1.0305,-1.0363,-1.0473,-1.0684,-1.0688,-0.9779,-0.7997,-0.7997,-0.6127,-0.2685,-0.2685,-0.1713,0.0,0.0,0.0,0.0,0.0,0.0,0.0,0.0,0.0,0.0,0.0,0.0,0.0,0.0,0.0,0.0,0.0,0.0,0.0,0.0,0.0,0.0,0.0,0.0,0.0,0.0,0.0,0.0,0.0,0.0,0.0,0.0,0.0,0.0,0.0,0.0,0.0,0.0,0.0,0.0,0.0,0.0,0.0,0.0,0.0,0.0,0.0,0.0,0.0,0.0,0.0,0.0,0.0,0.0,0.0,0.0,0.0,0.0,0.0,0.0,0.0,0.0,0.0,0.0,0.0,0.0,0.0,-0.9554,-0.9646,-0.9703,-0.9768,-0.9792,-0.9792,-0.9792,-0.9792,-0.9792,-0.9792,-0.9792,-0.9792,-0.9792,-0.9792,-0.9792,-0.9792,-0.9792,-0.9792,-0.9792,-0.9792,-0.9792,-0.9792,-0.9792,-0.9792,-0.9792,-0.9792,-0.9792,-0.9792,-0.9792,-0.9792,-0.9792,-0.9792,-0.9961,-1.0301,-1.0378,-1.0521,-1.0684,-1.0688,-1.0114,-0.8903,-0.8903,-0.7031,-0.3623,-0.3623,-0.2283,0.0,0.0,0.0,0.0,0.0,0.0,0.0,0.0,0.0,0.0,0.0,0.0,0.0,0.0,0.0,0.0,0.0,0.0,0.0,0.0,0.0,0.0,0.0,0.0,0.0,0.0,0.0,0.0,0.0,0.0,0.0,0.0,0.0,0.0,0.0,0.0,0.0,0.0,0.0,0.0,0.0,0.0,0.0,0.0,0.0,0.0,0.0,0.0,0.0,0.0,0.0,0.0,0.0,0.0,0.0,0.0,0.0,0.0,0.0,0.0,0.0,0.0,0.0,0.0,0.0,0.0,0.0,0.0,0.0,0.0,-0.9792,-0.9792,-0.9792,-0.9792,-0.9792,-0.9792,-0.9792,-0.9792,-0.9792,-0.9792,-0.9792,-0.9792,-0.9792,-0.9792,-0.9792,-0.9792,-0.9792,-0.9792,-0.9792,-0.9792,-0.9792,-0.9792,-0.9792,-0.9792,-0.9792,-0.9792,-0.9792,-0.9792,-0.9798,-0.9971,-1.0308,-1.0568,-1.0688,-1.0688,-1.0688,-1.0688,-1.0688,-1.0688,-0.8873,-0.5464,-0.5431,-0.3456,-0.0067,-0.0034,0.0,0.0,0.0,0.0,0.0,0.0,0.0,0.0,0.0,0.0,0.0,0.0,0.0,0.0,0.0,0.0,0.0,0.0,0.0,0.0,0.0,0.0,0.0,0.0,0.0,0.0,0.0,0.0,0.0,0.0,0.0,0.0,0.0,0.0,0.0,0.0,0.0,0.0,0.0,0.0,0.0,0.0,0.0,0.0,0.0,0.0,0.0,0.0,0.0,0.0,0.0,0.0,0.0,0.0,0.0,0.0,0.0,0.0,0.0,0.0,0.0,0.0,0.0,0.0,0.0,-0.9704,0.0,0.0,0.0,0.0,0.0,-0.9792,-0.9792,-0.9792,-0.9792,-0.9792,-0.9792,-0.9792,-0.9792,-0.9792,-0.9792,-0.9792,-0.9792,-0.9792,-0.9792,-0.9792,-0.9792,-0.9792,-0.9792,-0.9792,-0.9792,-0.9792,-0.9792,-0.9792,-0.9792,-0.9792,-1.0032,-1.0239,-1.0426,-1.0619,-1.0688,-1.0688,-1.0688,-1.0688,-1.0688,-1.0688,-0.951,-0.7231,-0.5964,-0.4124,-0.1881,-0.0572,0.0,0.0,0.0,0.0,0.0,0.0,0.0,0.0,0.0,0.0,0.0,0.0,0.0,0.0,0.0,0.0,0.0,0.0,0.0,0.0,0.0,0.0,0.0,0.0,0.0,0.0,0.0,0.0,0.0,0.0,0.0,0.0,0.0,0.0,0.0,0.0,0.0,0.0,0.0,0.0,0.0,0.0,0.0,0.0,0.0,0.0,0.0,0.0,0.0,0.0,0.0,0.0,0.0,0.0,0.0,0.0,0.0,0.0,0.0,0.0,0.0,0.0,0.0,0.0,0.0,-0.9768,-0.9792,-0.9792,-0.9792,0.0,0.0,-0.9792,-0.9792,-0.9792,-0.9792,-0.9792,-0.9792,-0.9792,-0.9792,-0.9792,-0.9792,-0.9792,-0.9792,-0.9792,-0.9792,-0.9792,-0.9792,-0.9792,-0.9792,-0.9792,-0.9792,-0.9792,-0.9792,-0.9792,-0.9819,-0.9883,-1.0148,-1.0344,-1.0487,-1.0639,-1.0688,-1.0688,-1.0688,-1.0688,-1.0688,-1.0688,-0.9742,-0.7964,-0.6962,-0.5093,-0.2652,-0.1579,-0.0706,0.0,0.0,0.0,0.0,0.0,0.0,0.0,0.0,0.0,0.0,0.0,0.0,0.0,0.0,0.0,0.0,0.0,0.0,0.0,0.0,0.0,0.0,0.0,0.0,0.0,0.0,0.0,0.0,0.0,0.0,0.0,0.0,0.0,0.0,0.0,0.0,0.0,0.0,0.0,0.0,0.0,0.0,0.0,0.0,0.0,0.0,0.0,0.0,0.0,0.0,0.0,0.0,0.0,0.0,0.0,0.0,0.0,0.0,0.0,0.0,0.0,0.0,0.0,0.0,-0.9792,-0.9792,-0.9792,-0.9792,-0.9792,0.0,-0.9792,-0.9792,-0.9792,-0.9792,-0.9792,-0.9792,-0.9792,-0.9792,-0.9792,-0.9792,-0.9792,-0.9792,-0.9792,-0.9792,-0.9792,-0.9792,-0.9792,-0.9792,-0.9792,-0.9792,-0.9792,-0.9792,-0.9792,-0.9863,-1.0035,-1.0205,-1.0383,-1.0514,-1.0649,-1.0688,-1.0688,-1.0688,-1.0688,-1.0688,-1.0688,-0.9845,-0.8299,-0.8097,-0.616,-0.2986,-0.2786,-0.168,0.0,0.0,0.0,0.0,0.0,0.0,0.0,0.0,0.0,0.0,0.0,0.0,0.0,0.0,0.0,0.0,0.0,0.0,0.0,0.0,0.0,0.0,0.0,0.0,0.0,0.0,0.0,0.0,0.0,0.0,0.0,0.0,0.0,0.0,0.0,0.0,0.0,0.0,0.0,0.0,0.0,0.0,0.0,0.0,0.0,0.0,0.0,0.0,0.0,0.0,0.0,0.0,0.0,0.0,0.0,0.0,0.0,0.0,0.0,0.0,0.0,0.0,0.0,0.0,-0.9792,-0.9792,-0.9792,-0.9792,-0.9792,0.0,-0.9792,-0.9792,-0.9792,-0.9792,-0.9792,-0.9792,-0.9792,-0.9792,-0.9792,-0.9792,-0.9792,-0.9792,-0.9792,-0.9792,-0.9792,-0.9792,-0.9792,-0.9792,-0.9792,-0.9792,-0.9792,-0.9792,-0.9792,-0.9944,-1.0219,-1.0263,-1.0402,-1.0633,-1.0704,-1.0688,-1.0688,-1.0688,-1.0688,-1.0688,-1.0688,-1.0518,-1.0114,-0.8668,-0.6862,-0.4795,-0.3321,-0.168,0.0,0.0,0.0,0.0,0.0,0.0,0.0,0.0,0.0,0.0,0.0,0.0,0.0,0.0,0.0,0.0,0.0,0.0,0.0,0.0,0.0,0.0,0.0,0.0,0.0,0.0,0.0,0.0,0.0,0.0,0.0,0.0,0.0,0.0,0.0,0.0,0.0,0.0,0.0,0.0,0.0,0.0,0.0,0.0,0.0,0.0,0.0,0.0,0.0,0.0,0.0,0.0,0.0,0.0,0.0,0.0,0.0,0.0,0.0,0.0,0.0,0.0,0.0,0.0,-0.9792,-0.9792,-0.9792,-0.9792,-0.9792,0.0,0.0,-0.9792,-0.9792,-0.9792,-0.9792,-0.9792,-0.9792,-0.9792,-0.9792,-0.9792,-0.9792,-0.9792,-0.9792,-0.9792,-0.9792,-0.9792,-0.9792,-0.9792,-0.9792,-0.9792,-0.9792,-0.9792,-0.9859,-1.0005,-1.0301,-1.0348,-1.0487,-1.0681,-1.0688,-1.0688,-1.0688,-1.0688,-1.0688,-1.0688,-1.0688,-1.0688,-1.0688,-0.9742,-0.8368,-0.6598,-0.4827,-0.3021,-0.1277,-0.037,0.0,0.0,0.0,0.0,0.0,0.0,0.0,0.0,0.0,0.0,0.0,0.0,0.0,0.0,0.0,0.0,0.0,0.0,0.0,0.0,0.0,0.0,0.0,0.0,0.0,0.0,0.0,0.0,0.0,0.0,0.0,0.0,0.0,0.0,0.0,0.0,0.0,0.0,0.0,0.0,0.0,0.0,0.0,0.0,0.0,0.0,0.0,0.0,0.0,0.0,0.0,0.0,0.0,0.0,0.0,0.0,0.0,0.0,0.0,0.0,0.0,0.0,-0.9792,-0.9792,-0.9792,-0.9792,-0.9792,-0.9792,0.0,0.0,0.0,-0.9792,-0.9792,-0.9792,-0.9792,-0.9792,-0.9792,-0.9792,-0.9792,-0.9792,-0.9792,-0.9792,-0.9792,-0.9792,-0.9792,-0.9792,-0.9792,-0.9792,-0.9792,-0.9792,-0.9934,-1.0086,-1.0305,-1.0415,-1.0561,-1.0714,-1.0688,-1.0688,-1.0688,-1.0688,-1.0688,-1.0688,-1.0688,-1.0688,-1.0688,-1.0688,-0.9709,-0.7897,-0.6164,-0.436,-0.2551,-0.074,0.0,0.0,0.0,0.0,0.0,0.0,0.0,0.0,0.0,0.0,0.0,0.0,0.0,0.0,0.0,0.0,0.0,0.0,0.0,0.0,0.0,0.0,0.0,0.0,0.0,0.0,0.0,0.0,0.0,0.0,0.0,0.0,0.0,0.0,0.0,0.0,0.0,0.0,0.0,0.0,0.0,0.0,0.0,0.0,0.0,0.0,0.0,0.0,0.0,0.0,0.0,0.0,0.0,0.0,0.0,0.0,0.0,0.0,0.0,0.0,0.0,0.0,-0.9792,-0.9792,-0.9792,-0.9792,-0.9792,-0.9792,-0.9792,0.0,-0.9792,-0.9792,0.0,-0.9792,-0.9792,0.0,0.0,-0.9792,-0.9792,-0.9792,-0.9792,-0.9792,-0.9792,-0.9792,-0.9792,-0.9792,-0.9792,-0.9792,-0.9792,-0.9792,-0.9934,-1.0086,-1.0305,-1.0415,-1.0561,-1.0714,-1.0688,-1.0688,-1.0688,-1.0688,-1.0688,-1.0688,-1.0688,-1.0688,-1.0688,-1.0688,-0.9709,-0.7897,-0.6164,-0.436,-0.2551,-0.074,0.0,0.0,0.0,0.0,0.0,0.0,0.0,0.0,0.0,0.0,0.0,0.0,0.0,0.0,0.0,0.0,0.0,0.0,0.0,0.0,0.0,0.0,0.0,0.0,0.0,0.0,0.0,0.0,0.0,0.0,0.0,0.0,0.0,0.0,0.0,0.0,0.0,0.0,0.0,0.0,0.0,0.0,0.0,0.0,0.0,0.0,0.0,0.0,0.0,0.0,0.0,0.0,0.0,0.0,0.0,0.0,0.0,0.0,0.0,0.0,0.0,0.0,-0.9792,-0.9792,-0.9792,-0.9792,-0.9856,-0.992,-0.992,-0.9206,-0.8818,-0.9865,0.0,0.0,0.0,0.0,0.0,0.0,-0.9792,-0.9792,-0.9792,-0.9792,-0.9792,-0.9792,-0.9792,-0.9792,-0.9792,-0.9792,-0.9829,-0.9917,-1.0065,-1.0249,-1.0395,-1.0544,-1.0653,-1.0684,-1.0688,-1.0688,-1.0688,-1.0688,-1.0688,-1.0688,-1.0688,-1.0688,-1.0688,-1.0688,-1.0283,-0.9474,-0.7667,-0.5895,-0.4124,-0.2317,-0.0941,0.0,0.0,0.0,0.0,0.0,0.0,0.0,0.0,0.0,0.0,0.0,0.0,0.0,0.0,0.0,0.0,0.0,0.0,0.0,0.0,0.0,0.0,0.0,0.0,0.0,0.0,0.0,0.0,0.0,0.0,0.0,0.0,0.0,0.0,0.0,0.0,0.0,0.0,0.0,0.0,0.0,0.0,0.0,0.0,0.0,0.0,0.0,0.0,0.0,0.0,0.0,0.0,0.0,0.0,0.0,0.0,0.0,0.0,0.0,0.0,0.0,-0.9842,-0.9852,-0.9863,-0.9937,-1.0001,-0.9954,-0.9443,-0.8439,-0.7829,-0.8666,-0.6737,0.0,0.0,0.0,-0.7099,-0.8259,0.0,-0.8445,-0.8443,-0.8471,-0.8775,-0.9697,-0.9792,-0.9792,-0.9792,-0.9792,-0.9852,-0.9974,-1.0195,-1.0373,-1.0483,-1.0636,-1.0688,-1.0688,-1.0688,-1.0688,-1.0688,-1.0688,-1.0688,-1.0688,-1.0688,-1.0688,-1.0688,-1.0688,-1.0688,-1.0585,-0.8801,-0.6996,-0.5263,-0.3456,-0.1646,0.0,0.0,0.0,0.0,0.0,0.0,0.0,0.0,0.0,0.0,0.0,0.0,0.0,0.0,0.0,0.0,0.0,0.0,0.0,0.0,0.0,0.0,0.0,0.0,0.0,0.0,0.0,0.0,0.0,0.0,0.0,0.0,0.0,0.0,0.0,0.0,0.0,0.0,0.0,0.0,0.0,0.0,0.0,0.0,0.0,0.0,0.0,0.0,0.0,0.0,0.0,0.0,0.0,0.0,0.0,0.0,0.0,0.0,0.0,0.0,0.0,-0.9971,-0.998,-1.0045,-1.0229,-1.0301,-0.9821,-0.8082,-0.7635,-0.7122,-0.5422,-0.4974,-0.4942,-0.5035,-0.5003,-0.501,-0.5062,-0.505,0.0,0.0,-0.5069,-0.6232,-0.942,-0.9792,-0.9792,-0.9792,-0.9792,-0.9852,-0.9974,-1.0195,-1.0373,-1.0483,-1.0636,-1.0688,-1.0688,-1.0688,-1.0688,-1.0688,-1.0688,-1.0688,-1.0688,-1.0688,-1.0688,-1.0688,-1.0688,-1.0688,-1.0585,-0.8801,-0.6996,-0.5263,-0.3456,-0.1646,0.0,0.0,0.0,0.0,0.0,0.0,0.0,0.0,0.0,0.0,0.0,0.0,0.0,0.0,0.0,0.0,0.0,0.0,0.0,0.0,0.0,0.0,0.0,0.0,0.0,0.0,0.0,0.0,0.0,0.0,0.0,0.0,0.0,0.0,0.0,0.0,0.0,0.0,0.0,0.0,0.0,0.0,0.0,0.0,0.0,0.0,0.0,0.0,0.0,0.0,0.0,0.0,0.0,0.0,0.0,0.0,0.0,0.0,0.0,0.0,0.0,0.0,0.0,-1.0215,-1.0266,-1.0383,-0.9964,-0.814,-0.6921,-0.5979,-0.5351,-0.3339,-0.2342,-0.4601,-0.4104,-0.3664,-0.4726,-0.4904,-0.4911,0.0,-0.4916,-0.5712,-0.7944,-0.9143,-0.9792,-0.9792,-0.9883,-1.0005,-1.0188,-1.0337,-1.0483,-1.0633,-1.0694,-1.0688,-1.0688,-1.0688,-1.0688,-1.0688,-1.0688,-1.0688,-1.0688,-1.0688,-1.0688,-1.0688,-1.0688,-1.0688,-1.0688,-1.0047,-0.8102,-0.5364,-0.4727,-0.2719,0.0,0.0,0.0,0.0,0.0,0.0,0.0,0.0,0.0,0.0,0.0,0.0,0.0,0.0,0.0,0.0,0.0,0.0,0.0,0.0,0.0,0.0,0.0,0.0,0.0,0.0,0.0,0.0,0.0,0.0,0.0,0.0,0.0,0.0,0.0,0.0,0.0,0.0,0.0,0.0,0.0,0.0,0.0,0.0,0.0,0.0,0.0,0.0,0.0,0.0,0.0,0.0,0.0,0.0,0.0,0.0,0.0,0.0,0.0,0.0,0.0,-1.0373,-1.0354,0.0,-1.0422,-1.0507,0.0,-0.8292,-0.7053,-0.6164,-0.5531,-0.3556,-0.2611,-0.4802,-0.3771,-0.2899,-0.3957,-0.3592,-0.3158,0.0,-0.3661,-0.4439,-0.5516,-0.7595,-0.9193,-0.9805,-0.9961,-1.0103,-1.0341,-1.0439,-1.0558,-1.0677,-1.0688,-1.0688,-1.0688,-1.0688,-1.0688,-1.0688,-1.0688,-1.0688,-1.0688,-1.0688,-1.0688,-1.0688,-1.0688,-1.0688,-1.0651,-1.0011,-0.8102,-0.5362,-0.4693,-0.2685,0.0,0.0,0.0,0.0,0.0,0.0,0.0,0.0,0.0,0.0,0.0,0.0,0.0,0.0,0.0,0.0,0.0,0.0,0.0,0.0,0.0,0.0,0.0,0.0,0.0,0.0,0.0,0.0,0.0,0.0,0.0,0.0,0.0,0.0,0.0,0.0,0.0,0.0,0.0,0.0,0.0,0.0,0.0,0.0,0.0,0.0,0.0,0.0,0.0,0.0,0.0,0.0,0.0,0.0,0.0,0.0,0.0,0.0,0.0,0.0,0.0]},{"header":{"parameterUnit":"m.s-1","parameterCategory":1,"la1":30.6,"la2":29.2853,"lo1":-89.7004,"lo2":-87.6739,"dy":0.0162,"dx":0.0183,"nx":112,"ny":82,"refTime":"2023-09-28T18:00:00:Z","depth":0,"parameterNumber":3,"parameterNumberName":"V-component_of_WINDS"},"data":[0.0,0.0,0.0,0.0,0.0,0.0,0.0,0.0,0.0,0.0,0.0,0.0,0.0,0.0,0.0,0.0,0.0,0.0,0.0,0.0,0.0,0.0,0.0,0.0,0.0,0.0,0.0,0.0,0.0,0.0,0.0,0.0,0.0,0.0,0.0,0.0,0.0,0.0,0.0,0.0,0.0,0.0,0.0,0.0,0.0,0.0,0.0,0.0,0.0,0.0,0.0,0.0,0.0,0.0,0.0,0.0,0.0,0.0,0.0,0.0,0.0,0.0,0.0,0.0,0.0,0.0,0.0,0.0,0.0,0.0,0.0,0.0,0.0,0.0,0.0,0.0,0.0,0.0,0.0,0.0,0.0,0.0,0.0,0.0,0.0,0.0,0.0,0.0,0.0,0.0,4.1727,4.2415,4.3084,4.3506,4.3506,4.3506,4.3506,4.3506,0.0,0.0,0.0,0.0,0.0,0.0,0.0,0.0,0.0,0.0,0.0,0.0,0.0,0.0,0.0,0.0,0.0,0.0,0.0,0.0,0.0,0.0,0.0,0.0,0.0,0.0,0.0,0.0,0.0,0.0,0.0,0.0,0.0,0.0,0.0,0.0,0.0,0.0,0.0,0.0,0.0,0.0,0.0,0.0,0.0,0.0,0.0,0.0,0.0,0.0,0.0,0.0,0.0,0.0,0.0,0.0,0.0,0.0,0.0,0.0,0.0,0.0,0.0,0.0,0.0,0.0,0.0,0.0,0.0,0.0,0.0,0.0,0.0,0.0,0.0,0.0,0.0,0.0,0.0,0.0,0.0,0.0,0.0,0.0,0.0,0.0,0.0,0.0,0.0,0.0,0.0,0.0,0.0,0.0,0.0,0.0,0.0,0.0,0.0,0.0,0.0,0.0,0.0,0.0,4.3176,4.3304,4.3433,4.3506,4.3506,4.3506,4.3506,4.3506,0.0,0.0,0.0,0.0,0.0,0.0,0.0,0.0,0.0,0.0,0.0,0.0,0.0,0.0,0.0,0.0,0.0,0.0,0.0,0.0,0.0,0.0,0.0,0.0,0.0,0.0,0.0,0.0,0.0,0.0,0.0,0.0,0.0,0.0,0.0,0.0,0.0,0.0,0.0,0.0,0.0,0.0,0.0,0.0,0.0,0.0,0.0,0.0,0.0,0.0,0.0,0.0,0.0,0.0,0.0,0.0,0.0,0.0,0.0,0.0,0.0,0.0,0.0,0.0,0.0,0.0,0.0,0.0,0.0,0.0,0.0,0.0,0.0,0.0,0.0,0.0,0.0,0.0,0.0,0.0,0.0,0.0,0.0,0.0,0.0,0.0,0.0,0.0,0.0,0.0,0.0,0.0,0.0,0.0,0.0,0.0,0.0,0.0,0.0,0.0,0.0,0.0,0.0,4.3267,4.3506,4.3506,4.3892,4.4158,4.4158,4.4552,4.4809,4.4809,4.4809,0.0,0.0,0.0,0.0,0.0,0.0,0.0,0.0,0.0,0.0,0.0,0.0,0.0,0.0,0.0,0.0,0.0,0.0,0.0,0.0,0.0,0.0,0.0,0.0,0.0,0.0,0.0,0.0,0.0,0.0,0.0,0.0,0.0,0.0,0.0,0.0,0.0,0.0,0.0,0.0,0.0,0.0,0.0,0.0,0.0,0.0,0.0,0.0,0.0,0.0,0.0,0.0,0.0,0.0,0.0,0.0,0.0,0.0,0.0,0.0,0.0,0.0,0.0,0.0,0.0,0.0,0.0,0.0,0.0,0.0,0.0,0.0,0.0,0.0,0.0,0.0,0.0,0.0,0.0,0.0,0.0,0.0,0.0,0.0,0.0,0.0,0.0,0.0,0.0,0.0,0.0,0.0,0.0,0.0,0.0,0.0,0.0,0.0,0.0,0.0,0.0,0.0,4.3781,4.3855,4.4057,4.4617,4.4975,4.4975,4.5553,4.5902,4.5902,4.5902,0.0,0.0,0.0,0.0,0.0,0.0,0.0,0.0,0.0,0.0,0.0,0.0,0.0,0.0,0.0,0.0,0.0,0.0,0.0,0.0,0.0,0.0,0.0,0.0,0.0,0.0,0.0,0.0,0.0,0.0,0.0,0.0,0.0,0.0,0.0,0.0,0.0,0.0,0.0,0.0,0.0,0.0,0.0,0.0,0.0,0.0,0.0,0.0,0.0,0.0,0.0,0.0,0.0,0.0,0.0,0.0,0.0,0.0,0.0,0.0,0.0,0.0,0.0,0.0,0.0,0.0,0.0,0.0,0.0,0.0,0.0,0.0,0.0,0.0,0.0,0.0,0.0,0.0,0.0,0.0,0.0,0.0,0.0,0.0,0.0,0.0,0.0,0.0,0.0,0.0,0.0,0.0,0.0,0.0,0.0,0.0,0.0,0.0,0.0,0.0,0.0,0.0,4.4626,4.4902,4.5645,4.5773,4.581,4.581,4.5865,4.5902,4.5902,4.5902,0.0,0.0,0.0,0.0,0.0,0.0,0.0,0.0,0.0,0.0,0.0,0.0,0.0,0.0,0.0,0.0,0.0,0.0,0.0,0.0,0.0,0.0,0.0,0.0,0.0,0.0,0.0,0.0,0.0,0.0,0.0,0.0,0.0,0.0,0.0,0.0,0.0,0.0,0.0,0.0,0.0,0.0,0.0,0.0,0.0,0.0,0.0,0.0,0.0,0.0,0.0,0.0,0.0,0.0,0.0,0.0,0.0,0.0,0.0,0.0,0.0,0.0,0.0,0.0,0.0,0.0,0.0,0.0,0.0,0.0,0.0,0.0,0.0,0.0,0.0,0.0,0.0,0.0,0.0,0.0,0.0,0.0,0.0,0.0,0.0,0.0,0.0,0.0,0.0,0.0,0.0,0.0,0.0,0.0,0.0,0.0,0.0,0.0,0.0,0.0,0.0,0.0,4.5461,4.5571,4.5865,4.6351,4.6645,4.6645,4.7104,4.7407,4.7407,0.0,0.0,0.0,0.0,0.0,0.0,0.0,0.0,0.0,0.0,0.0,0.0,0.0,0.0,0.0,0.0,0.0,0.0,0.0,0.0,0.0,0.0,0.0,0.0,0.0,0.0,0.0,0.0,0.0,0.0,0.0,0.0,0.0,0.0,0.0,0.0,0.0,0.0,0.0,0.0,0.0,0.0,0.0,0.0,0.0,0.0,0.0,0.0,0.0,0.0,0.0,0.0,0.0,0.0,0.0,0.0,0.0,0.0,0.0,0.0,0.0,0.0,0.0,0.0,0.0,0.0,0.0,0.0,0.0,0.0,0.0,0.0,0.0,0.0,0.0,0.0,0.0,0.0,0.0,0.0,0.0,0.0,0.0,0.0,0.0,0.0,0.0,0.0,0.0,0.0,0.0,0.0,0.0,0.0,0.0,0.0,0.0,0.0,0.0,0.0,0.0,0.0,4.6177,4.6278,4.6379,4.6636,4.7159,4.748,4.748,4.7984,4.8296,4.8296,0.0,0.0,0.0,0.0,0.0,0.0,0.0,0.0,0.0,0.0,0.0,0.0,0.0,0.0,0.0,0.0,0.0,0.0,0.0,0.0,0.0,0.0,0.0,0.0,0.0,0.0,0.0,0.0,0.0,0.0,0.0,0.0,0.0,0.0,0.0,0.0,0.0,0.0,0.0,0.0,0.0,0.0,0.0,0.0,0.0,0.0,0.0,0.0,0.0,0.0,0.0,0.0,0.0,0.0,0.0,0.0,0.0,0.0,0.0,0.0,0.0,0.0,0.0,0.0,0.0,0.0,0.0,0.0,0.0,0.0,0.0,0.0,0.0,0.0,0.0,0.0,0.0,0.0,0.0,0.0,0.0,0.0,0.0,0.0,0.0,0.0,0.0,0.0,0.0,0.0,0.0,0.0,0.0,0.0,0.0,0.0,0.0,0.0,0.0,0.0,0.0,0.0,4.7003,4.7113,4.7424,4.8223,4.8296,4.8296,4.8296,4.8296,4.8296,0.0,0.0,0.0,0.0,0.0,0.0,0.0,0.0,0.0,0.0,0.0,0.0,0.0,0.0,0.0,0.0,0.0,0.0,0.0,0.0,0.0,0.0,0.0,0.0,0.0,0.0,0.0,0.0,0.0,0.0,0.0,0.0,0.0,0.0,0.0,0.0,0.0,0.0,0.0,0.0,0.0,0.0,0.0,0.0,0.0,0.0,0.0,0.0,0.0,0.0,0.0,0.0,0.0,0.0,0.0,0.0,0.0,0.0,0.0,0.0,0.0,0.0,0.0,0.0,0.0,0.0,0.0,0.0,0.0,0.0,0.0,0.0,0.0,0.0,0.0,0.0,0.0,0.0,0.0,0.0,0.0,0.0,0.0,0.0,0.0,0.0,0.0,0.0,0.0,0.0,0.0,0.0,0.0,0.0,0.0,0.0,0.0,0.0,0.0,0.0,0.0,0.0,0.0,4.7838,4.7948,4.8039,4.826,4.8296,4.8296,4.8296,4.8296,4.8296,4.8296,0.0,0.0,0.0,0.0,0.0,0.0,0.0,0.0,0.0,0.0,0.0,0.0,0.0,0.0,0.0,0.0,0.0,0.0,0.0,0.0,0.0,0.0,0.0,0.0,0.0,0.0,0.0,0.0,0.0,0.0,0.0,0.0,0.0,0.0,0.0,0.0,0.0,0.0,0.0,0.0,0.0,0.0,0.0,0.0,0.0,0.0,0.0,0.0,0.0,0.0,0.0,0.0,0.0,0.0,0.0,0.0,0.0,0.0,0.0,0.0,0.0,0.0,0.0,0.0,0.0,0.0,0.0,0.0,0.0,0.0,0.0,0.0,0.0,0.0,0.0,0.0,0.0,0.0,0.0,0.0,0.0,0.0,0.0,0.0,0.0,0.0,0.0,0.0,0.0,0.0,0.0,0.0,0.0,0.0,0.0,0.0,0.0,0.0,0.0,0.0,0.0,0.0,4.8241,4.8296,4.8296,4.8296,4.8296,4.8296,4.8296,4.8296,4.8296,4.8296,0.0,0.0,0.0,0.0,0.0,0.0,0.0,0.0,0.0,0.0,0.0,0.0,0.0,0.0,0.0,0.0,0.0,0.0,0.0,0.0,0.0,0.0,0.0,0.0,0.0,0.0,0.0,0.0,0.0,0.0,0.0,0.0,0.0,0.0,0.0,0.0,0.0,0.0,0.0,0.0,0.0,0.0,0.0,0.0,0.0,0.0,0.0,0.0,0.0,0.0,0.0,0.0,0.0,0.0,0.0,0.0,0.0,0.0,0.0,0.0,0.0,0.0,0.0,0.0,0.0,0.0,0.0,0.0,0.0,0.0,0.0,0.0,0.0,0.0,0.0,0.0,0.0,0.0,0.0,0.0,0.0,0.0,0.0,0.0,0.0,0.0,0.0,0.0,0.0,0.0,0.0,0.0,0.0,0.0,0.0,0.0,0.0,0.0,0.0,0.0,0.0,0.0,4.8296,4.8296,4.8296,4.8296,4.8296,4.8296,4.8296,4.8296,4.8296,4.8296,0.0,0.0,0.0,0.0,0.0,0.0,0.0,0.0,0.0,0.0,0.0,0.0,0.0,0.0,0.0,0.0,0.0,0.0,0.0,0.0,0.0,0.0,0.0,0.0,0.0,0.0,0.0,0.0,0.0,0.0,0.0,0.0,0.0,0.0,0.0,0.0,0.0,0.0,0.0,0.0,0.0,0.0,0.0,0.0,0.0,0.0,0.0,0.0,0.0,0.0,0.0,0.0,0.0,0.0,0.0,0.0,0.0,0.0,0.0,0.0,4.0003,3.9482,0.0,0.0,0.0,0.0,0.0,0.0,0.0,0.0,0.0,0.0,0.0,0.0,0.0,0.0,0.0,0.0,0.0,0.0,0.0,0.0,0.0,0.0,0.0,0.0,0.0,0.0,0.0,0.0,0.0,0.0,0.0,0.0,0.0,0.0,0.0,0.0,0.0,0.0,0.0,0.0,4.8296,4.8296,4.8296,4.8296,4.8296,4.8296,4.8296,4.8296,4.8296,4.8296,4.8296,0.0,0.0,0.0,0.0,0.0,0.0,0.0,0.0,0.0,0.0,0.0,0.0,0.0,0.0,0.0,0.0,0.0,0.0,0.0,0.0,0.0,0.0,0.0,0.0,0.0,0.0,0.0,0.0,0.0,0.0,0.0,0.0,0.0,0.0,0.0,0.0,0.0,0.0,0.0,0.0,0.0,0.0,0.0,0.0,0.0,0.0,0.0,0.0,0.0,0.0,0.0,0.0,0.0,0.0,0.0,0.0,0.0,0.0,0.0,4.1944,4.124,0.0,0.0,0.0,0.0,0.0,0.0,0.0,0.0,0.0,0.0,0.0,0.0,0.0,0.0,0.0,0.0,0.0,0.0,0.0,0.0,0.0,0.0,0.0,0.0,0.0,0.0,0.0,0.0,0.0,0.0,0.0,0.0,0.0,0.0,0.0,0.0,0.0,0.0,0.0,0.0,4.8296,4.8296,4.8296,4.8296,4.8296,4.8296,4.8296,4.8296,4.8296,4.8296,4.8296,0.0,0.0,0.0,0.0,0.0,0.0,0.0,0.0,0.0,0.0,0.0,0.0,0.0,0.0,0.0,0.0,0.0,0.0,0.0,0.0,0.0,0.0,0.0,0.0,0.0,0.0,0.0,0.0,0.0,0.0,0.0,0.0,0.0,0.0,0.0,0.0,0.0,0.0,0.0,0.0,0.0,0.0,0.0,0.0,0.0,0.0,0.0,0.0,0.0,0.0,0.0,0.0,0.0,4.4007,4.4604,4.525,4.5699,4.5902,4.581,4.4032,4.3506,4.3928,4.3928,0.0,0.0,0.0,0.0,0.0,0.0,0.0,0.0,0.0,0.0,0.0,0.0,0.0,0.0,0.0,0.0,0.0,0.0,0.0,0.0,0.0,0.0,0.0,0.0,4.7535,4.8163,4.6806,0.0,0.0,0.0,0.0,0.0,0.0,0.0,0.0,0.0,0.0,0.0,4.8296,4.8434,4.8526,4.8526,4.8655,4.8737,4.8737,4.8737,4.8737,4.8737,4.8737,4.8737,0.0,0.0,0.0,0.0,0.0,0.0,0.0,0.0,0.0,0.0,0.0,0.0,0.0,0.0,0.0,0.0,0.0,0.0,0.0,0.0,0.0,0.0,0.0,0.0,0.0,0.0,0.0,0.0,0.0,0.0,0.0,0.0,4.1424,4.1898,0.0,0.0,0.0,0.0,0.0,0.0,0.0,0.0,0.0,0.0,0.0,0.0,0.0,4.5315,4.5214,4.5315,4.5406,4.5516,4.5599,4.5682,4.5801,4.5874,4.5902,4.5883,4.5599,0.0,4.5571,4.5571,0.0,0.0,0.0,0.0,0.0,0.0,0.0,0.0,0.0,0.0,0.0,0.0,0.0,0.0,0.0,0.0,0.0,0.0,0.0,0.0,0.0,0.0,4.8719,4.8964,4.919,4.9284,0.0,4.8564,4.8131,4.8131,4.8223,0.0,0.0,0.0,0.0,0.0,0.0,0.0,4.8296,4.8958,4.9435,4.9435,5.005,5.0472,5.0472,5.0472,5.0472,5.0472,5.0472,5.0472,5.0472,5.0472,0.0,0.0,0.0,0.0,0.0,0.0,0.0,0.0,0.0,0.0,0.0,0.0,0.0,0.0,0.0,0.0,0.0,0.0,0.0,0.0,0.0,0.0,0.0,0.0,0.0,0.0,0.0,0.0,0.0,4.2002,4.2358,4.2914,4.3681,4.4176,0.0,0.0,0.0,0.0,0.0,0.0,0.0,0.0,0.0,4.5902,4.5902,4.5902,4.5902,4.5902,4.6122,4.6571,4.6571,4.681,4.726,4.726,4.726,4.726,4.726,4.726,4.7186,4.6269,4.5902,4.5902,0.0,0.0,0.0,0.0,4.5902,4.5957,4.6425,4.6571,4.6691,4.7367,0.0,0.0,0.0,0.0,0.0,0.0,0.0,0.0,0.0,0.0,4.928,4.9453,4.9496,4.9496,4.9496,4.9218,4.8915,0.0,4.844,4.8471,4.8958,0.0,0.0,0.0,0.0,5.0291,5.0064,5.038,5.0602,5.0602,5.0715,5.0802,5.0802,5.0802,5.0802,5.0802,5.0802,5.0802,5.0802,5.0802,5.0802,0.0,0.0,0.0,0.0,0.0,0.0,0.0,0.0,0.0,0.0,0.0,0.0,0.0,0.0,0.0,0.0,0.0,0.0,0.0,0.0,0.0,0.0,0.0,0.0,0.0,0.0,0.0,0.0,4.3634,4.3669,4.4068,4.4635,4.5012,0.0,0.0,0.0,0.0,0.0,0.0,4.6214,4.6397,4.6507,4.6507,4.6507,4.6507,4.6507,4.6507,4.681,4.7406,4.7406,4.7728,4.8296,4.8296,4.8296,4.8296,4.8296,4.8296,4.8205,4.7021,4.6507,4.6507,4.6507,4.6507,4.6507,4.6507,4.6507,4.6599,4.7195,4.7472,4.7702,4.8609,4.898,4.9108,4.9408,0.0,0.0,0.0,0.0,4.9518,4.9636,4.9638,4.9685,4.978,4.9959,5.0104,5.0104,5.0213,5.0113,0.0,4.9146,4.9214,5.0065,0.0,0.0,5.1056,5.1628,5.1903,5.1595,5.1731,5.1862,5.1862,5.1667,5.1572,5.1572,5.147,5.1397,5.1397,5.1397,5.1397,5.1397,5.1397,5.1397,5.1397,0.0,0.0,0.0,0.0,0.0,0.0,0.0,0.0,0.0,0.0,0.0,0.0,0.0,0.0,0.0,0.0,0.0,0.0,0.0,0.0,0.0,0.0,0.0,0.0,0.0,0.0,0.0,0.0,0.0,4.5773,4.581,0.0,0.0,0.0,0.0,4.5902,4.6608,4.7039,4.7039,4.7764,4.8177,4.8177,4.8177,4.8177,4.8177,4.8177,4.8205,4.8241,4.8241,4.826,4.8296,4.8296,4.8296,4.8296,4.8296,4.8296,4.8296,4.8205,4.8177,4.8177,4.8177,4.8177,4.8177,4.8177,4.8177,4.8186,4.8223,4.8485,4.8815,4.8878,4.9155,4.9467,4.9489,4.9496,0.0,0.0,4.9496,4.9601,4.9968,5.0068,5.0165,5.0549,5.122,5.1791,5.1791,5.2127,5.2093,0.0,5.0689,5.0934,5.1741,0.0,5.1922,5.1937,5.1967,5.199,5.1967,5.2635,5.311,5.311,5.3431,5.3656,5.3656,5.3293,5.3086,5.3086,5.3086,5.3086,5.3086,5.3086,5.3086,5.3086,5.3086,0.0,0.0,0.0,0.0,0.0,0.0,0.0,0.0,0.0,0.0,0.0,0.0,0.0,0.0,0.0,0.0,0.0,0.0,0.0,0.0,0.0,0.0,0.0,0.0,0.0,0.0,0.0,0.0,4.5902,4.6351,0.0,4.6663,4.714,4.7443,4.7443,4.7709,4.7874,4.7874,4.8131,4.8296,4.8296,4.8296,4.8296,4.8296,4.8296,4.8581,4.9142,4.9142,4.9407,4.9921,4.9921,4.9921,4.9921,4.9921,4.9921,4.9922,5.0185,4.952,4.8296,4.8296,4.8296,4.8296,4.8296,4.8449,4.8692,4.8692,4.8947,4.9333,4.9589,4.9949,5.0272,5.0272,5.0629,5.1044,5.1044,5.1451,5.1901,5.2067,5.2094,5.214,5.2278,5.2529,5.2736,5.2736,5.2874,5.3031,5.3157,5.2318,5.1831,5.2628,5.302,5.3307,5.3565,5.4059,5.4288,5.4039,5.4244,5.4427,5.4427,5.4327,5.4246,5.4246,5.4119,5.4041,5.4041,5.4041,5.4041,5.4041,5.4041,5.4041,5.4041,5.3739,5.3585,0.0,0.0,0.0,0.0,0.0,0.0,0.0,0.0,0.0,0.0,0.0,0.0,0.0,0.0,0.0,0.0,0.0,0.0,0.0,0.0,0.0,0.0,0.0,0.0,0.0,4.6544,4.6709,4.6709,4.7177,4.7507,4.7507,4.7984,4.8296,4.8296,4.8296,4.8296,4.8296,4.8296,4.8493,4.8938,4.8938,4.9141,4.9543,4.9543,4.984,5.0415,5.0415,5.0684,5.1195,5.1195,5.1195,5.1195,5.1195,5.1371,5.1649,5.1923,5.1403,5.0377,4.9775,4.9543,4.9543,4.9543,4.9716,4.9971,5.0103,5.0315,5.0602,5.1017,5.1327,5.1534,5.1534,5.1914,5.2332,5.2332,5.2755,5.3197,5.3197,5.3197,5.3197,5.3197,5.3409,5.3645,5.3645,5.3857,5.4203,5.478,5.3789,5.31,5.3904,5.4295,5.4689,5.5263,5.5547,5.5714,5.5739,5.5479,5.5306,5.5306,5.5218,5.5136,5.5136,5.5267,5.5338,5.5338,5.5066,5.4907,5.4907,5.4907,5.4907,5.4907,5.4598,5.4301,5.4031,0.0,0.0,0.0,0.0,0.0,0.0,0.0,0.0,0.0,0.0,0.0,0.0,0.0,0.0,0.0,0.0,0.0,0.0,0.0,0.0,0.0,0.0,0.0,4.725,4.7819,4.8296,4.8296,4.8316,4.8325,4.8325,4.8335,4.8344,4.8344,4.8344,4.8344,4.839,4.839,4.8956,5.0225,5.026,5.0814,5.199,5.1997,5.2035,5.2073,5.2073,5.2111,5.2167,5.2167,5.2167,5.2167,5.2167,5.2636,5.3426,5.3422,5.3921,5.4526,5.2768,5.2073,5.2073,5.2073,5.2062,5.2109,5.2488,5.2621,5.269,5.308,5.3197,5.3217,5.3236,5.3255,5.3274,5.3313,5.3332,5.3351,5.3351,5.3351,5.3351,5.3351,5.3991,5.4626,5.4626,5.5222,5.5785,5.5785,5.5145,5.4857,5.5574,5.5728,5.6035,5.6863,5.6305,0.0,5.692,5.6305,5.5785,5.5785,5.6192,5.6464,5.6464,5.6827,5.7043,5.7043,5.6244,5.5783,5.5783,5.5783,5.5775,5.5759,5.5759,5.5373,5.4578,0.0,0.0,0.0,0.0,0.0,0.0,0.0,0.0,0.0,0.0,0.0,0.0,0.0,0.0,0.0,0.0,0.0,0.0,0.0,0.0,0.0,4.8745,4.8556,4.8041,4.815,4.8296,4.8296,4.8568,4.8745,4.8745,4.9005,4.9163,4.9163,4.9163,4.9452,5.0076,5.0113,5.0533,5.1483,5.1502,5.165,5.1997,5.1997,5.2613,5.3822,5.3822,5.4445,5.5624,5.5624,5.5624,5.5624,5.5624,5.5764,5.6015,5.6298,5.6559,5.6568,5.4648,5.3898,5.3898,5.3898,5.3665,5.3332,5.3106,5.3034,5.3045,5.3158,5.3197,5.3313,5.3953,5.4549,5.5145,5.5785,5.6415,5.689,5.689,5.689,5.689,5.689,5.7088,5.7261,5.7261,5.7434,5.7588,5.7588,5.7415,5.6915,5.5882,5.6228,5.6709,5.6964,5.7324,0.0,5.7915,5.7723,5.7588,5.7588,5.7707,5.7775,5.7775,5.7888,5.7934,5.7934,5.7723,5.7583,5.7583,5.7583,5.7435,5.7077,5.7089,5.6823,0.0,0.0,0.0,0.0,0.0,0.0,0.0,0.0,0.0,0.0,0.0,0.0,0.0,0.0,0.0,0.0,0.0,0.0,0.0,0.0,0.0,0.0,4.9035,4.9059,4.883,4.8796,4.8796,4.8796,4.9013,4.9147,4.9147,4.9363,4.9647,5.002,5.0039,5.0405,5.1258,5.1303,5.1761,5.276,5.3127,5.3546,5.4102,5.4464,5.5124,5.6082,5.6082,5.6596,5.7549,5.7549,5.7549,5.7549,5.7549,5.7739,5.8066,5.8296,5.8604,0.0,0.0,0.0,0.0,0.0,5.5982,5.5692,5.5437,5.5332,5.5332,5.5332,5.5332,5.5428,5.5934,5.6415,5.6896,5.7401,5.7915,5.8294,5.8294,5.8294,5.8294,5.8294,5.8294,5.8294,5.8294,5.8294,5.8294,5.8294,5.8294,0.0,5.6953,5.7209,5.7651,5.7998,5.8184,5.8409,5.8756,5.8511,5.8294,5.8294,5.8602,5.88,5.88,5.9146,0.0,0.0,0.0,5.88,5.88,5.88,0.0,0.0,0.0,5.8111,5.7549,0.0,0.0,0.0,5.5712,5.5642,0.0,0.0,0.0,0.0,0.0,0.0,0.0,0.0,0.0,0.0,0.0,0.0,0.0,0.0,0.0,0.0,4.9333,4.9575,4.9636,4.9643,4.9589,4.9504,4.9532,4.9599,4.9693,4.9736,5.013,5.1015,5.1079,5.1426,5.2236,5.2376,0.0,0.0,0.0,5.5994,5.7132,5.7915,5.8352,5.8434,5.8434,5.8486,5.8583,5.8583,5.8583,5.8583,5.8583,5.8992,5.9646,5.9646,6.0108,6.0646,5.9165,5.8583,5.8569,5.8467,5.8434,5.8409,5.8333,0.0,0.0,5.8294,5.8294,5.8313,5.8409,5.8434,5.8467,5.855,5.8583,5.8583,5.8583,5.8583,5.8583,5.8583,5.8583,5.8583,5.8583,5.8583,5.8583,5.8583,5.8583,5.8583,5.8583,5.8511,5.8684,5.9396,5.8973,5.8838,5.955,5.9031,5.8583,5.8583,0.0,0.0,5.9646,6.0358,6.0806,6.0806,6.0069,5.9646,5.9646,5.9646,5.9646,5.9646,5.9646,5.93,5.8583,5.8583,5.8583,5.8552,5.7589,5.7343,0.0,0.0,0.0,0.0,0.0,0.0,0.0,0.0,0.0,0.0,0.0,0.0,0.0,0.0,0.0,4.9813,4.9936,5.0092,5.0421,5.0472,5.0237,4.9587,4.9787,5.0247,5.0882,5.1247,5.1809,5.2678,5.2735,5.3099,5.3968,5.4626,5.5422,5.6362,5.7221,5.7807,5.805,5.8223,5.8627,5.9281,0.0,0.0,6.0319,6.0319,6.0319,6.0319,6.0319,6.0396,6.055,6.055,6.0646,6.0768,6.0441,6.0319,6.0223,5.9531,5.9281,5.9184,5.8525,5.8294,5.8294,5.8294,5.8294,5.8409,5.9069,5.9281,0.0,6.0127,6.0319,6.0319,6.0319,6.0319,6.0319,6.0319,6.0319,6.0319,6.0319,6.0319,6.0319,6.0319,6.0319,6.0319,6.0319,5.9723,5.9319,5.9473,5.9973,6.0358,6.0531,6.0416,6.0319,6.0319,6.0454,6.055,6.055,6.0704,6.0806,6.0806,6.0646,6.055,6.055,6.055,6.055,6.055,6.055,6.0473,6.0319,6.0319,6.0319,6.0281,5.876,5.8097,0.0,0.0,0.0,0.0,0.0,0.0,0.0,0.0,0.0,0.0,0.0,4.9202,4.9202,0.0,4.9872,5.0068,5.0266,5.0472,5.0673,5.1053,5.1158,5.0739,5.0878,5.1319,5.2167,5.2427,5.2909,5.3799,5.4222,5.4838,5.5708,5.6549,5.7203,5.7646,5.8454,5.8896,5.8896,5.9338,5.9742,6.0146,6.0146,6.0377,6.0806,6.0806,6.0806,6.0806,6.0806,6.0806,6.0819,6.1268,6.1441,6.1499,6.1897,6.1531,6.0748,6.03,6.0146,6.0089,5.9685,5.955,5.955,5.955,5.955,5.9627,6.0031,6.0146,6.0242,6.0691,6.0806,6.0806,6.0806,6.0806,6.0806,6.0806,6.0806,6.0806,6.0806,6.0806,6.0806,6.0806,6.0806,6.0806,6.0806,6.0441,6.0146,6.0146,6.0512,6.0806,6.0806,6.0806,6.0806,6.0806,6.0806,6.0806,6.0806,6.0806,6.0806,6.0806,6.0806,6.0806,6.0806,6.0806,6.0806,6.0806,6.0806,6.0806,6.0806,6.0806,6.0806,6.0787,5.9935,5.955,0.0,0.0,0.0,0.0,0.0,0.0,0.0,4.9496,4.9496,4.9496,4.9554,4.9629,4.9629,4.9943,5.0225,5.0225,5.0488,5.0745,5.0919,5.1486,5.2019,5.237,5.2255,5.2486,5.3371,5.3453,5.3876,5.492,5.5593,5.6324,5.7209,5.8069,5.8525,5.8525,5.9338,5.9742,5.9742,6.0454,6.0806,6.0806,6.0806,6.0806,6.0806,6.0806,6.0883,6.1056,6.1223,6.1281,6.1339,6.2037,6.2326,6.2403,6.3045,6.2474,6.1262,6.1114,6.096,6.0806,6.0806,6.0806,6.0806,6.0806,6.0806,6.0806,6.0806,6.0806,6.0806,6.0806,6.0806,6.0806,6.0806,6.0806,6.0806,6.0806,6.0806,6.0806,6.0806,6.0806,6.0806,6.0806,6.0806,6.0806,6.0806,6.0941,6.0998,6.0825,6.0806,6.0806,6.0806,6.0806,6.0806,6.0806,6.0806,6.0806,6.0806,6.0806,6.0806,6.0806,6.0806,6.0806,6.0806,6.0806,6.0806,6.0806,6.0806,6.0806,6.0806,6.0806,6.0806,6.0806,6.0806,6.0806,4.7382,4.849,4.9153,4.9385,4.9431,4.9445,0.0,4.9496,4.9496,4.9496,4.978,5.0037,5.0037,5.0358,5.0624,5.0624,5.0668,5.0957,5.1678,5.1846,5.2467,5.403,5.353,5.3395,5.426,5.4357,5.5016,5.6593,5.6805,5.7247,5.8107,5.8915,5.9377,5.9377,6.0204,6.0646,6.0646,6.0748,6.0806,6.0806,6.0806,6.0806,6.0806,6.0806,6.1229,6.1979,6.2704,6.3025,6.3025,6.3121,6.316,6.316,6.3256,6.3198,6.2929,6.223,6.146,6.0806,6.0806,6.0806,6.0806,6.0806,6.0806,6.0806,6.0806,6.0806,6.0806,6.0806,6.0806,6.0806,6.0806,6.0806,6.0806,6.0806,6.0806,6.0806,6.0806,6.0806,6.0806,6.0806,6.0806,6.0806,6.0806,6.1441,6.1691,6.0921,6.0806,6.0806,6.0806,6.0806,6.0806,6.0806,6.0806,6.0806,6.0806,6.0806,6.0806,6.0806,6.0806,6.0806,6.0806,6.0806,6.0806,6.0806,6.0806,6.0806,6.0806,6.0806,6.0806,6.0806,6.0806,6.0806,4.7818,4.8895,4.9554,4.9787,4.984,4.9917,5.0147,5.0195,5.0195,5.0195,5.0336,5.0462,5.0462,5.0594,5.0707,5.0707,5.1087,5.1524,5.1846,5.2774,5.3683,5.4414,5.4587,5.4799,5.5164,5.567,5.6247,5.6945,5.7901,5.8607,5.8973,5.98,6.0262,6.0262,6.0614,6.0806,6.0806,6.0806,6.0806,6.0806,6.0806,6.1075,6.1556,6.1556,6.2018,6.282,6.3141,6.3295,6.3333,6.3852,6.4064,6.4109,6.4628,6.4493,6.3948,6.3108,6.257,6.2243,6.2243,6.2243,6.2243,6.2243,6.2243,6.2243,6.2243,6.2243,6.2243,6.2243,6.2243,6.2243,6.2243,6.2243,6.2243,6.2243,6.2243,6.2243,6.2243,6.2243,6.2243,6.2243,6.2243,6.2243,6.2243,6.257,6.2666,6.232,6.2243,6.2243,6.2243,6.2243,6.2243,6.2243,6.2243,6.2243,6.2243,6.2243,6.2243,6.2243,6.2243,6.2243,6.2243,6.2243,6.2243,6.2243,6.2243,6.2243,6.2243,6.2243,6.2243,6.2243,6.2243,6.2243,4.8625,4.9391,4.9904,5.0189,5.0266,5.0341,5.0624,5.0707,5.0707,5.0707,5.0707,5.0707,5.0707,5.0707,5.0765,5.0996,5.1524,5.2077,5.2544,5.3703,5.4587,5.4799,5.5343,5.5785,5.6035,5.6632,5.7099,5.7343,5.8684,5.9608,5.9858,6.0454,6.0806,6.0806,6.0806,6.0806,6.0806,6.0806,6.0806,6.0806,6.0806,6.1268,6.212,6.2576,6.3108,6.366,6.391,6.4025,6.4064,6.4705,6.4955,6.5013,6.5647,6.5513,6.4878,6.4256,6.3718,6.3295,6.3295,6.3295,6.3295,6.3295,6.3295,6.3295,6.3295,6.3295,6.3295,6.3295,6.3295,6.3295,6.3295,6.3295,6.3295,6.3295,6.3295,6.3295,6.3295,6.3295,6.3295,6.3295,6.3295,6.3295,6.3295,6.3506,6.366,6.366,6.3852,6.3833,6.3352,6.3295,6.3295,6.3295,6.3295,6.3295,6.3295,6.3295,6.3295,6.3295,6.3295,6.3295,6.3295,6.3295,6.3295,6.3295,6.3295,6.3295,6.3295,6.3295,6.3295,6.3295,6.3295,6.3295,5.061,5.0649,5.0668,5.0678,5.0678,5.0678,5.0707,5.0707,5.0707,5.0707,5.0707,5.0707,5.0707,5.0707,5.0957,5.1736,5.1885,5.2486,5.4184,5.4472,5.478,5.5574,5.5689,5.6035,5.6887,5.6983,5.7343,5.8198,5.9031,5.9877,6.0723,6.0787,6.0806,6.0806,6.0806,6.0806,6.0806,6.0806,6.0806,6.0806,6.0806,6.1268,6.2153,6.3782,6.4551,6.4609,6.5455,6.582,6.582,6.5846,6.5865,6.5865,6.5878,6.5878,6.5865,6.582,6.4743,6.3295,6.3295,6.3295,6.3295,6.3295,6.3295,6.3295,6.3295,6.3295,6.3295,6.3295,6.3295,6.3295,6.3295,6.3295,6.3295,6.3295,6.3295,6.3295,6.3295,6.3295,6.3295,6.3295,6.3295,6.3295,6.3295,6.4006,6.457,6.457,6.5282,6.5205,6.3525,6.3295,6.3295,6.3295,6.3295,6.3295,6.3295,6.3295,6.3295,6.3295,6.3295,6.3295,6.3295,6.3295,6.3295,6.3295,6.3295,6.3295,6.3295,6.3295,6.3295,6.3295,6.3295,6.3295,5.0707,5.0707,5.0707,5.0707,5.0707,5.0707,5.0707,5.0707,5.0707,5.0707,5.1125,5.1505,5.1505,5.1972,5.2452,5.2717,5.3255,5.3837,5.4414,5.4953,5.5401,5.567,5.5708,5.6076,5.7046,5.7571,5.8204,5.9031,5.9877,6.0492,6.0787,6.0806,6.0806,6.0806,6.0806,6.0806,6.0806,6.0806,6.0806,6.0806,6.1935,6.2916,6.3801,6.4936,6.5455,6.5474,6.5763,6.5904,6.5904,6.5904,6.5904,6.5904,6.5904,6.5904,6.5904,6.5904,6.5532,6.5032,6.5032,6.5032,6.5032,6.5032,6.5032,6.5032,6.5032,6.5032,6.5032,6.5032,6.5032,6.5032,6.5032,6.5032,6.5032,6.5032,6.5032,6.5032,6.5032,6.5032,6.5032,6.5032,6.5032,6.5032,6.5032,6.5263,6.5491,6.558,6.5768,6.5686,6.5109,6.5032,6.5032,6.5032,6.5032,6.5032,6.5032,6.5032,6.5032,6.5032,6.5032,6.5032,6.5032,6.5032,6.5032,6.5032,6.5032,6.5032,6.5032,6.5032,6.5032,6.5032,6.5032,6.5301,5.0707,5.0735,5.076,5.076,5.0805,5.0844,5.0844,5.0844,5.0844,5.0844,5.1477,5.2038,5.2038,5.2757,5.3438,5.3767,5.4289,5.4749,5.5058,5.5541,5.5889,5.5889,5.5889,5.6375,5.7624,5.8161,5.8766,5.9545,6.0344,6.0806,6.0806,6.0806,6.0806,6.0806,6.0806,6.0806,6.0806,6.0806,6.096,6.1287,6.2647,6.3756,6.4628,6.5558,6.5976,6.5982,6.6049,6.6072,6.6072,6.6072,6.6033,6.5976,6.5976,6.5944,6.5904,6.5904,6.5904,6.5904,6.5904,6.5904,6.5904,6.5904,6.5904,6.5904,6.5904,6.5904,6.5904,6.5904,6.5904,6.5904,6.5904,6.5904,6.5904,6.5904,6.5904,6.5904,6.5904,6.5904,6.5916,6.5953,6.5976,6.5991,6.6076,6.6072,6.6114,6.6198,6.6124,6.6072,6.6072,6.6072,6.6072,6.6072,6.6072,6.6072,6.6072,6.6072,6.6072,6.6072,6.6072,6.6049,6.5963,6.5976,6.5943,6.5904,6.5904,6.5921,6.5976,6.6272,6.6445,6.6439,6.6754,6.7138,5.0726,5.0814,5.0903,5.0903,5.101,5.1091,5.1091,5.1091,5.1091,5.1091,5.1777,5.2363,5.2363,5.313,5.4006,5.484,5.4973,5.5265,5.6077,5.6194,5.6194,5.6194,5.6194,5.6858,5.856,5.871,5.9034,5.9835,6.0474,6.0833,6.0833,6.0833,6.0833,6.0833,6.0833,6.0833,6.0833,6.0833,6.1276,6.2205,6.2964,6.3811,6.4728,6.5687,6.6128,6.6122,6.6312,6.6406,6.6406,6.6406,6.6283,6.6128,6.6128,6.6032,6.5934,6.5934,6.5934,6.5934,6.5934,6.591,6.5904,6.5904,6.5904,6.5904,6.5904,6.5904,6.5904,6.5904,6.5904,6.5904,6.5904,6.5904,6.5904,6.5904,6.5916,6.591,6.591,6.5922,6.5967,6.608,6.6128,6.6181,6.6377,6.6416,6.6399,6.6399,6.6428,6.6425,6.6409,6.6406,6.6406,6.6406,6.6406,6.6406,6.6406,6.6406,6.6406,6.6406,6.6406,6.6309,6.6118,6.6119,6.6077,6.5998,6.5973,6.6065,6.6249,6.7072,6.7479,6.7503,6.8331,6.8634,5.1,5.103,5.1059,5.1059,5.1066,5.1091,5.1091,5.1091,5.1091,5.1091,5.2261,5.3273,5.3273,5.4501,5.5613,5.5824,5.5863,5.5941,5.6175,5.6194,5.6194,5.6194,5.6194,5.6897,5.8678,5.8766,5.9357,6.0958,6.112,6.117,6.117,6.117,6.117,6.117,6.117,6.117,6.117,6.117,6.1911,6.3371,6.3561,6.4474,6.5953,6.622,6.632,6.6323,6.6387,6.6406,6.6406,6.6406,6.6361,6.632,6.632,6.6306,6.626,6.626,6.626,6.626,6.626,6.6104,6.5904,6.5904,6.5904,6.5904,6.5904,6.5904,6.5904,6.5904,6.5904,6.5904,6.5904,6.5904,6.5904,6.5904,6.5988,6.6049,6.6049,6.616,6.6276,6.6328,6.632,6.6334,6.6381,6.6481,6.6541,6.6541,6.6675,6.6671,6.644,6.6406,6.6406,6.6406,6.6406,6.6406,6.6406,6.6406,6.6406,6.6406,6.6406,6.6387,6.632,6.6185,6.6464,6.7223,6.7096,6.7396,6.8184,6.8417,6.8515,6.8511,6.8748,6.9166,5.1091,5.1114,5.1131,5.1131,5.1182,5.1227,5.1227,5.1227,5.1227,5.1227,5.2593,5.3783,5.3783,5.5207,5.6379,5.6379,5.6379,5.6379,5.6379,5.6379,5.6379,5.6379,5.6379,5.7078,5.8868,5.896,5.9656,6.1445,6.1418,6.1306,6.1306,6.1306,6.1306,6.1306,6.1306,6.1306,6.1306,6.1306,6.1948,6.3229,6.3621,6.4516,6.5842,6.6282,6.6486,6.6491,0.0,6.6619,6.6619,6.6619,6.6574,6.6486,6.6486,6.6449,6.6406,6.6406,6.6406,6.6406,6.6406,6.6287,6.6119,6.6119,6.6119,6.6119,6.6119,6.6119,6.6119,6.6119,6.6119,6.6119,6.6119,6.6119,6.6119,6.6119,6.6169,6.6224,6.6224,6.6316,6.6428,6.6476,6.6568,6.6619,6.6619,6.6677,6.6738,6.6738,6.6832,6.6831,6.6632,6.6619,6.6619,6.6619,6.6619,6.6619,6.6619,6.6972,6.7186,6.7186,6.7559,6.7715,6.7623,6.7524,6.77,6.8209,6.8112,6.8386,6.9031,6.9424,6.9597,6.9614,6.9964,7.0358,5.1139,5.1185,5.1234,5.1234,5.1319,5.1406,5.1406,5.1406,5.1406,5.1406,5.2793,5.4004,5.4004,5.543,5.6601,5.6601,5.6601,5.6601,5.6601,5.6601,5.6601,5.6601,5.6601,5.7285,5.9023,5.9199,5.9902,6.1562,6.1474,6.1344,6.1344,6.1344,6.1344,6.1344,6.1344,6.1344,6.1344,6.1344,6.1753,6.2585,6.3447,6.4324,6.52,6.6188,6.6632,6.6655,6.6812,6.6894,6.6894,6.6894,6.6809,6.6632,6.6632,6.6565,6.6471,6.6471,6.6471,6.6471,6.6471,6.6471,6.6463,6.6402,6.6406,6.6406,6.6406,6.6406,6.6406,6.6406,6.6406,6.6406,6.6406,6.6406,6.6406,6.6406,6.6406,6.6421,6.6421,6.6455,6.6505,6.6619,6.6787,6.6894,6.6894,6.6894,6.6894,6.6894,6.6894,6.6933,6.7051,6.6972,6.6933,6.7051,6.707,6.7129,6.7246,6.793,6.8359,6.8359,6.9082,6.9429,6.9253,6.9203,6.9184,6.9137,6.9114,6.9251,6.9564,7.0325,7.0695,7.071,7.1414,7.1683,5.1342,5.1364,5.1366,5.1366,5.1386,5.1406,5.1406,5.1406,5.1406,5.1406,5.2793,5.4004,5.4004,5.543,5.6601,5.6601,5.6601,5.6601,5.6601,5.6601,5.6601,5.6601,5.6601,5.7285,5.9023,5.9199,5.9902,6.1562,6.1657,6.1633,6.1633,6.1633,6.1633,6.1633,6.1633,6.1633,6.1633,6.1633,6.2063,6.2922,6.3801,6.466,6.5539,6.6442,6.6853,6.6854,6.6875,0.0,6.6894,6.6894,6.6875,6.6853,6.6853,6.6832,6.6808,6.6808,6.6808,6.6808,6.6808,6.6808,6.6779,6.649,6.6406,6.6406,6.6406,6.6406,6.6406,6.6406,6.6406,6.6406,6.6406,6.6406,6.6406,6.6406,6.6483,6.6572,6.6572,6.6704,6.681,6.6833,6.6874,6.6894,6.6894,6.6894,6.6894,6.6894,6.6894,6.7168,6.7871,6.7344,6.7187,6.789,6.7969,6.8262,6.8984,6.914,6.9199,6.9199,6.9394,6.9472,6.9451,6.9286,6.9571,7.0363,7.0285,7.0642,7.1502,7.1678,7.1736,7.1736,7.1873,7.1949,5.1406,5.1406,5.1406,5.1406,5.1406,5.1406,5.1406,5.1406,5.1406,5.1406,5.2793,5.4004,5.4004,5.543,5.6601,5.6601,5.6601,5.6601,5.6601,5.6601,5.6601,5.6601,5.6601,5.7109,5.8398,5.8926,5.9707,6.0937,6.1445,6.1699,6.1699,6.1699,6.1699,6.1699,6.1699,6.1699,6.1699,6.1699,6.1914,6.2324,6.3203,6.4082,6.4941,6.582,6.6465,6.6894,6.6894,6.6894,6.6894,6.6894,6.6894,6.6894,6.6894,6.6894,6.6894,6.6894,6.6894,6.6894,6.6894,6.6894,6.6874,6.6702,6.6661,6.6661,6.6661,6.6661,6.6661,6.6661,6.6661,6.6661,6.6661,6.6661,6.6661,6.6661,6.6706,6.6763,6.6763,6.6833,6.6894,6.6894,6.6894,6.6894,6.6894,6.6894,6.6894,6.6894,6.7285,6.7734,6.8144,6.8222,6.8398,6.8789,6.8828,6.9004,6.9453,6.9844,7.0078,7.0078,7.0527,7.0801,7.0801,7.0717,7.0872,7.1367,7.1302,7.1517,7.1992,7.1992,7.1992,7.1992,7.1992,7.1992,5.1406,5.1406,5.1406,5.1406,5.1406,5.1406,5.1406,5.1406,5.1406,5.1406,5.2793,5.4004,5.4004,5.543,5.6601,5.6601,5.6601,5.6601,5.6601,5.6601,5.6601,5.6601,5.6601,5.6933,5.7812,5.8691,5.9531,6.0332,6.1211,6.1699,6.1699,6.1699,6.1699,6.1699,6.1699,6.1699,6.1699,6.1699,6.1699,6.1719,6.2578,6.3359,6.4062,6.5117,6.5976,6.6621,6.6816,6.6894,6.6894,6.6894,6.6894,6.6894,6.6894,6.6894,6.6894,6.6894,6.6894,6.6894,6.6894,6.6894,6.6894,6.6894,6.6894,6.6894,6.6894,6.6894,6.6894,6.6894,6.6894,6.6894,6.6894,6.6894,6.6894,6.6894,6.6894,6.6894,6.6894,6.6894,6.6894,6.6894,6.6894,6.6894,6.6894,6.6894,6.6953,6.7148,6.7754,6.832,6.8691,6.9336,6.9805,6.9941,6.9785,6.9785,7.0019,7.0625,7.0976,7.0976,7.1621,7.1992,7.1992,7.1992,7.1992,7.1992,7.1992,7.1992,7.1992,7.1992,7.1992,7.1992,7.1992,7.1992,5.1406,5.1406,5.1406,5.1406,5.1406,5.1406,5.1406,5.1406,5.1406,5.1406,5.2793,5.4004,5.4004,5.543,5.6601,5.6601,5.6601,5.6601,5.6601,5.6601,5.6601,5.6601,5.6601,5.6933,5.7812,5.8691,5.9531,6.0332,6.1211,6.1699,6.1699,6.1699,6.1699,6.1699,6.1699,6.1699,6.1699,6.1699,6.1699,6.1719,6.2578,6.3047,6.3183,6.4844,6.5644,6.5762,6.6562,6.6894,0.0,6.6894,6.6894,6.6894,6.6894,6.6894,6.6894,6.6894,6.6894,6.6894,6.6894,6.6894,6.6894,6.6894,6.6894,6.6894,6.6894,6.6894,6.6894,6.6894,6.6894,6.6894,6.6894,6.6894,6.6894,6.6894,6.6894,6.6894,6.6894,6.6894,6.6894,6.6894,6.6894,6.6894,6.6894,6.6894,6.7168,6.7969,6.8144,6.875,7.0273,7.0547,7.0898,7.168,7.1055,7.0898,7.1699,7.1836,7.1875,7.1875,7.1953,7.1992,7.1992,7.1992,7.1992,7.1992,7.1992,7.1992,7.1992,7.1992,7.1992,7.1992,7.1992,7.1992,5.1406,5.1406,5.1406,5.1406,5.1406,5.1406,5.1406,5.1406,5.1406,5.1406,5.2793,5.4004,5.4004,5.543,5.6601,5.6601,5.6601,5.6601,5.6601,5.6601,5.6601,5.6601,5.6601,5.6738,5.707,5.8379,5.9746,6.1074,6.1504,6.1699,6.1699,6.1699,6.1699,6.1699,6.1699,6.1699,6.1699,6.1699,6.1699,6.1699,6.2051,6.248,6.3027,6.3711,6.4609,6.5625,6.5976,6.6426,0.0,6.6894,6.6894,6.6894,6.6894,6.6894,6.6894,6.6894,6.6894,6.6894,6.6894,6.6894,6.6894,6.6894,6.6894,6.6894,6.6894,6.6894,6.6894,6.6894,6.6894,6.6894,6.6894,6.6894,6.6894,6.6894,6.6894,6.6894,6.6894,6.6894,6.6894,6.6894,6.6894,6.6894,6.6894,6.7344,6.7793,6.8144,6.9062,6.9941,7.0605,7.1152,7.1621,7.1953,7.1699,7.1621,7.1972,7.1992,7.1992,7.1992,7.1992,7.1992,7.1992,7.1992,7.1992,7.1992,7.1992,7.1992,7.1992,7.1992,7.1992,7.1992,7.1992,7.1992,5.1348,5.1406,5.1406,5.1406,5.1406,5.1406,5.1406,5.1406,5.1406,5.1406,5.2793,5.4004,5.4004,5.543,5.6601,5.6601,5.6601,5.6601,5.6601,5.6601,5.6601,5.6601,5.6601,5.6601,5.6601,5.8183,5.9902,6.1562,6.1699,6.1699,6.1699,6.1699,6.1699,6.1699,6.1699,6.1699,6.1699,6.1699,6.1699,6.1699,6.1699,6.2012,6.2617,6.2871,6.3808,6.5234,6.5488,6.6094,0.0,6.6894,6.6894,6.6894,6.6894,6.6894,6.6894,6.6894,6.6894,6.6894,6.6894,6.6894,6.6894,6.6894,6.6894,6.6894,6.6894,6.6894,6.6894,6.6894,6.6894,6.6894,6.6894,6.6894,6.6894,6.6894,6.6894,6.6894,6.6894,6.6894,6.6894,6.6894,6.6894,6.6972,6.7246,6.7793,6.8379,6.8867,6.9941,7.0781,7.1055,7.1621,7.1992,7.1992,7.1992,7.1992,7.1992,7.1992,7.1992,7.1992,7.1992,7.1992,7.1992,7.1992,7.1992,7.1992,7.1992,7.1992,7.1992,7.1992,7.1992,7.1992,7.1992,7.1992,5.1172,5.1406,5.1406,5.1406,5.1406,5.1406,5.1406,5.1406,5.1406,5.1406,5.2793,5.4004,5.4004,5.543,5.6601,5.6601,5.6601,5.6601,5.6601,5.6601,5.6601,5.6601,5.6601,5.6601,5.6601,5.8183,5.9902,6.1562,6.1699,6.1699,6.1699,6.1699,6.1699,6.1699,6.1699,6.1699,6.1699,6.1699,6.1699,6.1699,6.1699,6.1699,6.1738,6.2617,6.3476,6.4355,6.5234,6.6094,0.0,6.6894,6.6894,6.6894,6.6894,6.6894,6.6894,6.6894,6.6894,6.6894,6.6894,6.6894,6.6894,6.6894,6.6894,6.6894,6.6894,6.6894,6.6894,6.6894,6.6894,6.6894,6.6894,6.6894,6.6894,6.6894,6.6894,6.6894,6.6894,6.6894,6.6894,6.6894,6.6894,6.7168,6.8047,6.8183,6.8769,7.043,7.0683,7.1015,7.1875,7.1992,7.1992,7.1992,7.1992,7.1992,7.1992,7.1992,7.1992,7.1992,7.1992,7.1992,7.1992,7.1992,7.1992,7.1992,7.1992,7.1992,7.1992,7.1992,7.1992,7.1992,7.1992,7.1992,5.1172,5.1406,5.1386,5.1293,5.1267,5.1258,5.1211,5.1239,5.1267,5.1267,5.273,5.4004,5.4004,5.543,5.6601,5.6601,5.6601,5.6601,5.6601,5.6601,5.6601,5.6601,5.6601,5.707,5.8262,5.8887,5.9902,6.1562,6.1699,6.1699,6.1699,6.1699,6.1699,6.1699,6.1699,6.1699,6.1699,6.1699,6.1699,6.1699,6.1699,6.1699,6.1719,6.1992,6.2598,6.3457,6.4336,6.5215,6.6055,6.664,6.6894,6.6894,6.6894,6.6894,6.6894,6.6894,6.6894,6.6894,6.6894,6.6894,6.6894,6.6894,6.6894,6.6894,6.6894,6.6894,6.6894,6.6894,6.6894,6.6894,6.6894,6.6894,6.6894,6.6894,6.6894,6.6894,6.6894,6.6894,6.6894,6.6894,6.7383,6.7871,6.8144,6.914,7.0097,7.0625,7.1211,7.1699,7.1953,7.1992,7.1992,7.1992,7.1992,7.1992,7.1992,7.1992,7.1992,7.1992,7.1992,7.1992,7.1992,7.1992,7.1992,7.1992,7.1992,7.1992,7.1992,7.1992,7.1992,7.1992,7.1992,7.1992,5.1172,5.1406,5.1366,5.1236,5.1202,5.1184,5.1122,5.1144,5.1195,5.1164,5.2368,5.3529,5.3861,5.5042,5.6096,5.6523,5.6514,5.6486,5.6582,5.656,5.6538,5.6582,5.6601,5.7168,5.8574,5.9004,5.9765,6.1113,6.1504,6.1699,6.1699,6.1699,6.1699,6.1699,6.1699,6.1699,6.1699,6.1699,6.1699,6.1699,6.1699,6.1699,6.1699,6.1699,6.2187,6.3027,6.3574,6.4492,0.0,6.6191,6.6601,6.6894,6.6894,6.6894,6.6894,6.6894,6.6894,6.6894,6.6894,6.6894,6.6894,6.6894,6.6894,6.6894,6.6894,6.6894,6.6894,6.6894,6.6894,6.6894,6.6894,6.6894,6.6894,6.6894,6.6894,6.6894,6.6894,6.6894,6.6992,6.7324,6.7832,6.8398,6.9023,7.0019,7.0801,7.1133,7.164,7.1992,7.1992,7.1992,7.1992,7.1992,7.1992,7.1992,7.1992,7.1992,7.1992,7.1992,7.1992,7.1992,7.1992,7.1992,7.1992,7.1992,7.1992,7.1992,7.1992,7.1992,7.1992,7.1992,7.1992,7.1992,0.0,5.1406,5.1366,5.1232,5.1195,5.1175,5.1108,5.1127,0.0,5.1115,5.1844,5.276,5.3639,5.4408,5.5264,5.638,5.635,5.6295,5.6538,5.6462,5.6452,5.6561,5.6582,5.6933,5.7812,5.8691,5.9531,6.0332,6.1211,6.1699,6.1699,6.1699,6.1699,6.1699,6.1699,6.1699,6.1699,6.1699,6.1699,6.1699,6.1699,6.1699,6.1699,6.1699,6.2148,6.291,6.2969,6.3926,6.543,6.5547,6.6074,6.6816,6.6875,6.6894,6.6894,6.6894,6.6894,6.6894,6.6894,6.6894,6.6894,6.6894,6.6894,6.6894,6.6894,6.6894,6.6894,6.6894,6.6894,6.6894,6.6894,6.6894,6.6894,6.6894,6.6894,6.6914,6.6972,6.6992,6.7246,6.8125,6.834,6.8867,7.043,7.0742,7.1074,7.1875,7.1992,7.1992,7.1992,7.1992,7.1992,7.1992,7.1992,7.1992,7.1992,7.1992,7.1992,7.1992,7.1992,7.1992,7.1992,7.1992,7.1992,7.1992,7.1992,7.1992,7.1992,7.1992,7.1992,7.1992,7.1992,7.1992,5.1172,0.0,5.1363,5.1163,5.1116,5.1084,0.0,5.0969,5.1002,5.1076,5.1762,5.2602,5.3496,5.4332,5.5208,5.6137,5.6235,5.6215,5.6295,5.6365,5.6416,5.643,5.6538,5.6933,5.7812,5.8691,5.9531,6.0332,6.1211,6.1699,6.1699,6.1699,6.1699,6.1699,6.1699,6.1699,6.1699,6.1699,6.1699,6.1699,6.1699,6.1699,6.1699,6.1699,6.1816,6.2031,6.2715,6.3223,6.3711,6.5058,6.5723,6.5976,6.664,6.6894,6.6894,6.6894,6.6894,6.6894,6.6894,6.6894,6.6894,6.6894,6.6894,6.6894,6.6894,6.6894,6.6894,6.6894,6.6894,6.6894,6.6894,6.6894,6.6894,6.6894,6.6894,6.707,6.7754,6.789,6.8144,6.8965,6.9668,7.0234,7.0625,7.125,7.1758,7.1972,7.1992,7.1992,7.1992,7.1992,7.1992,7.1992,7.1992,7.1992,7.1992,7.1992,7.1992,7.1992,7.1992,7.1992,7.1992,7.1992,7.1992,7.1992,7.1992,7.1992,7.1992,7.1992,7.1992,7.1992,7.1992,7.1992,5.1269,5.1406,5.1342,5.1152,5.1091,5.1055,5.0932,5.0956,5.0994,5.101,5.14,5.2107,5.3284,5.3846,5.4583,5.5978,5.6068,5.5986,5.6051,5.6195,5.6311,5.6311,5.6376,5.6627,5.7155,5.8328,5.9271,5.9805,6.0996,6.1699,6.1699,6.1699,6.1699,6.1699,6.1699,6.1699,6.1699,6.1699,6.1699,6.1699,6.1699,6.1699,6.1699,6.1699,6.1699,6.1738,6.2207,6.2637,6.3105,6.4453,6.5234,6.5683,6.6562,6.6894,6.6894,6.6894,6.6894,6.6894,6.6894,6.6894,6.6894,6.6894,6.6894,6.6894,6.6894,6.6894,6.6894,6.6894,6.6894,6.6894,6.6894,6.6894,6.6894,6.6894,6.7207,6.7637,6.8105,6.8496,6.9004,6.9824,7.0371,7.082,7.123,7.1699,7.1992,7.1992,7.1992,7.1992,7.1992,7.1992,7.1992,7.1992,7.1992,7.1992,7.1992,7.1992,7.1992,7.1992,7.1992,7.1992,7.1992,7.1992,7.1992,7.1992,7.1992,7.1992,7.1992,7.1992,7.1992,7.1992,7.1992,7.1992,5.1344,5.1366,5.1338,5.1148,5.1091,5.1055,5.0932,5.0988,5.1045,5.0921,5.0969,5.1511,5.3073,5.3281,5.3831,5.5806,5.5898,5.5748,5.584,5.6031,5.6158,5.6158,5.6178,5.6237,5.6366,5.7791,5.8836,5.9139,6.0605,6.1562,6.1699,6.1699,6.1699,6.1699,6.1699,6.1699,6.1699,6.1699,6.1699,6.1699,6.1699,6.1699,6.1699,6.1699,6.1699,6.1699,0.0,0.0,6.2871,6.373,6.4629,6.5488,6.6367,6.6777,6.6894,6.6894,6.6894,6.6894,6.6894,6.6894,6.6894,6.6894,6.6894,6.6894,6.6894,6.6894,6.6894,6.6894,6.6894,6.6894,6.6894,6.6894,6.6933,6.707,6.7656,6.8262,6.8535,6.9121,6.9863,7.0722,7.0898,7.1133,7.1875,7.1992,7.1992,7.1992,7.1992,7.1992,7.1992,7.1992,7.1992,7.1992,7.1992,7.1992,7.1992,7.1992,7.1992,7.1992,7.1992,7.1992,7.1992,7.1992,7.1992,7.1992,7.1992,7.1992,7.1992,7.1992,7.1992,7.1992,7.1992,7.1992,5.1264,5.1235,5.1218,5.1129,5.1091,5.1055,5.0932,5.0911,5.0925,5.0896,5.0835,5.1273,5.2926,5.3209,5.3767,5.5489,5.5722,5.57,5.5728,5.5851,5.5947,5.5947,5.609,5.6202,5.6222,5.7228,5.8174,5.8887,5.9975,6.0918,6.166,6.1699,6.1699,6.1699,6.1699,6.1699,6.1699,6.1699,6.1699,6.1699,6.1699,6.1699,6.1699,6.1699,6.1699,6.1699,0.0,6.1777,6.1973,6.2832,6.3711,6.459,6.5469,6.625,6.6894,6.6894,6.6894,6.6894,6.6894,6.6894,6.6894,6.6894,6.6894,6.6894,6.6894,6.6894,6.6894,6.6894,6.6894,6.6894,6.6894,6.6894,6.709,6.7832,6.8105,6.8594,7.0019,7.041,7.0762,7.1621,7.1797,7.1836,7.1972,7.1992,7.1992,7.1992,7.1992,7.1992,7.1992,7.1992,7.1992,7.1992,7.1992,7.1992,7.1992,7.1992,7.1992,7.1992,7.1992,7.1992,7.1992,7.1992,7.1992,7.1992,7.1992,7.1992,7.1992,7.1992,7.1992,7.1992,7.1992,7.1992,5.1165,5.1042,5.094,5.0988,5.0991,5.0972,5.0911,5.0908,5.0908,5.0908,5.0855,5.1303,5.2901,5.3197,5.376,5.5439,5.5708,5.5708,5.5708,5.5754,5.5789,5.5789,5.5874,5.5963,5.6031,5.6876,5.7839,5.8828,5.9758,6.0695,6.164,6.1699,6.1699,6.1699,6.1699,6.1699,6.1699,6.1699,6.1699,6.1699,6.1699,6.1699,6.1699,6.1699,6.1699,6.1699,0.0,6.1699,6.1777,6.2637,6.3242,6.373,6.5078,6.584,6.625,6.6738,6.6894,6.6894,6.6894,6.6894,6.6894,6.6894,6.6894,6.6894,6.6894,6.6894,6.6894,6.6894,6.6894,6.6894,6.6894,6.6894,6.7129,6.7988,6.8555,6.9238,7.0449,7.1074,7.1523,7.1914,7.1992,7.1992,7.1992,7.1992,7.1992,7.1992,7.1992,7.1992,7.1992,7.1992,7.1992,7.1992,7.1992,7.1992,7.1992,7.1992,7.1992,7.1992,7.1992,7.1992,7.1992,7.1992,7.1992,7.1992,7.1992,7.1992,7.1992,7.1992,7.1992,7.1992,7.1992,7.1992,5.1053,5.0893,5.0766,5.0851,5.0875,5.0897,5.0867,5.0875,5.0897,5.0867,5.0859,5.1324,5.2911,5.353,5.4203,5.5497,5.5708,5.5708,5.5708,5.5708,5.5708,5.5708,5.5708,5.5729,5.5842,5.648,5.742,5.8719,5.9477,6.0418,6.1597,6.1679,6.1699,6.1699,6.1699,6.1699,6.1699,6.1699,6.1699,6.1699,6.1699,6.1699,6.1699,6.1699,6.1699,6.1699,6.1699,6.1699,6.1758,6.2422,6.2812,6.3125,6.4473,6.5234,6.5703,6.6582,6.6894,6.6894,6.6894,6.6894,6.6894,6.6894,6.6894,6.6894,6.6894,6.6894,6.6894,6.6894,6.6894,6.6894,6.6894,6.6894,6.7168,6.8222,6.9004,6.9785,7.0781,7.1523,7.1992,7.1992,7.1992,7.1992,7.1992,7.1992,7.1992,7.1992,7.1992,7.1992,7.1992,7.1992,7.1992,7.1992,7.1992,7.1992,7.1992,7.1992,7.1992,7.1992,7.1992,7.1992,7.1992,7.1992,7.1992,7.1992,7.1992,7.1992,7.1992,7.1992,7.1992,7.1992,7.1992,7.1992,5.0956,5.0908,5.0867,5.073,5.0805,5.0879,5.073,5.081,5.0856,5.0744,5.0717,5.1227,5.2895,5.4472,5.5555,5.5689,5.5708,5.5708,5.5708,5.5708,5.5708,5.5708,5.5708,5.5695,5.5716,5.5873,5.6695,5.8401,5.8827,5.9732,6.1413,6.1634,6.1699,6.1699,6.1699,6.1699,6.1699,6.1699,6.1699,6.1699,6.1699,6.1699,6.1699,6.1699,6.1699,6.1699,6.1699,6.1699,6.1699,6.1777,6.2265,6.3008,6.3144,6.418,6.5703,6.6582,6.6894,6.6894,6.6894,6.6894,6.6894,6.6894,6.6894,6.6894,6.6894,6.6894,6.6894,6.6894,6.6894,6.6894,6.6894,6.6894,6.7305,6.8926,6.9414,6.9941,7.1562,7.1953,7.1992,7.1992,7.1992,7.1992,7.1992,7.1992,7.1992,7.1992,7.1992,7.1992,7.1992,7.1992,7.1992,7.1992,7.1992,7.1992,7.1992,7.1992,7.1992,7.1992,7.1992,7.1992,7.1992,7.1992,7.1992,7.1992,7.1992,7.1992,7.1992,7.1992,7.1992,7.1992,7.1992,7.1992,5.081,5.0788,5.0766,5.0712,5.074,5.0766,5.0712,5.0744,5.0761,5.0707,5.1106,5.1972,5.3683,5.4934,5.5708,5.5708,5.5708,5.5708,5.5708,5.5708,5.5708,5.5708,5.5708,5.5708,5.5708,5.5744,5.6314,5.7593,5.8288,5.9202,6.0497,6.1214,6.1579,6.1579,6.1657,6.1699,6.1699,6.1699,6.1699,6.1699,6.1699,6.1699,6.1699,6.1699,6.1699,6.1699,6.1699,6.1699,6.1699,6.1699,6.1894,6.2305,6.3398,6.4531,6.5703,6.6582,6.6894,6.6894,6.6894,6.6894,6.6894,6.6894,6.6894,6.6894,6.6894,6.6894,6.6894,6.6894,6.6894,6.6894,6.6894,6.7305,6.7988,6.9121,6.9824,7.0566,7.1758,7.1992,7.1992,7.1992,7.1992,7.1992,7.1992,7.1992,7.1992,7.1992,7.1992,7.1992,7.1992,7.1992,7.1992,7.1992,7.1992,7.1992,7.1992,7.1992,7.1992,7.1992,7.1992,7.1992,7.1992,7.1992,7.1992,7.1992,7.1992,7.1992,7.1992,7.1992,7.1992,7.1992,7.1992,7.1992,5.0716,5.0707,5.0707,5.0707,5.0707,5.0707,5.0707,5.0707,5.0707,5.0707,5.1568,5.2755,5.4222,5.517,5.5708,5.5708,5.5708,5.5708,5.5708,5.5708,5.5708,5.5708,5.5708,5.5708,5.5708,5.5708,5.61,5.7055,5.799,5.8929,5.9896,6.0894,6.1455,6.1502,6.1583,6.1657,6.1699,6.1699,6.1699,6.1699,6.1699,6.1699,6.1699,6.1699,6.1699,6.1699,6.1699,6.1699,6.1699,6.1699,6.1699,6.1855,6.332,6.4414,6.5293,6.6172,6.666,6.6894,6.6894,6.6894,6.6894,6.6894,6.6894,6.6894,6.6894,6.6894,6.6894,6.6894,6.6894,6.6894,6.6894,6.7558,6.8398,6.9219,7.0078,7.0937,7.1816,7.1992,7.1992,7.1992,7.1992,7.1992,7.1992,7.1992,7.1992,7.1992,7.1992,7.1992,7.1992,7.1992,7.1992,7.1992,7.1992,7.1992,7.1992,7.1992,7.1992,7.1992,7.1992,7.1992,7.1992,7.1992,7.1992,7.1992,7.1992,7.1992,7.1992,7.1992,7.1992,7.1992,7.1992,7.1992,5.0707,5.0707,5.0707,5.0707,5.0707,5.0707,5.0707,5.0707,5.0707,5.0726,5.2049,5.3491,5.4357,5.517,5.5708,5.5708,5.5708,5.5708,5.5708,5.5708,5.5708,5.5708,5.5708,5.5708,5.5708,5.5708,5.6055,5.6926,5.793,5.8875,5.9743,6.075,6.1352,6.1499,6.1502,6.1554,6.1699,6.1699,6.1699,6.1699,6.1699,6.1699,6.1699,6.1699,6.1699,6.1699,6.1699,6.1699,6.1699,6.1699,6.1699,6.1797,6.2656,6.3535,6.4414,6.5273,6.6152,6.6894,6.6894,6.6894,6.6894,6.6894,6.6894,6.6894,6.6894,6.6894,6.6894,6.6894,6.6894,6.6894,6.6894,6.7558,6.8418,6.9219,7.0078,7.0957,7.1816,7.1992,7.1992,7.1992,7.1992,7.1992,7.1992,7.1992,7.1992,7.1992,7.1992,7.1992,7.1992,7.1992,7.1992,7.1992,7.1992,7.1992,7.1992,7.1992,7.1992,7.1992,7.1992,7.1992,7.1992,7.1992,7.1992,7.1992,7.1992,7.1992,7.1992,7.1992,7.1992,7.1992,7.1992,7.1992,5.0707,5.0707,5.0707,5.0707,5.0707,5.0707,5.0707,5.0707,5.1034,5.2222,5.3337,5.4376,5.5184,5.5535,5.5708,5.5708,5.5708,5.5708,5.5708,5.5708,5.5708,5.5708,5.5708,5.5708,5.5708,5.5708,5.5805,5.6074,5.7501,5.8468,5.8738,6.0244,6.1167,6.1347,6.1451,6.1554,6.1699,6.1699,6.1699,6.1699,6.1699,6.1699,6.1699,6.1699,6.1699,6.1699,6.1699,6.1699,6.1699,6.1699,6.1699,6.1797,6.2656,6.3535,6.4414,6.5273,6.6152,6.6894,6.6894,6.6894,6.6894,6.6894,6.6894,6.6894,6.6894,6.6894,6.6894,6.6894,6.6894,6.6894,6.6894,6.7969,6.9121,6.9394,7.0566,7.1699,7.1933,7.1992,7.1992,7.1992,7.1992,7.1992,7.1992,7.1992,7.1992,7.1992,7.1992,7.1992,7.1992,7.1992,7.1992,7.1992,7.1992,7.1992,7.1992,7.1992,7.1992,7.1992,7.1992,7.1992,7.1992,7.1992,7.1992,7.1992,7.1992,7.1992,7.1992,7.1992,7.1992,7.1992,7.1992,7.1992,5.0707,5.0707,5.0707,5.0707,5.0707,5.0784,5.1106,5.1183,5.1568,5.2909,5.3895,5.4741,5.5555,5.5708,5.5708,5.5708,5.5708,5.5708,5.5708,5.5708,5.5708,5.5708,5.5708,5.5708,5.5708,5.5708,5.5708,5.5708,5.6992,5.7934,5.8275,5.9642,6.0637,6.116,6.1344,6.1474,6.1612,6.1678,6.1699,6.1699,6.1699,6.1699,6.1699,6.1699,6.1699,6.1699,6.1699,6.1699,6.1699,6.1699,6.1699,6.1758,6.2285,6.3223,6.4355,6.4883,6.5859,6.6894,6.6894,6.6894,6.6894,6.6894,6.6894,6.6894,6.6894,6.6894,6.6894,6.6894,6.6894,6.6894,6.6894,6.8144,6.9414,6.9472,7.0781,7.1992,7.1992,7.1992,7.1992,7.1992,7.1992,7.1992,7.1992,7.1992,7.1992,7.1992,7.1992,7.1992,7.1992,7.1992,7.1992,7.1992,7.1992,7.1992,7.1992,7.1992,7.1992,7.1992,7.1992,7.1992,7.1992,7.1992,7.1992,7.1992,7.1992,7.1992,7.1992,7.1992,7.1992,7.1992,7.1992,7.1992,5.0707,5.0707,5.0707,5.0707,5.0765,5.0996,5.1736,5.2019,5.237,5.3159,5.401,5.4818,5.5574,5.5708,5.5708,5.5708,5.5708,5.5708,5.5708,5.5708,5.5708,5.5708,5.5708,5.5708,5.5708,5.5708,5.5708,5.5708,5.6516,5.7382,5.8256,5.9069,5.9957,6.0973,6.1183,6.1344,6.1502,6.1612,6.1699,6.1699,6.1699,6.1699,6.1699,6.1699,6.1699,6.1699,6.1699,6.1699,6.1699,6.1699,6.1699,6.1699,6.1699,6.2715,6.4199,6.4277,6.5351,6.6797,6.6875,6.6894,6.6894,6.6894,6.6894,6.6894,6.6894,6.6894,6.6894,6.6894,6.6894,6.6894,6.6894,6.8144,6.9414,6.9472,7.0781,7.1992,7.1992,7.1992,7.1992,7.1992,7.1992,7.1992,7.1992,7.1992,7.1992,7.1992,7.1992,7.1992,7.1992,7.1992,7.1992,7.1992,7.1992,7.1992,7.1992,7.1992,7.1992,7.1992,7.1992,7.1992,7.1992,7.1992,7.1992,7.1992,7.1992,7.1992,7.1992,7.1992,7.1992,7.1992,7.1992,7.1992,5.0707,5.0707,5.0707,5.0707,5.1164,5.1697,5.1865,5.2967,5.3991,5.4184,5.4876,5.5497,5.567,5.5708,5.5708,5.5708,5.5708,5.5708,5.5708,5.5708,5.5708,5.5708,5.5708,5.5708,5.5708,5.5708,5.5708,5.5708,5.6516,5.7382,5.8256,5.9069,5.9957,6.0973,6.1048,6.1198,6.1502,6.1538,6.1605,6.1699,6.1699,6.1699,6.1699,6.1699,6.1699,6.1699,6.1699,6.1699,6.1699,6.1699,6.1699,6.1699,6.1699,6.2344,6.3359,6.4043,6.4961,6.5976,6.666,6.6894,6.6894,6.6894,6.6894,6.6894,6.6894,6.6894,6.6894,6.6894,6.6894,6.6894,6.6894,6.8144,6.9414,6.9472,7.0781,7.1992,7.1992,7.1992,7.1992,7.1992,7.1992,7.1992,7.1992,7.1992,7.1992,7.1992,7.1992,7.1992,7.1992,7.1992,7.1992,7.1992,7.1992,7.1992,7.1992,7.1992,7.1992,7.1992,7.1992,7.1992,7.1992,7.1992,7.1992,7.1992,7.1992,7.1992,7.1992,7.1992,7.1992,7.1992,7.1992,7.1992,5.0707,5.0707,5.0784,5.1183,5.1582,5.212,5.2947,5.3857,5.4607,5.4991,5.542,5.5708,5.5708,5.5708,5.5708,5.5708,5.5708,5.5708,5.5708,5.5708,5.5708,5.5708,5.5708,5.5708,5.5708,5.5708,5.5708,5.5708,5.6112,5.6766,5.7627,5.8473,5.9334,6.0252,6.075,6.1074,6.1259,6.1364,6.1465,6.1608,6.1608,6.1635,6.1699,6.1699,6.1699,6.1699,6.1699,6.1699,6.1699,6.1699,6.1699,6.1699,6.1699,6.2226,6.3105,6.3984,6.4844,6.5723,6.6601,6.6894,6.6894,6.6894,6.6894,6.6894,6.6894,6.6894,6.6894,6.6894,6.6894,6.6894,6.6894,6.8144,6.9414,6.9472,7.0781,7.1992,7.1992,7.1992,7.1992,7.1992,7.1992,7.1992,7.1992,7.1992,7.1992,7.1992,7.1992,7.1992,7.1992,7.1992,7.1992,7.1992,7.1992,7.1992,7.1992,7.1992,7.1992,7.1992,7.1992,7.1992,7.1992,7.1992,7.1992,7.1992,7.1992,7.1992,7.1992,7.1992,7.1992,7.1992,7.1992,7.1992,5.0707,5.0803,5.1068,5.1736,5.214,5.2736,5.4164,5.4607,5.4895,5.5555,5.5708,5.5708,5.5708,5.5708,5.5708,5.5708,5.5708,5.5708,5.5708,5.5708,5.5708,5.5708,5.5708,5.5708,5.5708,5.5708,5.5708,5.5708,5.5708,5.6074,5.6945,5.7838,5.8665,5.9473,6.0461,6.0976,6.1001,6.1172,6.1323,6.1462,6.1496,6.1577,6.1699,6.1699,6.1699,6.1699,6.1699,6.1699,6.1699,6.1699,6.1699,6.1699,6.1699,6.2148,6.289,6.3926,6.4765,6.5527,6.6543,6.6894,6.6894,6.6894,6.6894,6.6894,6.6894,6.6894,6.6894,6.6894,6.6894,6.6894,6.6894,6.8144,6.9414,6.9472,7.0781,7.1992,7.1992,7.1992,7.1992,7.1992,7.1992,7.1992,7.1992,7.1992,7.1992,7.1992,7.1992,7.1992,7.1992,7.1992,7.1992,7.1992,7.1992,7.1992,7.1992,7.1992,7.1992,7.1992,7.1992,7.1992,7.1992,7.1992,7.1992,7.1992,7.1992,7.1992,7.1992,7.1992,7.1992,7.1992,7.1992,7.1992,5.0707,5.1202,5.1774,5.1865,5.3044,5.4203,5.4453,5.503,5.5574,5.5689,5.5708,5.5708,5.5708,5.5708,5.5708,5.5708,5.5708,5.5708,5.5708,5.5708,5.5708,5.5708,5.5708,5.5708,5.5708,5.5708,5.5708,5.5708,5.5708,5.6074,5.6945,5.7838,5.8665,5.9473,6.036,6.0873,6.0997,6.1031,6.115,6.1337,6.1446,6.1577,6.1699,6.1699,6.1699,6.1699,6.1699,6.1699,6.1699,6.1699,6.1699,6.1699,6.1699,6.1777,6.207,6.3691,6.4375,6.4707,6.6348,6.6894,6.6894,6.6894,6.6894,6.6894,6.6894,6.6894,6.6894,6.6894,6.6894,6.6894,6.6894,6.8144,6.9414,6.9472,7.0781,7.1992,7.1992,7.1992,7.1992,7.1992,7.1992,7.1992,7.1992,7.1992,7.1992,7.1992,7.1992,7.1992,7.1992,7.1992,7.1992,7.1992,7.1992,7.1992,7.1992,7.1992,7.1992,7.1992,7.1992,7.1992,7.1992,7.1992,7.1992,7.1992,7.1992,7.1992,7.1992,7.1992,7.1992,7.1992,7.1992,7.1992,5.1241,5.162,5.2135,5.3101,5.3933,5.4626,5.5068,5.5458,5.5708,5.5708,5.5708,5.5708,5.5708,5.5708,5.5708,5.5708,5.5708,5.5708,5.5708,5.5708,5.5708,5.5708,5.5708,5.5708,5.5708,5.5708,5.5708,5.5708,5.5708,5.5862,5.6247,5.7093,5.7953,5.88,5.9646,6.033,6.0883,6.0883,6.1022,6.1309,6.144,6.1577,6.1699,6.1699,6.1699,6.1699,6.1699,6.1699,6.1699,6.1699,6.1699,6.1699,6.1699,6.1699,6.1914,6.3652,6.4297,6.4551,6.6308,6.6894,6.6894,6.6894,6.6894,6.6894,6.6894,6.6894,6.6894,6.6894,6.6894,6.6894,6.6894,6.8144,6.9414,6.9472,7.0781,7.1992,7.1992,7.1992,7.1992,7.1992,7.1992,7.1992,7.1992,7.1992,7.1992,7.1992,7.1992,7.1992,7.1992,7.1992,7.1992,7.1992,7.1992,7.1992,7.1992,7.1992,7.1992,7.1992,7.1992,7.1992,7.1992,7.1992,7.1992,7.1992,7.1992,7.1992,7.1992,7.1992,7.1992,7.1992,7.1992,7.1992,5.1736,5.2217,5.287,5.4184,5.4645,5.4953,5.5555,5.5708,5.5708,5.5708,5.5708,5.5708,5.5708,5.5708,5.5708,5.5708,5.5708,5.5708,5.5708,5.5708,5.5708,5.5708,5.5708,5.5708,5.5708,5.5708,5.5708,5.5708,5.5708,5.5708,5.5708,5.6536,5.7401,5.828,5.9088,5.9915,6.0787,6.0806,6.0939,6.1227,6.1325,6.1477,6.1656,6.1656,6.1678,6.1699,6.1699,6.1699,6.1699,6.1699,6.1699,6.1699,6.1699,6.1699,6.1914,6.3652,6.4297,6.4551,6.6308,6.6894,6.6894,6.6894,6.6894,6.6894,6.6894,6.6894,6.6894,6.6894,6.6894,6.6894,6.6894,6.8144,6.9414,6.9472,7.0781,7.1992,7.1992,7.1992,7.1992,7.1992,7.1992,7.1992,7.1992,7.1992,7.1992,7.1992,7.1992,7.1992,7.1992,7.1992,7.1992,7.1992,7.1992,7.1992,7.1992,7.1992,7.1992,7.1992,7.1992,7.1992,7.1992,7.1992,7.1992,7.1992,7.1992,7.1992,7.1992,7.1992,7.1992,7.1992,7.1992,7.1992,5.1885,5.3101,5.4395,5.4472,5.5068,5.5651,5.5689,5.5708,5.5708,5.5708,5.5708,5.5708,5.5708,5.5708,5.5708,5.5708,5.5708,5.5708,5.5708,5.5708,5.5708,5.5708,5.5708,5.5708,5.5708,5.5708,5.5708,5.5708,5.5708,5.5708,5.5708,5.6536,5.7401,5.828,5.9088,5.9915,6.0787,6.0806,6.0866,6.1019,6.1012,6.1198,6.1509,6.1509,6.158,6.1699,6.1699,6.1699,6.1699,6.1699,6.1699,6.1699,6.1699,6.1699,6.1914,6.3652,6.4297,6.4551,6.6308,6.6894,6.6894,6.6894,6.6894,6.6894,6.6894,6.6894,6.6894,6.6894,6.6894,6.6894,6.6894,6.8144,6.9414,6.9472,7.0781,7.1992,7.1992,7.1992,7.1992,7.1992,7.1992,7.1992,7.1992,7.1992,7.1992,7.1992,7.1992,7.1992,7.1992,7.1992,7.1992,7.1992,7.1992,7.1992,7.1992,7.1992,7.1992,7.1992,7.1992,7.1992,7.1992,7.1992,7.1992,7.1992,7.1992,7.1992,7.1992,7.1992,7.1992,7.1992,7.1992,7.1992,5.3255,5.403,5.4626,5.5151,5.5497,5.5708,5.5708,5.5708,5.5708,5.5708,5.5708,5.5708,5.5708,5.5708,5.5708,5.5708,5.5708,5.5708,5.5708,5.5708,5.5708,5.5708,5.5708,5.5708,5.5708,5.5708,5.5708,5.5708,5.5708,5.5708,5.5708,5.5997,5.6824,5.8256,5.8583,5.9396,6.0787,6.0806,6.088,6.1001,6.1001,6.1178,6.1504,6.1504,6.1578,6.1699,6.1699,6.1699,6.1699,6.1699,6.1699,6.1699,6.1699,6.1699,6.1914,6.3652,6.4297,6.4551,6.6308,6.6894,6.6894,6.6894,6.6894,6.6894,6.6894,6.6894,6.6894,6.6894,6.6894,6.7031,6.7598,6.8555,6.9687,7.082,7.1562,7.1992,7.1992,7.1992,7.1992,7.1992,7.1992,7.1992,7.1992,7.1992,7.1992,7.1992,7.1992,7.1992,7.1992,7.1992,7.1992,7.1992,7.1992,7.1992,7.1992,7.1992,7.1992,7.1992,7.1992,7.1992,7.1992,7.1992,7.1992,7.1992,7.1992,7.1992,7.1992,7.1992,7.1992,7.1992,7.1992,7.1992,5.4184,5.4703,5.503,5.5574,5.5708,5.5708,5.5708,5.5708,5.5708,5.5708,5.5708,5.5708,5.5708,5.5708,5.5708,5.5708,5.5708,5.5708,5.5708,5.5708,5.5708,5.5708,5.5708,5.5708,5.5708,5.5708,5.5708,5.5708,5.5708,5.5708,5.5708,5.5708,5.6492,5.8236,5.8858,5.9665,6.0787,6.0806,6.0845,6.0935,6.0935,6.112,6.1436,6.1436,6.154,6.1699,6.1699,6.1699,6.1699,6.1699,6.1699,6.1699,6.1699,6.1699,6.1914,6.3652,6.4297,6.4551,6.6308,6.6894,6.6894,6.6894,6.6894,6.6894,6.6894,6.6894,6.6894,6.6894,6.6894,6.7109,6.7969,6.9004,7.0195,7.166,7.1992,7.1992,7.1992,7.1992,7.1992,7.1992,7.1992,7.1992,7.1992,7.1992,7.1992,7.1992,7.1992,7.1992,7.1992,7.1992,7.1992,7.1992,7.1992,7.1992,7.1992,7.1992,7.1992,7.1992,7.1992,7.1992,7.1992,7.1992,7.1992,7.1992,7.1992,7.1992,7.1992,7.1992,7.1992,7.1992,7.1992,7.1992,0.0,0.0,0.0,5.5708,5.5708,5.5708,5.5708,5.5708,5.5708,5.5708,5.5708,5.5708,5.5708,5.5708,5.5708,5.5708,5.5708,5.5708,5.5708,5.5708,5.5708,5.5708,5.5708,5.5708,5.5708,5.5708,5.5708,5.5708,5.5708,5.5708,5.5708,5.5747,5.6549,5.8275,5.9935,6.0806,6.0806,6.0806,6.0806,6.0806,6.0806,6.0959,6.13,6.1303,6.1446,6.1699,6.1699,6.1699,6.1699,6.1699,6.1699,6.1699,6.1699,6.1699,6.1914,6.3633,6.4277,6.4551,6.6269,6.6875,6.6894,6.6894,6.6894,6.6894,6.6894,6.6894,6.6894,6.6894,6.6894,6.7109,6.8008,6.9472,7.0957,7.1797,7.1992,7.1992,7.1992,7.1992,7.1992,7.1992,7.1992,7.1992,7.1992,7.1992,7.1992,7.1992,7.1992,7.1992,7.1992,7.1992,7.1992,7.1992,7.1992,7.1992,7.1992,7.1992,7.1992,7.1992,7.1992,7.1992,7.1992,7.1992,7.1992,7.1992,7.1992,7.1992,7.1992,7.1992,7.1992,7.1992,7.1992,7.1992,5.5208,0.0,0.0,0.0,0.0,0.0,5.5708,5.5708,5.5708,5.5708,5.5708,5.5708,5.5708,5.5708,5.5708,5.5708,5.5708,5.5708,5.5708,5.5708,5.5708,5.5708,5.5708,5.5708,5.5708,5.5708,5.5708,5.5708,5.5708,5.5708,5.5708,5.6896,5.8069,5.9127,6.0223,6.0806,6.0806,6.0806,6.0806,6.0806,6.0806,6.0902,6.1097,6.1234,6.1385,6.1553,6.1657,6.1699,6.1699,6.1699,6.1699,6.1699,6.1699,6.1699,6.1836,6.2949,6.3769,6.4453,6.5566,6.6367,6.6894,6.6894,6.6894,6.6894,6.6894,6.6894,6.6894,6.6894,6.6894,6.7226,6.8691,7.0351,7.1699,7.1933,7.1992,7.1992,7.1992,7.1992,7.1992,7.1992,7.1992,7.1992,7.1992,7.1992,7.1992,7.1992,7.1992,7.1992,7.1992,7.1992,7.1992,7.1992,7.1992,7.1992,7.1992,7.1992,7.1992,7.1992,7.1992,7.1992,7.1992,7.1992,7.1992,7.1992,7.1992,7.1992,7.1992,7.1992,7.1992,7.1992,7.1992,7.1992,5.5574,5.5708,5.5708,5.5708,0.0,0.0,5.5708,5.5708,5.5708,5.5708,5.5708,5.5708,5.5708,5.5708,5.5708,5.5708,5.5708,5.5708,5.5708,5.5708,5.5708,5.5708,5.5708,5.5708,5.5708,5.5708,5.5708,5.5708,5.5708,5.5862,5.6228,5.755,5.8665,5.9473,6.0339,6.0806,6.0806,6.0806,6.0806,6.0806,6.0806,6.0866,6.1006,6.1108,6.1293,6.1505,6.1581,6.1656,6.1699,6.1699,6.1699,6.1699,6.1699,6.1699,6.1816,6.2676,6.3555,6.4414,6.5293,6.6172,6.6894,6.6894,6.6894,6.6894,6.6894,6.6894,6.6894,6.6894,6.7402,6.8164,6.918,7.0703,7.1992,7.1992,7.1992,7.1992,7.1992,7.1992,7.1992,7.1992,7.1992,7.1992,7.1992,7.1992,7.1992,7.1992,7.1992,7.1992,7.1992,7.1992,7.1992,7.1992,7.1992,7.1992,7.1992,7.1992,7.1992,7.1992,7.1992,7.1992,7.1992,7.1992,7.1992,7.1992,7.1992,7.1992,7.1992,7.1992,7.1992,7.1992,7.1992,7.1992,5.5708,5.5708,5.5708,5.5708,5.5708,0.0,5.5708,5.5708,5.5708,5.5708,5.5708,5.5708,5.5708,5.5708,5.5708,5.5708,5.5708,5.5708,5.5708,5.5708,5.5708,5.5708,5.5708,5.5708,5.5708,5.5708,5.5708,5.5708,5.5708,5.6112,5.7093,5.7877,5.8698,5.9627,6.0396,6.0806,6.0806,6.0806,6.0806,6.0806,6.0806,6.0869,6.0981,6.0988,6.1175,6.147,6.1499,6.1579,6.1699,6.1699,6.1699,6.1699,6.1699,6.1699,6.1797,6.2578,6.3476,6.4414,6.5195,6.6094,6.6894,6.6894,6.6894,6.6894,6.6894,6.6894,6.6894,6.6894,6.8105,6.9414,6.9472,7.0742,7.1992,7.1992,7.1992,7.1992,7.1992,7.1992,7.1992,7.1992,7.1992,7.1992,7.1992,7.1992,7.1992,7.1992,7.1992,7.1992,7.1992,7.1992,7.1992,7.1992,7.1992,7.1992,7.1992,7.1992,7.1992,7.1992,7.1992,7.1992,7.1992,7.1992,7.1992,7.1992,7.1992,7.1992,7.1992,7.1992,7.1992,7.1992,7.1992,7.1992,5.5708,5.5708,5.5708,5.5708,5.5708,0.0,5.5708,5.5708,5.5708,5.5708,5.5708,5.5708,5.5708,5.5708,5.5708,5.5708,5.5708,5.5708,5.5708,5.5708,5.5708,5.5708,5.5708,5.5708,5.5708,5.5708,5.5708,5.5708,5.5708,5.6395,5.7953,5.8204,5.8992,6.0498,6.0704,6.0806,6.0806,6.0806,6.0806,6.0806,6.0806,6.0816,6.0845,6.0949,6.112,6.1356,6.1453,6.1579,6.1699,6.1699,6.1699,6.1699,6.1699,6.1699,6.1719,6.1894,6.2949,6.4316,6.4492,6.5586,6.6894,6.6894,6.6894,6.6894,6.6894,6.6894,6.6894,6.6894,6.8105,6.9394,6.9414,7.0703,7.1992,7.1992,7.1992,7.1992,7.1992,7.1992,7.1992,7.1992,7.1992,7.1992,7.1992,7.1992,7.1992,7.1992,7.1992,7.1992,7.1992,7.1992,7.1992,7.1992,7.1992,7.1992,7.1992,7.1992,7.1992,7.1992,7.1992,7.1992,7.1992,7.1992,7.1992,7.1992,7.1992,7.1992,7.1992,7.1992,7.1992,7.1992,7.1992,7.1992,5.5708,5.5708,5.5708,5.5708,5.5708,0.0,0.0,5.5708,5.5708,5.5708,5.5708,5.5708,5.5708,5.5708,5.5708,5.5708,5.5708,5.5708,5.5708,5.5708,5.5708,5.5708,5.5708,5.5708,5.5708,5.5708,5.5708,5.5708,5.6093,5.692,5.8236,5.8684,5.9473,6.0768,6.0806,6.0806,6.0806,6.0806,6.0806,6.0806,6.0806,6.0806,6.0806,6.0866,6.0991,6.1169,6.1334,6.1488,6.1608,6.1678,6.1699,6.1699,6.1699,6.1699,6.1699,6.1699,6.2793,6.4297,6.4297,6.5449,6.6894,6.6894,6.6894,6.6894,6.6894,6.6894,6.6894,6.6894,6.8105,6.9394,6.9394,7.0683,7.1992,7.1992,7.1992,7.1992,7.1992,7.1992,7.1992,7.1992,7.1992,7.1992,7.1992,7.1992,7.1992,7.1992,7.1992,7.1992,7.1992,7.1992,7.1992,7.1992,7.1992,7.1992,7.1992,7.1992,7.1992,7.1992,7.1992,7.1992,7.1992,7.1992,7.1992,7.1992,7.1992,7.1992,7.1992,7.1992,7.1992,7.1992,7.1992,7.1992,5.5708,5.5708,5.5708,5.5708,5.5708,5.5708,0.0,0.0,0.0,5.5708,5.5708,5.5708,5.5708,5.5708,5.5708,5.5708,5.5708,5.5708,5.5708,5.5708,5.5708,5.5708,5.5708,5.5708,5.5708,5.5708,5.5708,5.5708,5.6516,5.7382,5.8256,5.9069,5.9896,6.0762,6.0806,6.0806,6.0806,6.0806,6.0806,6.0806,6.0806,6.0806,6.0806,6.0806,6.0871,6.1014,6.1214,6.1388,6.1509,6.1636,6.1699,6.1699,6.1699,6.1699,6.1699,6.1699,6.2793,6.4297,6.4297,6.5449,6.6894,6.6894,6.6894,6.6894,6.6894,6.6894,6.6894,6.6894,6.8105,6.9394,6.9394,7.0683,7.1992,7.1992,7.1992,7.1992,7.1992,7.1992,7.1992,7.1992,7.1992,7.1992,7.1992,7.1992,7.1992,7.1992,7.1992,7.1992,7.1992,7.1992,7.1992,7.1992,7.1992,7.1992,7.1992,7.1992,7.1992,7.1992,7.1992,7.1992,7.1992,7.1992,7.1992,7.1992,7.1992,7.1992,7.1992,7.1992,7.1992,7.1992,7.1992,7.1992,5.5708,5.5708,5.5708,5.5708,5.5708,5.5708,5.5708,0.0,5.5708,5.5708,0.0,5.5708,5.5708,0.0,0.0,5.5708,5.5708,5.5708,5.5708,5.5708,5.5708,5.5708,5.5708,5.5708,5.5708,5.5708,5.5708,5.5708,5.6516,5.7382,5.8256,5.9069,5.9896,6.0762,6.0806,6.0806,6.0806,6.0806,6.0806,6.0806,6.0806,6.0806,6.0806,6.0806,6.0871,6.1014,6.1214,6.1388,6.1509,6.1636,6.1699,6.1699,6.1699,6.1699,6.1699,6.1699,6.2793,6.4297,6.4297,6.5449,6.6894,6.6894,6.6894,6.6894,6.6894,6.6894,6.6894,6.6894,6.8105,6.9394,6.9394,7.0683,7.1992,7.1992,7.1992,7.1992,7.1992,7.1992,7.1992,7.1992,7.1992,7.1992,7.1992,7.1992,7.1992,7.1992,7.1992,7.1992,7.1992,7.1992,7.1992,7.1992,7.1992,7.1992,7.1992,7.1992,7.1992,7.1992,7.1992,7.1992,7.1992,7.1992,7.1992,7.1992,7.1992,7.1992,7.1992,7.1992,7.1992,7.1992,7.1992,7.1992,5.5708,5.5708,5.5708,5.5708,5.6074,5.6439,5.6439,5.6916,5.7294,5.7222,0.0,0.0,0.0,0.0,0.0,0.0,5.5708,5.5708,5.5708,5.5708,5.5708,5.5708,5.5708,5.5708,5.5708,5.5708,5.592,5.642,5.7267,5.8127,5.8954,5.98,6.0416,6.0787,6.0806,6.0806,6.0806,6.0806,6.0806,6.0806,6.0806,6.0806,6.0806,6.0806,6.0836,6.0888,6.1063,6.1221,6.1385,6.1538,6.1633,6.1699,6.1699,6.1699,6.1699,6.1699,6.2793,6.4297,6.4297,6.5449,6.6894,6.6894,6.6894,6.6894,6.6894,6.6894,6.6894,6.6894,6.8105,6.9414,6.9453,7.0722,7.1992,7.1992,7.1992,7.1992,7.1992,7.1992,7.1992,7.1992,7.1992,7.1992,7.1992,7.1992,7.1992,7.1992,7.1992,7.1992,7.1992,7.1992,7.1992,7.1992,7.1992,7.1992,7.1992,7.1992,7.1992,7.1992,7.1992,7.1992,7.1992,7.1992,7.1992,7.1992,7.1992,7.1992,7.1992,7.1992,7.1992,7.1992,7.1992,7.1992,5.5997,5.6055,5.6112,5.6357,5.6901,5.7365,5.7392,5.7983,5.8482,5.8423,5.8559,0.0,0.0,0.0,5.7296,5.6312,0.0,5.6086,5.5869,5.5845,5.5798,5.5705,5.5708,5.5708,5.5708,5.5708,5.6055,5.6926,5.7819,5.864,5.9454,6.0319,6.0806,6.0806,6.0806,6.0806,6.0806,6.0806,6.0806,6.0806,6.0806,6.0806,6.0806,6.0806,6.0806,6.0804,6.093,6.1105,6.1317,6.1446,6.1579,6.1699,6.1699,6.1699,6.1699,6.1699,6.2656,6.3984,6.4219,6.5449,6.6894,6.6894,6.6894,6.6894,6.6894,6.6894,6.6894,6.6894,6.8105,6.9414,6.9453,7.0722,7.1992,7.1992,7.1992,7.1992,7.1992,7.1992,7.1992,7.1992,7.1992,7.1992,7.1992,7.1992,7.1992,7.1992,7.1992,7.1992,7.1992,7.1992,7.1992,7.1992,7.1992,7.1992,7.1992,7.1992,7.1992,7.1992,7.1992,7.1992,7.1992,7.1992,7.1992,7.1992,7.1992,7.1992,7.1992,7.1992,7.1992,7.1992,7.1992,7.1992,5.6728,5.6964,5.7151,5.8011,5.8236,5.8299,5.8428,5.8488,5.8533,5.8656,5.8696,5.8698,5.8651,5.8654,5.8359,5.7492,5.7356,0.0,0.0,5.6178,5.6061,5.5733,5.5708,5.5708,5.5708,5.5708,5.6055,5.6926,5.7819,5.864,5.9454,6.0319,6.0806,6.0806,6.0806,6.0806,6.0806,6.0806,6.0806,6.0806,6.0806,6.0806,6.0806,6.0806,6.0806,6.0804,6.093,6.1105,6.1317,6.1446,6.1579,6.1699,6.1699,6.1699,6.1699,6.1699,6.2265,6.3164,6.4004,6.5449,6.6894,6.6894,6.6894,6.6894,6.6894,6.6894,6.6894,6.6894,6.8105,6.9394,6.9394,7.0703,7.1992,7.1992,7.1992,7.1992,7.1992,7.1992,7.1992,7.1992,7.1992,7.1992,7.1992,7.1992,7.1992,7.1992,7.1992,7.1992,7.1992,7.1992,7.1992,7.1992,7.1992,7.1992,7.1992,7.1992,7.1992,7.1992,7.1992,7.1992,7.1992,7.1992,7.1992,7.1992,7.1992,7.1992,7.1992,7.1992,7.1992,7.1992,7.1992,7.1992,0.0,0.0,5.7934,5.8223,5.8698,5.9147,5.9327,5.9875,6.0369,6.0408,6.0552,6.0443,5.9706,5.9624,5.9379,5.8422,5.8251,5.7956,0.0,5.6544,5.6116,5.5864,5.5759,5.5708,5.5708,5.6228,5.692,5.778,5.8627,5.9454,6.03,6.0646,6.0806,6.0806,6.0806,6.0806,6.0806,6.0806,6.0806,6.0806,6.0806,6.0806,6.0806,6.0806,6.0806,6.0806,6.0856,6.1027,6.1309,6.1341,6.1502,6.1699,6.1699,6.1699,6.1699,6.1699,6.2246,6.3203,6.4668,6.5918,6.6894,6.6894,6.6894,6.6894,6.6894,6.6894,6.6894,6.6894,6.8105,6.9394,6.9394,7.0683,7.1992,7.1992,7.1992,7.1992,7.1992,7.1992,7.1992,7.1992,7.1992,7.1992,7.1992,7.1992,7.1992,7.1992,7.1992,7.1992,7.1992,7.1992,7.1992,7.1992,7.1992,7.1992,7.1992,7.1992,7.1992,7.1992,7.1992,7.1992,7.1992,7.1992,7.1992,7.1992,7.1992,7.1992,7.1992,7.1992,7.1992,7.1992,7.1992,7.1992,5.864,5.8723,0.0,5.9108,5.9588,0.0,6.0193,6.0724,6.1214,6.1294,6.144,6.1331,6.0591,6.0566,6.036,5.938,5.9266,5.9017,0.0,5.7285,5.6799,5.696,5.6267,5.587,5.6142,5.667,5.7478,5.8646,5.9204,5.9877,6.0748,6.0806,6.0806,6.0806,6.0806,6.0806,6.0806,6.0806,6.0806,6.0806,6.0806,6.0806,6.0806,6.0806,6.0806,6.0793,6.0842,6.1027,6.1289,6.1344,6.1504,6.1699,6.1699,6.1699,6.1699,6.1699,6.2441,6.3613,6.4746,6.5918,6.6894,6.6894,6.6894,6.6894,6.6894,6.6894,6.6894,6.6894,6.8105,6.9414,6.9433,7.0703,7.1992,7.1992,7.1992,7.1992,7.1992,7.1992,7.1992,7.1992,7.1992,7.1992,7.1992,7.1992,7.1992,7.1992,7.1992,7.1992,7.1992,7.1992,7.1992,7.1992,7.1992,7.1992,7.1992,7.1992,7.1992,7.1992,7.1992,7.1992,7.1992,7.1992,7.2441,7.3379,7.2461,7.2461,7.3379,7.2441,7.1992,7.1992,7.1992,7.1992]}]]